<?xml version="1.0" encoding="UTF-8" standalone="no" ?>
<gpx xmlns="http://www.topografix.com/GPX/1/1" xmlns:xsi="http://www.w3.org/2001/XMLSchema-instance" xsi:schemaLocation="http://www.topografix.com/GPX/1/1 http://www.topografix.com/GPX/1/1/gpx.xsd" version="1.1" creator="VisuGPX - https://www.visugpx.com">
  <metadata>
    <name>St Pierre de Cherenne</name>
    <desc><![CDATA[St Pierre de Cherenne]]></desc>
  </metadata>
  <trk>
    <name><![CDATA[St Pierre de cherenne]]></name>
    <cmt><![CDATA[Bruno, Thierry, Jean Marie, Jean Michel, jusqu'a la madeleine Claude et Jacques]]></cmt>
    <trkseg>
      <trkpt lat="45.11568" lon="4.96428">
        <ele>259.20599365234</ele>
        <time>2009-08-08T11:28:55Z</time>
      </trkpt>
      <trkpt lat="45.11558" lon="4.96443">
        <ele>257.93899536133</ele>
        <time>2009-08-08T11:29:16Z</time>
      </trkpt>
      <trkpt lat="45.11559" lon="4.96448">
        <ele>258.28500366211</ele>
        <time>2009-08-08T11:29:17Z</time>
      </trkpt>
      <trkpt lat="45.11562" lon="4.96454">
        <ele>258.06500244141</ele>
        <time>2009-08-08T11:29:19Z</time>
      </trkpt>
      <trkpt lat="45.11562" lon="4.96454">
        <ele>257.41598510742</ele>
        <time>2009-08-08T11:29:27Z</time>
      </trkpt>
      <trkpt lat="45.11572" lon="4.96452">
        <ele>257.72399902344</ele>
        <time>2009-08-08T11:29:34Z</time>
      </trkpt>
      <trkpt lat="45.11574" lon="4.96454">
        <ele>257.5719909668</ele>
        <time>2009-08-08T11:29:37Z</time>
      </trkpt>
      <trkpt lat="45.11575" lon="4.96469">
        <ele>257.80700683594</ele>
        <time>2009-08-08T11:29:43Z</time>
      </trkpt>
      <trkpt lat="45.11569" lon="4.96495">
        <ele>256.18099975586</ele>
        <time>2009-08-08T11:29:50Z</time>
      </trkpt>
      <trkpt lat="45.11572" lon="4.96515">
        <ele>256.98498535156</ele>
        <time>2009-08-08T11:29:54Z</time>
      </trkpt>
      <trkpt lat="45.11591" lon="4.96566">
        <ele>255.87300109863</ele>
        <time>2009-08-08T11:30:02Z</time>
      </trkpt>
      <trkpt lat="45.11598" lon="4.96587">
        <ele>255.34899902344</ele>
        <time>2009-08-08T11:30:05Z</time>
      </trkpt>
      <trkpt lat="45.11617" lon="4.96638">
        <ele>256.0530090332</ele>
        <time>2009-08-08T11:30:12Z</time>
      </trkpt>
      <trkpt lat="45.11635" lon="4.96689">
        <ele>254.70799255371</ele>
        <time>2009-08-08T11:30:19Z</time>
      </trkpt>
      <trkpt lat="45.11663" lon="4.9675">
        <ele>255.51699829102</ele>
        <time>2009-08-08T11:30:28Z</time>
      </trkpt>
      <trkpt lat="45.11719" lon="4.96839">
        <ele>255.71200561523</ele>
        <time>2009-08-08T11:30:43Z</time>
      </trkpt>
      <trkpt lat="45.11727" lon="4.9686">
        <ele>255.53100585938</ele>
        <time>2009-08-08T11:30:46Z</time>
      </trkpt>
      <trkpt lat="45.11743" lon="4.96883">
        <ele>256.15701293945</ele>
        <time>2009-08-08T11:30:50Z</time>
      </trkpt>
      <trkpt lat="45.11815" lon="4.96982">
        <ele>255.52600097656</ele>
        <time>2009-08-08T11:31:07Z</time>
      </trkpt>
      <trkpt lat="45.11869" lon="4.97052">
        <ele>255.91299438477</ele>
        <time>2009-08-08T11:31:19Z</time>
      </trkpt>
      <trkpt lat="45.11876" lon="4.97084">
        <ele>255.20500183106</ele>
        <time>2009-08-08T11:31:23Z</time>
      </trkpt>
      <trkpt lat="45.11871" lon="4.9713">
        <ele>254.76899719238</ele>
        <time>2009-08-08T11:31:28Z</time>
      </trkpt>
      <trkpt lat="45.11886" lon="4.97249">
        <ele>253.43600463867</ele>
        <time>2009-08-08T11:31:40Z</time>
      </trkpt>
      <trkpt lat="45.11918" lon="4.97433">
        <ele>253.01400756836</ele>
        <time>2009-08-08T11:32:00Z</time>
      </trkpt>
      <trkpt lat="45.11944" lon="4.97582">
        <ele>253.79400634766</ele>
        <time>2009-08-08T11:32:19Z</time>
      </trkpt>
      <trkpt lat="45.11972" lon="4.9774">
        <ele>254.63800048828</ele>
        <time>2009-08-08T11:32:38Z</time>
      </trkpt>
      <trkpt lat="45.12013" lon="4.97957">
        <ele>255.01800537109</ele>
        <time>2009-08-08T11:33:04Z</time>
      </trkpt>
      <trkpt lat="45.12054" lon="4.98111">
        <ele>255.78799438477</ele>
        <time>2009-08-08T11:33:23Z</time>
      </trkpt>
      <trkpt lat="45.12063" lon="4.98264">
        <ele>256.09399414062</ele>
        <time>2009-08-08T11:33:41Z</time>
      </trkpt>
      <trkpt lat="45.1204" lon="4.98389">
        <ele>256.35501098633</ele>
        <time>2009-08-08T11:33:56Z</time>
      </trkpt>
      <trkpt lat="45.12016" lon="4.98405">
        <ele>256.14599609375</ele>
        <time>2009-08-08T11:34:01Z</time>
      </trkpt>
      <trkpt lat="45.11988" lon="4.98396">
        <ele>255.05799865723</ele>
        <time>2009-08-08T11:34:05Z</time>
      </trkpt>
      <trkpt lat="45.11956" lon="4.9842">
        <ele>254.91900634766</ele>
        <time>2009-08-08T11:34:11Z</time>
      </trkpt>
      <trkpt lat="45.11956" lon="4.98426">
        <ele>254.88400268555</ele>
        <time>2009-08-08T11:34:15Z</time>
      </trkpt>
      <trkpt lat="45.11959" lon="4.98431">
        <ele>254.24299621582</ele>
        <time>2009-08-08T11:34:32Z</time>
      </trkpt>
      <trkpt lat="45.11959" lon="4.98431">
        <ele>254.32299804688</ele>
        <time>2009-08-08T11:34:33Z</time>
      </trkpt>
      <trkpt lat="45.11962" lon="4.98431">
        <ele>235.79200744629</ele>
        <time>2009-08-08T11:46:14Z</time>
      </trkpt>
      <trkpt lat="45.11962" lon="4.9843">
        <ele>235.71000671387</ele>
        <time>2009-08-08T11:46:15Z</time>
      </trkpt>
      <trkpt lat="45.11966" lon="4.98426">
        <ele>235.14799499512</ele>
        <time>2009-08-08T11:46:34Z</time>
      </trkpt>
      <trkpt lat="45.11968" lon="4.98427">
        <ele>235.19299316406</ele>
        <time>2009-08-08T11:46:36Z</time>
      </trkpt>
      <trkpt lat="45.11973" lon="4.98421">
        <ele>235.18800354004</ele>
        <time>2009-08-08T11:46:39Z</time>
      </trkpt>
      <trkpt lat="45.11974" lon="4.98407">
        <ele>234.75700378418</ele>
        <time>2009-08-08T11:46:43Z</time>
      </trkpt>
      <trkpt lat="45.11996" lon="4.98396">
        <ele>234.80000305176</ele>
        <time>2009-08-08T11:46:53Z</time>
      </trkpt>
      <trkpt lat="45.12027" lon="4.98415">
        <ele>235.90600585938</ele>
        <time>2009-08-08T11:47:06Z</time>
      </trkpt>
      <trkpt lat="45.12027" lon="4.98415">
        <ele>235.93200683594</ele>
        <time>2009-08-08T11:47:07Z</time>
      </trkpt>
      <trkpt lat="45.12027" lon="4.98443">
        <ele>235.67599487305</ele>
        <time>2009-08-08T11:47:18Z</time>
      </trkpt>
      <trkpt lat="45.1202" lon="4.98473">
        <ele>235.66999816894</ele>
        <time>2009-08-08T11:47:23Z</time>
      </trkpt>
      <trkpt lat="45.12016" lon="4.98506">
        <ele>235.4640045166</ele>
        <time>2009-08-08T11:47:28Z</time>
      </trkpt>
      <trkpt lat="45.12019" lon="4.98651">
        <ele>235.76499938965</ele>
        <time>2009-08-08T11:47:47Z</time>
      </trkpt>
      <trkpt lat="45.12052" lon="4.98809">
        <ele>235.45100402832</ele>
        <time>2009-08-08T11:48:07Z</time>
      </trkpt>
      <trkpt lat="45.12096" lon="4.98911">
        <ele>235.20300292969</ele>
        <time>2009-08-08T11:48:22Z</time>
      </trkpt>
      <trkpt lat="45.12114" lon="4.98942">
        <ele>236.87100219727</ele>
        <time>2009-08-08T11:48:27Z</time>
      </trkpt>
      <trkpt lat="45.12167" lon="4.99015">
        <ele>238.31599426269</ele>
        <time>2009-08-08T11:48:41Z</time>
      </trkpt>
      <trkpt lat="45.122" lon="4.9905">
        <ele>240.76899719238</ele>
        <time>2009-08-08T11:48:50Z</time>
      </trkpt>
      <trkpt lat="45.12212" lon="4.99069">
        <ele>240.56500244141</ele>
        <time>2009-08-08T11:48:54Z</time>
      </trkpt>
      <trkpt lat="45.12232" lon="4.99082">
        <ele>241.74699401856</ele>
        <time>2009-08-08T11:48:59Z</time>
      </trkpt>
      <trkpt lat="45.12273" lon="4.99095">
        <ele>246.3809967041</ele>
        <time>2009-08-08T11:49:12Z</time>
      </trkpt>
      <trkpt lat="45.12281" lon="4.99121">
        <ele>247.27499389648</ele>
        <time>2009-08-08T11:49:18Z</time>
      </trkpt>
      <trkpt lat="45.12294" lon="4.99161">
        <ele>248.17900085449</ele>
        <time>2009-08-08T11:49:26Z</time>
      </trkpt>
      <trkpt lat="45.1233" lon="4.99231">
        <ele>249.88999938965</ele>
        <time>2009-08-08T11:49:41Z</time>
      </trkpt>
      <trkpt lat="45.12335" lon="4.99241">
        <ele>250.18400573731</ele>
        <time>2009-08-08T11:49:43Z</time>
      </trkpt>
      <trkpt lat="45.1235" lon="4.99313">
        <ele>249.86700439453</ele>
        <time>2009-08-08T11:49:54Z</time>
      </trkpt>
      <trkpt lat="45.12366" lon="4.994">
        <ele>249.26899719238</ele>
        <time>2009-08-08T11:50:05Z</time>
      </trkpt>
      <trkpt lat="45.12394" lon="4.99528">
        <ele>248.61199951172</ele>
        <time>2009-08-08T11:50:20Z</time>
      </trkpt>
      <trkpt lat="45.12416" lon="4.99577">
        <ele>248.55999755859</ele>
        <time>2009-08-08T11:50:26Z</time>
      </trkpt>
      <trkpt lat="45.12506" lon="4.99709">
        <ele>246.99000549316</ele>
        <time>2009-08-08T11:50:45Z</time>
      </trkpt>
      <trkpt lat="45.12584" lon="4.99817">
        <ele>246.37399291992</ele>
        <time>2009-08-08T11:51:01Z</time>
      </trkpt>
      <trkpt lat="45.12629" lon="4.99873">
        <ele>245.04499816894</ele>
        <time>2009-08-08T11:51:10Z</time>
      </trkpt>
      <trkpt lat="45.12662" lon="4.99969">
        <ele>245.38400268555</ele>
        <time>2009-08-08T11:51:21Z</time>
      </trkpt>
      <trkpt lat="45.12721" lon="5.0005">
        <ele>245.89599609375</ele>
        <time>2009-08-08T11:51:34Z</time>
      </trkpt>
      <trkpt lat="45.12775" lon="5.00076">
        <ele>247.76400756836</ele>
        <time>2009-08-08T11:51:44Z</time>
      </trkpt>
      <trkpt lat="45.12823" lon="5.00094">
        <ele>248.78900146484</ele>
        <time>2009-08-08T11:51:53Z</time>
      </trkpt>
      <trkpt lat="45.12828" lon="5.00096">
        <ele>249.30099487305</ele>
        <time>2009-08-08T11:51:54Z</time>
      </trkpt>
      <trkpt lat="45.12848" lon="5.00113">
        <ele>249.79699707031</ele>
        <time>2009-08-08T11:51:58Z</time>
      </trkpt>
      <trkpt lat="45.12896" lon="5.00196">
        <ele>252.31799316406</ele>
        <time>2009-08-08T11:52:12Z</time>
      </trkpt>
      <trkpt lat="45.12963" lon="5.00263">
        <ele>254.20899963379</ele>
        <time>2009-08-08T11:52:28Z</time>
      </trkpt>
      <trkpt lat="45.13056" lon="5.00302">
        <ele>254.05000305176</ele>
        <time>2009-08-08T11:52:45Z</time>
      </trkpt>
      <trkpt lat="45.13108" lon="5.00322">
        <ele>254.2559967041</ele>
        <time>2009-08-08T11:52:54Z</time>
      </trkpt>
      <trkpt lat="45.13167" lon="5.0035">
        <ele>255.0299987793</ele>
        <time>2009-08-08T11:53:05Z</time>
      </trkpt>
      <trkpt lat="45.13258" lon="5.00352">
        <ele>255.86999511719</ele>
        <time>2009-08-08T11:53:21Z</time>
      </trkpt>
      <trkpt lat="45.13356" lon="5.00361">
        <ele>258.11700439453</ele>
        <time>2009-08-08T11:53:38Z</time>
      </trkpt>
      <trkpt lat="45.13435" lon="5.00411">
        <ele>258.86801147461</ele>
        <time>2009-08-08T11:53:53Z</time>
      </trkpt>
      <trkpt lat="45.13558" lon="5.0048">
        <ele>260.01501464844</ele>
        <time>2009-08-08T11:54:15Z</time>
      </trkpt>
      <trkpt lat="45.13647" lon="5.00521">
        <ele>259.61801147461</ele>
        <time>2009-08-08T11:54:30Z</time>
      </trkpt>
      <trkpt lat="45.1375" lon="5.00636">
        <ele>261.56900024414</ele>
        <time>2009-08-08T11:54:51Z</time>
      </trkpt>
      <trkpt lat="45.13851" lon="5.00707">
        <ele>261.49301147461</ele>
        <time>2009-08-08T11:55:09Z</time>
      </trkpt>
      <trkpt lat="45.1399" lon="5.00775">
        <ele>262.3450012207</ele>
        <time>2009-08-08T11:55:32Z</time>
      </trkpt>
      <trkpt lat="45.14143" lon="5.00849">
        <ele>262.64700317383</ele>
        <time>2009-08-08T11:55:56Z</time>
      </trkpt>
      <trkpt lat="45.14254" lon="5.00904">
        <ele>263.35998535156</ele>
        <time>2009-08-08T11:56:14Z</time>
      </trkpt>
      <trkpt lat="45.14322" lon="5.00951">
        <ele>263.4049987793</ele>
        <time>2009-08-08T11:56:26Z</time>
      </trkpt>
      <trkpt lat="45.14442" lon="5.01087">
        <ele>263.97100830078</ele>
        <time>2009-08-08T11:56:49Z</time>
      </trkpt>
      <trkpt lat="45.14544" lon="5.0118">
        <ele>263.54299926758</ele>
        <time>2009-08-08T11:57:06Z</time>
      </trkpt>
      <trkpt lat="45.14654" lon="5.01282">
        <ele>262.73699951172</ele>
        <time>2009-08-08T11:57:24Z</time>
      </trkpt>
      <trkpt lat="45.14698" lon="5.0141">
        <ele>262.30499267578</ele>
        <time>2009-08-08T11:57:38Z</time>
      </trkpt>
      <trkpt lat="45.14739" lon="5.01507">
        <ele>264.72500610352</ele>
        <time>2009-08-08T11:57:50Z</time>
      </trkpt>
      <trkpt lat="45.1478" lon="5.01551">
        <ele>266.59399414062</ele>
        <time>2009-08-08T11:58:00Z</time>
      </trkpt>
      <trkpt lat="45.14811" lon="5.01582">
        <ele>268.76300048828</ele>
        <time>2009-08-08T11:58:08Z</time>
      </trkpt>
      <trkpt lat="45.14877" lon="5.01646">
        <ele>267.35101318359</ele>
        <time>2009-08-08T11:58:22Z</time>
      </trkpt>
      <trkpt lat="45.14941" lon="5.01736">
        <ele>266.60998535156</ele>
        <time>2009-08-08T11:58:36Z</time>
      </trkpt>
      <trkpt lat="45.1501" lon="5.01838">
        <ele>267.52301025391</ele>
        <time>2009-08-08T11:58:53Z</time>
      </trkpt>
      <trkpt lat="45.15071" lon="5.01926">
        <ele>267.79299926758</ele>
        <time>2009-08-08T11:59:07Z</time>
      </trkpt>
      <trkpt lat="45.15159" lon="5.02056">
        <ele>267.55599975586</ele>
        <time>2009-08-08T11:59:28Z</time>
      </trkpt>
      <trkpt lat="45.15166" lon="5.02079">
        <ele>267.94500732422</ele>
        <time>2009-08-08T11:59:31Z</time>
      </trkpt>
      <trkpt lat="45.15184" lon="5.02102">
        <ele>268.00500488281</ele>
        <time>2009-08-08T11:59:35Z</time>
      </trkpt>
      <trkpt lat="45.15255" lon="5.02211">
        <ele>267.89199829102</ele>
        <time>2009-08-08T11:59:52Z</time>
      </trkpt>
      <trkpt lat="45.1534" lon="5.02348">
        <ele>266.95999145508</ele>
        <time>2009-08-08T12:00:12Z</time>
      </trkpt>
      <trkpt lat="45.15443" lon="5.02464">
        <ele>269.17300415039</ele>
        <time>2009-08-08T12:00:33Z</time>
      </trkpt>
      <trkpt lat="45.15544" lon="5.02603">
        <ele>269.86700439453</ele>
        <time>2009-08-08T12:00:55Z</time>
      </trkpt>
      <trkpt lat="45.15636" lon="5.02715">
        <ele>272.06698608398</ele>
        <time>2009-08-08T12:01:14Z</time>
      </trkpt>
      <trkpt lat="45.15715" lon="5.02791">
        <ele>272.60900878906</ele>
        <time>2009-08-08T12:01:30Z</time>
      </trkpt>
      <trkpt lat="45.1582" lon="5.02893">
        <ele>273.40399169922</ele>
        <time>2009-08-08T12:01:51Z</time>
      </trkpt>
      <trkpt lat="45.15918" lon="5.03014">
        <ele>276.35101318359</ele>
        <time>2009-08-08T12:02:13Z</time>
      </trkpt>
      <trkpt lat="45.16015" lon="5.03154">
        <ele>278.88000488281</ele>
        <time>2009-08-08T12:02:36Z</time>
      </trkpt>
      <trkpt lat="45.16098" lon="5.03312">
        <ele>280.2080078125</ele>
        <time>2009-08-08T12:02:58Z</time>
      </trkpt>
      <trkpt lat="45.16166" lon="5.03459">
        <ele>278.97399902344</ele>
        <time>2009-08-08T12:03:17Z</time>
      </trkpt>
      <trkpt lat="45.16182" lon="5.03538">
        <ele>278.18798828125</ele>
        <time>2009-08-08T12:03:26Z</time>
      </trkpt>
      <trkpt lat="45.16193" lon="5.03704">
        <ele>278.48098754883</ele>
        <time>2009-08-08T12:03:45Z</time>
      </trkpt>
      <trkpt lat="45.16188" lon="5.03867">
        <ele>279.04800415039</ele>
        <time>2009-08-08T12:04:03Z</time>
      </trkpt>
      <trkpt lat="45.1617" lon="5.03921">
        <ele>279.91500854492</ele>
        <time>2009-08-08T12:04:10Z</time>
      </trkpt>
      <trkpt lat="45.1618" lon="5.03973">
        <ele>279.29901123047</ele>
        <time>2009-08-08T12:04:17Z</time>
      </trkpt>
      <trkpt lat="45.1618" lon="5.03983">
        <ele>278.93701171875</ele>
        <time>2009-08-08T12:04:18Z</time>
      </trkpt>
      <trkpt lat="45.16211" lon="5.04144">
        <ele>277.90399169922</ele>
        <time>2009-08-08T12:04:36Z</time>
      </trkpt>
      <trkpt lat="45.16231" lon="5.04283">
        <ele>278.08200073242</ele>
        <time>2009-08-08T12:04:51Z</time>
      </trkpt>
      <trkpt lat="45.16202" lon="5.04424">
        <ele>278.77600097656</ele>
        <time>2009-08-08T12:05:06Z</time>
      </trkpt>
      <trkpt lat="45.16163" lon="5.04585">
        <ele>279.79699707031</ele>
        <time>2009-08-08T12:05:23Z</time>
      </trkpt>
      <trkpt lat="45.16158" lon="5.04754">
        <ele>280.78298950195</ele>
        <time>2009-08-08T12:05:40Z</time>
      </trkpt>
      <trkpt lat="45.16164" lon="5.04904">
        <ele>281.76501464844</ele>
        <time>2009-08-08T12:05:55Z</time>
      </trkpt>
      <trkpt lat="45.16209" lon="5.05063">
        <ele>283.32000732422</ele>
        <time>2009-08-08T12:06:13Z</time>
      </trkpt>
      <trkpt lat="45.16272" lon="5.05229">
        <ele>285.56900024414</ele>
        <time>2009-08-08T12:06:33Z</time>
      </trkpt>
      <trkpt lat="45.16349" lon="5.05353">
        <ele>288.45999145508</ele>
        <time>2009-08-08T12:06:50Z</time>
      </trkpt>
      <trkpt lat="45.16444" lon="5.05526">
        <ele>292.20199584961</ele>
        <time>2009-08-08T12:07:14Z</time>
      </trkpt>
      <trkpt lat="45.16539" lon="5.05717">
        <ele>295.29098510742</ele>
        <time>2009-08-08T12:07:39Z</time>
      </trkpt>
      <trkpt lat="45.16607" lon="5.05896">
        <ele>299.83499145508</ele>
        <time>2009-08-08T12:08:01Z</time>
      </trkpt>
      <trkpt lat="45.16669" lon="5.06085">
        <ele>301.31100463867</ele>
        <time>2009-08-08T12:08:24Z</time>
      </trkpt>
      <trkpt lat="45.16706" lon="5.06267">
        <ele>298.28601074219</ele>
        <time>2009-08-08T12:08:43Z</time>
      </trkpt>
      <trkpt lat="45.1673" lon="5.06385">
        <ele>296.5299987793</ele>
        <time>2009-08-08T12:08:55Z</time>
      </trkpt>
      <trkpt lat="45.16748" lon="5.06469">
        <ele>296.28900146484</ele>
        <time>2009-08-08T12:09:03Z</time>
      </trkpt>
      <trkpt lat="45.16784" lon="5.06537">
        <ele>295.98199462891</ele>
        <time>2009-08-08T12:09:11Z</time>
      </trkpt>
      <trkpt lat="45.16878" lon="5.06637">
        <ele>295.29699707031</ele>
        <time>2009-08-08T12:09:27Z</time>
      </trkpt>
      <trkpt lat="45.16918" lon="5.06677">
        <ele>295.79901123047</ele>
        <time>2009-08-08T12:09:34Z</time>
      </trkpt>
      <trkpt lat="45.16941" lon="5.067">
        <ele>295.86499023438</ele>
        <time>2009-08-08T12:09:38Z</time>
      </trkpt>
      <trkpt lat="45.16993" lon="5.06754">
        <ele>296.48300170898</ele>
        <time>2009-08-08T12:09:47Z</time>
      </trkpt>
      <trkpt lat="45.17102" lon="5.06864">
        <ele>297.67498779297</ele>
        <time>2009-08-08T12:10:06Z</time>
      </trkpt>
      <trkpt lat="45.17193" lon="5.06946">
        <ele>298.9700012207</ele>
        <time>2009-08-08T12:10:21Z</time>
      </trkpt>
      <trkpt lat="45.17248" lon="5.0696">
        <ele>299.98699951172</ele>
        <time>2009-08-08T12:10:29Z</time>
      </trkpt>
      <trkpt lat="45.17316" lon="5.06995">
        <ele>301.35299682617</ele>
        <time>2009-08-08T12:10:42Z</time>
      </trkpt>
      <trkpt lat="45.17331" lon="5.07002">
        <ele>301.17599487305</ele>
        <time>2009-08-08T12:10:45Z</time>
      </trkpt>
      <trkpt lat="45.17388" lon="5.07017">
        <ele>301.72299194336</ele>
        <time>2009-08-08T12:10:55Z</time>
      </trkpt>
      <trkpt lat="45.17469" lon="5.07069">
        <ele>303.39599609375</ele>
        <time>2009-08-08T12:11:11Z</time>
      </trkpt>
      <trkpt lat="45.17539" lon="5.07169">
        <ele>303.89898681641</ele>
        <time>2009-08-08T12:11:27Z</time>
      </trkpt>
      <trkpt lat="45.17624" lon="5.07289">
        <ele>304.17498779297</ele>
        <time>2009-08-08T12:11:45Z</time>
      </trkpt>
      <trkpt lat="45.17706" lon="5.07408">
        <ele>305.13500976562</ele>
        <time>2009-08-08T12:12:03Z</time>
      </trkpt>
      <trkpt lat="45.17789" lon="5.07529">
        <ele>306.0539855957</ele>
        <time>2009-08-08T12:12:21Z</time>
      </trkpt>
      <trkpt lat="45.17887" lon="5.07671">
        <ele>307.59799194336</ele>
        <time>2009-08-08T12:12:42Z</time>
      </trkpt>
      <trkpt lat="45.17968" lon="5.07786">
        <ele>308.92300415039</ele>
        <time>2009-08-08T12:12:59Z</time>
      </trkpt>
      <trkpt lat="45.18061" lon="5.07916">
        <ele>310.79800415039</ele>
        <time>2009-08-08T12:13:19Z</time>
      </trkpt>
      <trkpt lat="45.18144" lon="5.08034">
        <ele>311.69400024414</ele>
        <time>2009-08-08T12:13:37Z</time>
      </trkpt>
      <trkpt lat="45.18236" lon="5.08162">
        <ele>314.41299438477</ele>
        <time>2009-08-08T12:13:58Z</time>
      </trkpt>
      <trkpt lat="45.18313" lon="5.0827">
        <ele>317.03698730469</ele>
        <time>2009-08-08T12:14:17Z</time>
      </trkpt>
      <trkpt lat="45.18391" lon="5.08379">
        <ele>319.13900756836</ele>
        <time>2009-08-08T12:14:36Z</time>
      </trkpt>
      <trkpt lat="45.18482" lon="5.08507">
        <ele>321.15899658203</ele>
        <time>2009-08-08T12:14:58Z</time>
      </trkpt>
      <trkpt lat="45.18571" lon="5.0863">
        <ele>323.84399414062</ele>
        <time>2009-08-08T12:15:18Z</time>
      </trkpt>
      <trkpt lat="45.186" lon="5.08673">
        <ele>323.38101196289</ele>
        <time>2009-08-08T12:15:24Z</time>
      </trkpt>
      <trkpt lat="45.18627" lon="5.08722">
        <ele>323.84698486328</ele>
        <time>2009-08-08T12:15:30Z</time>
      </trkpt>
      <trkpt lat="45.18673" lon="5.08862">
        <ele>325.53298950195</ele>
        <time>2009-08-08T12:15:45Z</time>
      </trkpt>
      <trkpt lat="45.18726" lon="5.09024">
        <ele>328.17999267578</ele>
        <time>2009-08-08T12:16:04Z</time>
      </trkpt>
      <trkpt lat="45.18782" lon="5.09194">
        <ele>330.22698974609</ele>
        <time>2009-08-08T12:16:23Z</time>
      </trkpt>
      <trkpt lat="45.18835" lon="5.09352">
        <ele>331.56799316406</ele>
        <time>2009-08-08T12:16:42Z</time>
      </trkpt>
      <trkpt lat="45.18884" lon="5.09497">
        <ele>332.91000366211</ele>
        <time>2009-08-08T12:16:58Z</time>
      </trkpt>
      <trkpt lat="45.1893" lon="5.09638">
        <ele>332.72198486328</ele>
        <time>2009-08-08T12:17:13Z</time>
      </trkpt>
      <trkpt lat="45.18979" lon="5.09798">
        <ele>334.35598754883</ele>
        <time>2009-08-08T12:17:32Z</time>
      </trkpt>
      <trkpt lat="45.19023" lon="5.09956">
        <ele>336.37200927734</ele>
        <time>2009-08-08T12:17:52Z</time>
      </trkpt>
      <trkpt lat="45.19072" lon="5.1013">
        <ele>337.93798828125</ele>
        <time>2009-08-08T12:18:14Z</time>
      </trkpt>
      <trkpt lat="45.19098" lon="5.10222">
        <ele>339.30499267578</ele>
        <time>2009-08-08T12:18:27Z</time>
      </trkpt>
      <trkpt lat="45.19112" lon="5.10274">
        <ele>339.63198852539</ele>
        <time>2009-08-08T12:18:34Z</time>
      </trkpt>
      <trkpt lat="45.19122" lon="5.1031">
        <ele>339.79699707031</ele>
        <time>2009-08-08T12:18:39Z</time>
      </trkpt>
      <trkpt lat="45.19126" lon="5.10325">
        <ele>339.84600830078</ele>
        <time>2009-08-08T12:18:41Z</time>
      </trkpt>
      <trkpt lat="45.19128" lon="5.10332">
        <ele>339.75201416016</ele>
        <time>2009-08-08T12:18:42Z</time>
      </trkpt>
      <trkpt lat="45.1914" lon="5.10376">
        <ele>340.06600952148</ele>
        <time>2009-08-08T12:18:48Z</time>
      </trkpt>
      <trkpt lat="45.19183" lon="5.10531">
        <ele>341.57800292969</ele>
        <time>2009-08-08T12:19:09Z</time>
      </trkpt>
      <trkpt lat="45.19228" lon="5.10688">
        <ele>343.45599365234</ele>
        <time>2009-08-08T12:19:30Z</time>
      </trkpt>
      <trkpt lat="45.19263" lon="5.10819">
        <ele>345.96499633789</ele>
        <time>2009-08-08T12:19:47Z</time>
      </trkpt>
      <trkpt lat="45.19302" lon="5.10958">
        <ele>347.76599121094</ele>
        <time>2009-08-08T12:20:06Z</time>
      </trkpt>
      <trkpt lat="45.19337" lon="5.11081">
        <ele>350.95999145508</ele>
        <time>2009-08-08T12:20:22Z</time>
      </trkpt>
      <trkpt lat="45.19384" lon="5.1124">
        <ele>354.91598510742</ele>
        <time>2009-08-08T12:20:45Z</time>
      </trkpt>
      <trkpt lat="45.19421" lon="5.11363">
        <ele>357.26400756836</ele>
        <time>2009-08-08T12:21:03Z</time>
      </trkpt>
      <trkpt lat="45.1947" lon="5.11531">
        <ele>359.08099365234</ele>
        <time>2009-08-08T12:21:25Z</time>
      </trkpt>
      <trkpt lat="45.19514" lon="5.11664">
        <ele>360.73901367188</ele>
        <time>2009-08-08T12:21:43Z</time>
      </trkpt>
      <trkpt lat="45.19567" lon="5.11721">
        <ele>361.8630065918</ele>
        <time>2009-08-08T12:21:55Z</time>
      </trkpt>
      <trkpt lat="45.19572" lon="5.11724">
        <ele>362.05499267578</ele>
        <time>2009-08-08T12:21:56Z</time>
      </trkpt>
      <trkpt lat="45.19588" lon="5.11753">
        <ele>361.8030090332</ele>
        <time>2009-08-08T12:22:01Z</time>
      </trkpt>
      <trkpt lat="45.19597" lon="5.11853">
        <ele>359.10800170898</ele>
        <time>2009-08-08T12:22:12Z</time>
      </trkpt>
      <trkpt lat="45.19601" lon="5.11908">
        <ele>356.91400146484</ele>
        <time>2009-08-08T12:22:17Z</time>
      </trkpt>
      <trkpt lat="45.19603" lon="5.11952">
        <ele>356.88900756836</ele>
        <time>2009-08-08T12:22:21Z</time>
      </trkpt>
      <trkpt lat="45.196" lon="5.11982">
        <ele>356.70901489258</ele>
        <time>2009-08-08T12:22:24Z</time>
      </trkpt>
      <trkpt lat="45.19588" lon="5.12007">
        <ele>356.83700561523</ele>
        <time>2009-08-08T12:22:27Z</time>
      </trkpt>
      <trkpt lat="45.1958" lon="5.12023">
        <ele>356.64001464844</ele>
        <time>2009-08-08T12:22:29Z</time>
      </trkpt>
      <trkpt lat="45.19576" lon="5.12073">
        <ele>356.37799072266</ele>
        <time>2009-08-08T12:22:34Z</time>
      </trkpt>
      <trkpt lat="45.19616" lon="5.12243">
        <ele>357.39401245117</ele>
        <time>2009-08-08T12:22:53Z</time>
      </trkpt>
      <trkpt lat="45.19653" lon="5.12393">
        <ele>358.5419921875</ele>
        <time>2009-08-08T12:23:12Z</time>
      </trkpt>
      <trkpt lat="45.19659" lon="5.1242">
        <ele>358.43301391602</ele>
        <time>2009-08-08T12:23:16Z</time>
      </trkpt>
      <trkpt lat="45.19675" lon="5.12493">
        <ele>359.78500366211</ele>
        <time>2009-08-08T12:23:26Z</time>
      </trkpt>
      <trkpt lat="45.19679" lon="5.12516">
        <ele>360.82598876953</ele>
        <time>2009-08-08T12:23:29Z</time>
      </trkpt>
      <trkpt lat="45.19654" lon="5.12578">
        <ele>360.45401000977</ele>
        <time>2009-08-08T12:23:38Z</time>
      </trkpt>
      <trkpt lat="45.19649" lon="5.12581">
        <ele>360.52801513672</ele>
        <time>2009-08-08T12:23:39Z</time>
      </trkpt>
      <trkpt lat="45.19554" lon="5.12638">
        <ele>362.4289855957</ele>
        <time>2009-08-08T12:23:55Z</time>
      </trkpt>
      <trkpt lat="45.19544" lon="5.12646">
        <ele>363.12701416016</ele>
        <time>2009-08-08T12:23:57Z</time>
      </trkpt>
      <trkpt lat="45.19529" lon="5.12672">
        <ele>365.09799194336</ele>
        <time>2009-08-08T12:24:02Z</time>
      </trkpt>
      <trkpt lat="45.19521" lon="5.1273">
        <ele>368.48300170898</ele>
        <time>2009-08-08T12:24:12Z</time>
      </trkpt>
      <trkpt lat="45.19518" lon="5.12772">
        <ele>370.45498657227</ele>
        <time>2009-08-08T12:24:19Z</time>
      </trkpt>
      <trkpt lat="45.19518" lon="5.12825">
        <ele>371.77801513672</ele>
        <time>2009-08-08T12:24:27Z</time>
      </trkpt>
      <trkpt lat="45.1952" lon="5.12941">
        <ele>373.20098876953</ele>
        <time>2009-08-08T12:24:45Z</time>
      </trkpt>
      <trkpt lat="45.19508" lon="5.13085">
        <ele>376.53799438477</ele>
        <time>2009-08-08T12:25:07Z</time>
      </trkpt>
      <trkpt lat="45.19503" lon="5.13132">
        <ele>378.03500366211</ele>
        <time>2009-08-08T12:25:14Z</time>
      </trkpt>
      <trkpt lat="45.19494" lon="5.13182">
        <ele>378.90200805664</ele>
        <time>2009-08-08T12:25:22Z</time>
      </trkpt>
      <trkpt lat="45.19477" lon="5.13296">
        <ele>381.12799072266</ele>
        <time>2009-08-08T12:25:38Z</time>
      </trkpt>
      <trkpt lat="45.19473" lon="5.13447">
        <ele>381.71099853516</ele>
        <time>2009-08-08T12:25:54Z</time>
      </trkpt>
      <trkpt lat="45.19475" lon="5.1356">
        <ele>383.03900146484</ele>
        <time>2009-08-08T12:26:06Z</time>
      </trkpt>
      <trkpt lat="45.19477" lon="5.13643">
        <ele>385.86099243164</ele>
        <time>2009-08-08T12:26:17Z</time>
      </trkpt>
      <trkpt lat="45.19478" lon="5.13696">
        <ele>388.54998779297</ele>
        <time>2009-08-08T12:26:26Z</time>
      </trkpt>
      <trkpt lat="45.19479" lon="5.13795">
        <ele>392.32800292969</ele>
        <time>2009-08-08T12:26:45Z</time>
      </trkpt>
      <trkpt lat="45.19484" lon="5.13874">
        <ele>395.22799682617</ele>
        <time>2009-08-08T12:27:01Z</time>
      </trkpt>
      <trkpt lat="45.19496" lon="5.13958">
        <ele>398.13598632812</ele>
        <time>2009-08-08T12:27:17Z</time>
      </trkpt>
      <trkpt lat="45.19506" lon="5.14037">
        <ele>399.36099243164</ele>
        <time>2009-08-08T12:27:31Z</time>
      </trkpt>
      <trkpt lat="45.1952" lon="5.14135">
        <ele>402.23001098633</ele>
        <time>2009-08-08T12:27:49Z</time>
      </trkpt>
      <trkpt lat="45.19532" lon="5.14182">
        <ele>403.79901123047</ele>
        <time>2009-08-08T12:27:59Z</time>
      </trkpt>
      <trkpt lat="45.19533" lon="5.14237">
        <ele>403.97900390625</ele>
        <time>2009-08-08T12:28:11Z</time>
      </trkpt>
      <trkpt lat="45.19523" lon="5.14267">
        <ele>403.07598876953</ele>
        <time>2009-08-08T12:28:17Z</time>
      </trkpt>
      <trkpt lat="45.19518" lon="5.14278">
        <ele>402.50698852539</ele>
        <time>2009-08-08T12:28:19Z</time>
      </trkpt>
      <trkpt lat="45.19512" lon="5.1429">
        <ele>402.53698730469</ele>
        <time>2009-08-08T12:28:21Z</time>
      </trkpt>
      <trkpt lat="45.19508" lon="5.14301">
        <ele>402.0710144043</ele>
        <time>2009-08-08T12:28:23Z</time>
      </trkpt>
      <trkpt lat="45.19507" lon="5.14329">
        <ele>402.39199829102</ele>
        <time>2009-08-08T12:28:28Z</time>
      </trkpt>
      <trkpt lat="45.19517" lon="5.14357">
        <ele>404.18499755859</ele>
        <time>2009-08-08T12:28:37Z</time>
      </trkpt>
      <trkpt lat="45.19519" lon="5.14359">
        <ele>404.00900268555</ele>
        <time>2009-08-08T12:28:38Z</time>
      </trkpt>
      <trkpt lat="45.19536" lon="5.14384">
        <ele>406.32598876953</ele>
        <time>2009-08-08T12:28:48Z</time>
      </trkpt>
      <trkpt lat="45.19567" lon="5.14415">
        <ele>408.95199584961</ele>
        <time>2009-08-08T12:29:03Z</time>
      </trkpt>
      <trkpt lat="45.1957" lon="5.14418">
        <ele>409.26998901367</ele>
        <time>2009-08-08T12:29:57Z</time>
      </trkpt>
      <trkpt lat="45.19582" lon="5.14434">
        <ele>410.14199829102</ele>
        <time>2009-08-08T12:30:05Z</time>
      </trkpt>
      <trkpt lat="45.19592" lon="5.14469">
        <ele>411.61801147461</ele>
        <time>2009-08-08T12:30:11Z</time>
      </trkpt>
      <trkpt lat="45.19593" lon="5.14498">
        <ele>412.64801025391</ele>
        <time>2009-08-08T12:30:16Z</time>
      </trkpt>
      <trkpt lat="45.19593" lon="5.14508">
        <ele>412.55499267578</ele>
        <time>2009-08-08T12:30:18Z</time>
      </trkpt>
      <trkpt lat="45.19593" lon="5.14574">
        <ele>412.63400268555</ele>
        <time>2009-08-08T12:30:26Z</time>
      </trkpt>
      <trkpt lat="45.19595" lon="5.14608">
        <ele>411.35900878906</ele>
        <time>2009-08-08T12:30:30Z</time>
      </trkpt>
      <trkpt lat="45.19601" lon="5.14632">
        <ele>411.34600830078</ele>
        <time>2009-08-08T12:30:33Z</time>
      </trkpt>
      <trkpt lat="45.19624" lon="5.14668">
        <ele>411.10400390625</ele>
        <time>2009-08-08T12:30:38Z</time>
      </trkpt>
      <trkpt lat="45.19672" lon="5.1471">
        <ele>412.95700073242</ele>
        <time>2009-08-08T12:30:46Z</time>
      </trkpt>
      <trkpt lat="45.19693" lon="5.14727">
        <ele>413.69900512695</ele>
        <time>2009-08-08T12:30:50Z</time>
      </trkpt>
      <trkpt lat="45.19706" lon="5.14744">
        <ele>413.95001220703</ele>
        <time>2009-08-08T12:30:53Z</time>
      </trkpt>
      <trkpt lat="45.19714" lon="5.14763">
        <ele>414.2619934082</ele>
        <time>2009-08-08T12:30:56Z</time>
      </trkpt>
      <trkpt lat="45.19725" lon="5.14805">
        <ele>415.00900268555</ele>
        <time>2009-08-08T12:31:02Z</time>
      </trkpt>
      <trkpt lat="45.19727" lon="5.14812">
        <ele>415.41299438477</ele>
        <time>2009-08-08T12:31:03Z</time>
      </trkpt>
      <trkpt lat="45.19729" lon="5.14886">
        <ele>415.59600830078</ele>
        <time>2009-08-08T12:31:13Z</time>
      </trkpt>
      <trkpt lat="45.19734" lon="5.14998">
        <ele>416.52398681641</ele>
        <time>2009-08-08T12:31:27Z</time>
      </trkpt>
      <trkpt lat="45.19751" lon="5.15127">
        <ele>418.90399169922</ele>
        <time>2009-08-08T12:31:42Z</time>
      </trkpt>
      <trkpt lat="45.19794" lon="5.15277">
        <ele>420.0830078125</ele>
        <time>2009-08-08T12:31:59Z</time>
      </trkpt>
      <trkpt lat="45.19841" lon="5.15429">
        <ele>420.93301391602</ele>
        <time>2009-08-08T12:32:17Z</time>
      </trkpt>
      <trkpt lat="45.19883" lon="5.1557">
        <ele>422.50698852539</ele>
        <time>2009-08-08T12:32:34Z</time>
      </trkpt>
      <trkpt lat="45.19905" lon="5.15738">
        <ele>422.98400878906</ele>
        <time>2009-08-08T12:32:52Z</time>
      </trkpt>
      <trkpt lat="45.19904" lon="5.15851">
        <ele>420.92599487305</ele>
        <time>2009-08-08T12:33:03Z</time>
      </trkpt>
      <trkpt lat="45.19893" lon="5.16016">
        <ele>420.01599121094</ele>
        <time>2009-08-08T12:33:18Z</time>
      </trkpt>
      <trkpt lat="45.19835" lon="5.16196">
        <ele>418.03201293945</ele>
        <time>2009-08-08T12:33:34Z</time>
      </trkpt>
      <trkpt lat="45.19805" lon="5.16347">
        <ele>418.2200012207</ele>
        <time>2009-08-08T12:33:47Z</time>
      </trkpt>
      <trkpt lat="45.19797" lon="5.16437">
        <ele>420.94000244141</ele>
        <time>2009-08-08T12:33:56Z</time>
      </trkpt>
      <trkpt lat="45.19782" lon="5.16545">
        <ele>423.96899414062</ele>
        <time>2009-08-08T12:34:08Z</time>
      </trkpt>
      <trkpt lat="45.19785" lon="5.16576">
        <ele>424.87899780273</ele>
        <time>2009-08-08T12:34:12Z</time>
      </trkpt>
      <trkpt lat="45.1981" lon="5.1666">
        <ele>428.49200439453</ele>
        <time>2009-08-08T12:34:24Z</time>
      </trkpt>
      <trkpt lat="45.19856" lon="5.16785">
        <ele>430.59201049805</ele>
        <time>2009-08-08T12:34:41Z</time>
      </trkpt>
      <trkpt lat="45.19889" lon="5.169">
        <ele>432.08200073242</ele>
        <time>2009-08-08T12:34:55Z</time>
      </trkpt>
      <trkpt lat="45.1988" lon="5.17045">
        <ele>434.1130065918</ele>
        <time>2009-08-08T12:35:11Z</time>
      </trkpt>
      <trkpt lat="45.19873" lon="5.17172">
        <ele>435.52499389648</ele>
        <time>2009-08-08T12:35:24Z</time>
      </trkpt>
      <trkpt lat="45.19869" lon="5.17224">
        <ele>436.23001098633</ele>
        <time>2009-08-08T12:35:29Z</time>
      </trkpt>
      <trkpt lat="45.19849" lon="5.17281">
        <ele>437.03399658203</ele>
        <time>2009-08-08T12:35:35Z</time>
      </trkpt>
      <trkpt lat="45.19824" lon="5.17336">
        <ele>437.75500488281</ele>
        <time>2009-08-08T12:35:41Z</time>
      </trkpt>
      <trkpt lat="45.19772" lon="5.17473">
        <ele>439.78698730469</ele>
        <time>2009-08-08T12:35:55Z</time>
      </trkpt>
      <trkpt lat="45.19766" lon="5.17593">
        <ele>441.72500610352</ele>
        <time>2009-08-08T12:36:06Z</time>
      </trkpt>
      <trkpt lat="45.19761" lon="5.17632">
        <ele>442.55499267578</ele>
        <time>2009-08-08T12:36:10Z</time>
      </trkpt>
      <trkpt lat="45.19759" lon="5.17658">
        <ele>442.71798706055</ele>
        <time>2009-08-08T12:36:13Z</time>
      </trkpt>
      <trkpt lat="45.19727" lon="5.17796">
        <ele>443.79901123047</ele>
        <time>2009-08-08T12:36:27Z</time>
      </trkpt>
      <trkpt lat="45.19712" lon="5.17843">
        <ele>445.35000610352</ele>
        <time>2009-08-08T12:36:32Z</time>
      </trkpt>
      <trkpt lat="45.19714" lon="5.179">
        <ele>446.06500244141</ele>
        <time>2009-08-08T12:36:38Z</time>
      </trkpt>
      <trkpt lat="45.19721" lon="5.17917">
        <ele>446.3450012207</ele>
        <time>2009-08-08T12:36:40Z</time>
      </trkpt>
      <trkpt lat="45.19729" lon="5.17954">
        <ele>447.44000244141</ele>
        <time>2009-08-08T12:36:44Z</time>
      </trkpt>
      <trkpt lat="45.1973" lon="5.17982">
        <ele>448.08499145508</ele>
        <time>2009-08-08T12:36:47Z</time>
      </trkpt>
      <trkpt lat="45.1973" lon="5.18018">
        <ele>449.11401367188</ele>
        <time>2009-08-08T12:36:51Z</time>
      </trkpt>
      <trkpt lat="45.19725" lon="5.18142">
        <ele>452.55599975586</ele>
        <time>2009-08-08T12:37:04Z</time>
      </trkpt>
      <trkpt lat="45.19714" lon="5.18239">
        <ele>454.18499755859</ele>
        <time>2009-08-08T12:37:14Z</time>
      </trkpt>
      <trkpt lat="45.19693" lon="5.18342">
        <ele>456.53601074219</ele>
        <time>2009-08-08T12:37:26Z</time>
      </trkpt>
      <trkpt lat="45.19659" lon="5.18453">
        <ele>458.71099853516</ele>
        <time>2009-08-08T12:37:41Z</time>
      </trkpt>
      <trkpt lat="45.19655" lon="5.18579">
        <ele>461.21099853516</ele>
        <time>2009-08-08T12:37:57Z</time>
      </trkpt>
      <trkpt lat="45.19657" lon="5.18716">
        <ele>464.29501342773</ele>
        <time>2009-08-08T12:38:15Z</time>
      </trkpt>
      <trkpt lat="45.19661" lon="5.18812">
        <ele>466.75</ele>
        <time>2009-08-08T12:38:29Z</time>
      </trkpt>
      <trkpt lat="45.19647" lon="5.18867">
        <ele>467.95999145508</ele>
        <time>2009-08-08T12:38:38Z</time>
      </trkpt>
      <trkpt lat="45.19645" lon="5.18879">
        <ele>468.39199829102</ele>
        <time>2009-08-08T12:38:40Z</time>
      </trkpt>
      <trkpt lat="45.19642" lon="5.1891">
        <ele>469.10699462891</ele>
        <time>2009-08-08T12:38:45Z</time>
      </trkpt>
      <trkpt lat="45.19643" lon="5.18943">
        <ele>469.60400390625</ele>
        <time>2009-08-08T12:38:50Z</time>
      </trkpt>
      <trkpt lat="45.19642" lon="5.18978">
        <ele>470.26998901367</ele>
        <time>2009-08-08T12:38:55Z</time>
      </trkpt>
      <trkpt lat="45.1963" lon="5.19093">
        <ele>472.93200683594</ele>
        <time>2009-08-08T12:39:12Z</time>
      </trkpt>
      <trkpt lat="45.19617" lon="5.19221">
        <ele>476.88198852539</ele>
        <time>2009-08-08T12:39:32Z</time>
      </trkpt>
      <trkpt lat="45.19611" lon="5.19344">
        <ele>479.48098754883</ele>
        <time>2009-08-08T12:39:51Z</time>
      </trkpt>
      <trkpt lat="45.19609" lon="5.19476">
        <ele>480.6130065918</ele>
        <time>2009-08-08T12:40:08Z</time>
      </trkpt>
      <trkpt lat="45.19608" lon="5.19583">
        <ele>483.03500366211</ele>
        <time>2009-08-08T12:40:17Z</time>
      </trkpt>
      <trkpt lat="45.19609" lon="5.19663">
        <ele>485.89599609375</ele>
        <time>2009-08-08T12:40:23Z</time>
      </trkpt>
      <trkpt lat="45.19609" lon="5.19711">
        <ele>485.84298706055</ele>
        <time>2009-08-08T12:40:28Z</time>
      </trkpt>
      <trkpt lat="45.19615" lon="5.19778">
        <ele>487.00900268555</ele>
        <time>2009-08-08T12:40:40Z</time>
      </trkpt>
      <trkpt lat="45.19627" lon="5.19853">
        <ele>487.24499511719</ele>
        <time>2009-08-08T12:40:56Z</time>
      </trkpt>
      <trkpt lat="45.19631" lon="5.19909">
        <ele>487.97399902344</ele>
        <time>2009-08-08T12:41:08Z</time>
      </trkpt>
      <trkpt lat="45.1963" lon="5.19969">
        <ele>487.875</ele>
        <time>2009-08-08T12:41:21Z</time>
      </trkpt>
      <trkpt lat="45.19629" lon="5.19972">
        <ele>487.94299316406</ele>
        <time>2009-08-08T12:41:22Z</time>
      </trkpt>
      <trkpt lat="45.19629" lon="5.19979">
        <ele>488.24499511719</ele>
        <time>2009-08-08T12:41:26Z</time>
      </trkpt>
      <trkpt lat="45.1963" lon="5.19987">
        <ele>488.98400878906</ele>
        <time>2009-08-08T12:44:16Z</time>
      </trkpt>
      <trkpt lat="45.1963" lon="5.1999">
        <ele>488.81500244141</ele>
        <time>2009-08-08T12:44:17Z</time>
      </trkpt>
      <trkpt lat="45.1963" lon="5.20036">
        <ele>487.49700927734</ele>
        <time>2009-08-08T12:44:29Z</time>
      </trkpt>
      <trkpt lat="45.19632" lon="5.20104">
        <ele>485.43798828125</ele>
        <time>2009-08-08T12:44:37Z</time>
      </trkpt>
      <trkpt lat="45.19646" lon="5.20143">
        <ele>484.03900146484</ele>
        <time>2009-08-08T12:44:41Z</time>
      </trkpt>
      <trkpt lat="45.19666" lon="5.20169">
        <ele>482.51300048828</ele>
        <time>2009-08-08T12:44:44Z</time>
      </trkpt>
      <trkpt lat="45.19674" lon="5.20195">
        <ele>481.64599609375</ele>
        <time>2009-08-08T12:44:46Z</time>
      </trkpt>
      <trkpt lat="45.19645" lon="5.20223">
        <ele>478.56201171875</ele>
        <time>2009-08-08T12:44:50Z</time>
      </trkpt>
      <trkpt lat="45.19635" lon="5.20224">
        <ele>478.31298828125</ele>
        <time>2009-08-08T12:44:51Z</time>
      </trkpt>
      <trkpt lat="45.19614" lon="5.2023">
        <ele>477.43399047852</ele>
        <time>2009-08-08T12:44:53Z</time>
      </trkpt>
      <trkpt lat="45.19597" lon="5.20245">
        <ele>476.02301025391</ele>
        <time>2009-08-08T12:44:55Z</time>
      </trkpt>
      <trkpt lat="45.19584" lon="5.20269">
        <ele>474.67001342773</ele>
        <time>2009-08-08T12:44:57Z</time>
      </trkpt>
      <trkpt lat="45.19564" lon="5.2031">
        <ele>471.84799194336</ele>
        <time>2009-08-08T12:45:00Z</time>
      </trkpt>
      <trkpt lat="45.19552" lon="5.20337">
        <ele>470.24600219727</ele>
        <time>2009-08-08T12:45:02Z</time>
      </trkpt>
      <trkpt lat="45.19537" lon="5.2042">
        <ele>466.21499633789</ele>
        <time>2009-08-08T12:45:07Z</time>
      </trkpt>
      <trkpt lat="45.19535" lon="5.20493">
        <ele>463.7380065918</ele>
        <time>2009-08-08T12:45:11Z</time>
      </trkpt>
      <trkpt lat="45.19534" lon="5.20511">
        <ele>462.78900146484</ele>
        <time>2009-08-08T12:45:12Z</time>
      </trkpt>
      <trkpt lat="45.19473" lon="5.2061">
        <ele>455.9700012207</ele>
        <time>2009-08-08T12:45:19Z</time>
      </trkpt>
      <trkpt lat="45.19444" lon="5.20626">
        <ele>455.04299926758</ele>
        <time>2009-08-08T12:45:21Z</time>
      </trkpt>
      <trkpt lat="45.19429" lon="5.20632">
        <ele>454.21798706055</ele>
        <time>2009-08-08T12:45:22Z</time>
      </trkpt>
      <trkpt lat="45.19399" lon="5.2064">
        <ele>453.58700561523</ele>
        <time>2009-08-08T12:45:24Z</time>
      </trkpt>
      <trkpt lat="45.19272" lon="5.20676">
        <ele>449.17999267578</ele>
        <time>2009-08-08T12:45:33Z</time>
      </trkpt>
      <trkpt lat="45.19142" lon="5.20794">
        <ele>441.70001220703</ele>
        <time>2009-08-08T12:45:44Z</time>
      </trkpt>
      <trkpt lat="45.1912" lon="5.20819">
        <ele>441.49700927734</ele>
        <time>2009-08-08T12:45:46Z</time>
      </trkpt>
      <trkpt lat="45.19086" lon="5.20881">
        <ele>439.65399169922</ele>
        <time>2009-08-08T12:45:50Z</time>
      </trkpt>
      <trkpt lat="45.19051" lon="5.2098">
        <ele>436.15798950195</ele>
        <time>2009-08-08T12:45:56Z</time>
      </trkpt>
      <trkpt lat="45.19026" lon="5.21018">
        <ele>434.61999511719</ele>
        <time>2009-08-08T12:45:59Z</time>
      </trkpt>
      <trkpt lat="45.19016" lon="5.21028">
        <ele>433.75799560547</ele>
        <time>2009-08-08T12:46:00Z</time>
      </trkpt>
      <trkpt lat="45.18948" lon="5.2109">
        <ele>428.72601318359</ele>
        <time>2009-08-08T12:46:06Z</time>
      </trkpt>
      <trkpt lat="45.1891" lon="5.21106">
        <ele>426.76998901367</ele>
        <time>2009-08-08T12:46:09Z</time>
      </trkpt>
      <trkpt lat="45.18869" lon="5.2112">
        <ele>424.75399780273</ele>
        <time>2009-08-08T12:46:12Z</time>
      </trkpt>
      <trkpt lat="45.18731" lon="5.21158">
        <ele>417.8330078125</ele>
        <time>2009-08-08T12:46:22Z</time>
      </trkpt>
      <trkpt lat="45.18671" lon="5.2119">
        <ele>411.43899536133</ele>
        <time>2009-08-08T12:46:26Z</time>
      </trkpt>
      <trkpt lat="45.18597" lon="5.21237">
        <ele>408.00900268555</ele>
        <time>2009-08-08T12:46:31Z</time>
      </trkpt>
      <trkpt lat="45.18506" lon="5.2129">
        <ele>401.99301147461</ele>
        <time>2009-08-08T12:46:37Z</time>
      </trkpt>
      <trkpt lat="45.18372" lon="5.21372">
        <ele>390.96701049805</ele>
        <time>2009-08-08T12:46:46Z</time>
      </trkpt>
      <trkpt lat="45.18235" lon="5.21432">
        <ele>383.53399658203</ele>
        <time>2009-08-08T12:46:55Z</time>
      </trkpt>
      <trkpt lat="45.18168" lon="5.21431">
        <ele>382.88101196289</ele>
        <time>2009-08-08T12:46:59Z</time>
      </trkpt>
      <trkpt lat="45.18088" lon="5.21423">
        <ele>374.53201293945</ele>
        <time>2009-08-08T12:47:04Z</time>
      </trkpt>
      <trkpt lat="45.18041" lon="5.2143">
        <ele>373.78601074219</ele>
        <time>2009-08-08T12:47:07Z</time>
      </trkpt>
      <trkpt lat="45.17966" lon="5.21398">
        <ele>368.00601196289</ele>
        <time>2009-08-08T12:47:12Z</time>
      </trkpt>
      <trkpt lat="45.17916" lon="5.21354">
        <ele>366.4049987793</ele>
        <time>2009-08-08T12:47:16Z</time>
      </trkpt>
      <trkpt lat="45.17863" lon="5.21348">
        <ele>365.68499755859</ele>
        <time>2009-08-08T12:47:20Z</time>
      </trkpt>
      <trkpt lat="45.17788" lon="5.21366">
        <ele>362.12399291992</ele>
        <time>2009-08-08T12:47:26Z</time>
      </trkpt>
      <trkpt lat="45.17776" lon="5.21367">
        <ele>362.34298706055</ele>
        <time>2009-08-08T12:47:27Z</time>
      </trkpt>
      <trkpt lat="45.17741" lon="5.21393">
        <ele>362.04098510742</ele>
        <time>2009-08-08T12:47:31Z</time>
      </trkpt>
      <trkpt lat="45.177" lon="5.21445">
        <ele>361.72299194336</ele>
        <time>2009-08-08T12:47:37Z</time>
      </trkpt>
      <trkpt lat="45.17667" lon="5.21464">
        <ele>360.02600097656</ele>
        <time>2009-08-08T12:47:41Z</time>
      </trkpt>
      <trkpt lat="45.17649" lon="5.21459">
        <ele>358.48498535156</ele>
        <time>2009-08-08T12:47:43Z</time>
      </trkpt>
      <trkpt lat="45.17612" lon="5.21444">
        <ele>357.77899169922</ele>
        <time>2009-08-08T12:47:47Z</time>
      </trkpt>
      <trkpt lat="45.17576" lon="5.21455">
        <ele>356.23999023438</ele>
        <time>2009-08-08T12:47:51Z</time>
      </trkpt>
      <trkpt lat="45.17501" lon="5.21516">
        <ele>356.89898681641</ele>
        <time>2009-08-08T12:48:02Z</time>
      </trkpt>
      <trkpt lat="45.17488" lon="5.21537">
        <ele>357.34399414062</ele>
        <time>2009-08-08T12:48:05Z</time>
      </trkpt>
      <trkpt lat="45.1748" lon="5.21554">
        <ele>357.88400268555</ele>
        <time>2009-08-08T12:48:07Z</time>
      </trkpt>
      <trkpt lat="45.17453" lon="5.21628">
        <ele>358.28601074219</ele>
        <time>2009-08-08T12:48:17Z</time>
      </trkpt>
      <trkpt lat="45.17406" lon="5.21725">
        <ele>355.92401123047</ele>
        <time>2009-08-08T12:48:31Z</time>
      </trkpt>
      <trkpt lat="45.17345" lon="5.21831">
        <ele>354.45098876953</ele>
        <time>2009-08-08T12:48:44Z</time>
      </trkpt>
      <trkpt lat="45.17335" lon="5.21857">
        <ele>354.09799194336</ele>
        <time>2009-08-08T12:48:47Z</time>
      </trkpt>
      <trkpt lat="45.17334" lon="5.21996">
        <ele>352.46200561523</ele>
        <time>2009-08-08T12:48:59Z</time>
      </trkpt>
      <trkpt lat="45.17337" lon="5.22188">
        <ele>352.59698486328</ele>
        <time>2009-08-08T12:49:17Z</time>
      </trkpt>
      <trkpt lat="45.17339" lon="5.22247">
        <ele>351.93099975586</ele>
        <time>2009-08-08T12:49:23Z</time>
      </trkpt>
      <trkpt lat="45.1733" lon="5.22283">
        <ele>351.83700561523</ele>
        <time>2009-08-08T12:49:27Z</time>
      </trkpt>
      <trkpt lat="45.17253" lon="5.22392">
        <ele>352.62399291992</ele>
        <time>2009-08-08T12:49:42Z</time>
      </trkpt>
      <trkpt lat="45.17178" lon="5.22493">
        <ele>354.62399291992</ele>
        <time>2009-08-08T12:49:57Z</time>
      </trkpt>
      <trkpt lat="45.17174" lon="5.22501">
        <ele>355.00500488281</ele>
        <time>2009-08-08T12:49:58Z</time>
      </trkpt>
      <trkpt lat="45.17165" lon="5.22535">
        <ele>356.18499755859</ele>
        <time>2009-08-08T12:50:02Z</time>
      </trkpt>
      <trkpt lat="45.17164" lon="5.22552">
        <ele>356.09698486328</ele>
        <time>2009-08-08T12:50:04Z</time>
      </trkpt>
      <trkpt lat="45.17165" lon="5.22577">
        <ele>356.92300415039</ele>
        <time>2009-08-08T12:50:07Z</time>
      </trkpt>
      <trkpt lat="45.1716" lon="5.22626">
        <ele>358.32699584961</ele>
        <time>2009-08-08T12:50:13Z</time>
      </trkpt>
      <trkpt lat="45.17155" lon="5.22642">
        <ele>358.80899047852</ele>
        <time>2009-08-08T12:50:15Z</time>
      </trkpt>
      <trkpt lat="45.17118" lon="5.2272">
        <ele>362.32901000977</ele>
        <time>2009-08-08T12:50:26Z</time>
      </trkpt>
      <trkpt lat="45.17103" lon="5.22755">
        <ele>364.12399291992</ele>
        <time>2009-08-08T12:50:31Z</time>
      </trkpt>
      <trkpt lat="45.1709" lon="5.22784">
        <ele>365.37399291992</ele>
        <time>2009-08-08T12:50:35Z</time>
      </trkpt>
      <trkpt lat="45.17076" lon="5.22823">
        <ele>366.91500854492</ele>
        <time>2009-08-08T12:50:40Z</time>
      </trkpt>
      <trkpt lat="45.17071" lon="5.22839">
        <ele>367.67700195312</ele>
        <time>2009-08-08T12:50:42Z</time>
      </trkpt>
      <trkpt lat="45.17064" lon="5.22853">
        <ele>368.56399536133</ele>
        <time>2009-08-08T12:50:44Z</time>
      </trkpt>
      <trkpt lat="45.16999" lon="5.22935">
        <ele>372.72500610352</ele>
        <time>2009-08-08T12:50:59Z</time>
      </trkpt>
      <trkpt lat="45.16916" lon="5.23029">
        <ele>374.4280090332</ele>
        <time>2009-08-08T12:51:16Z</time>
      </trkpt>
      <trkpt lat="45.16829" lon="5.23088">
        <ele>376.17700195312</ele>
        <time>2009-08-08T12:51:31Z</time>
      </trkpt>
      <trkpt lat="45.16729" lon="5.23146">
        <ele>377.34899902344</ele>
        <time>2009-08-08T12:51:47Z</time>
      </trkpt>
      <trkpt lat="45.16617" lon="5.23213">
        <ele>374.58898925781</ele>
        <time>2009-08-08T12:52:02Z</time>
      </trkpt>
      <trkpt lat="45.16531" lon="5.23273">
        <ele>372.70700073242</ele>
        <time>2009-08-08T12:52:13Z</time>
      </trkpt>
      <trkpt lat="45.16451" lon="5.23353">
        <ele>366.85101318359</ele>
        <time>2009-08-08T12:52:22Z</time>
      </trkpt>
      <trkpt lat="45.16402" lon="5.23402">
        <ele>364.00100708008</ele>
        <time>2009-08-08T12:52:27Z</time>
      </trkpt>
      <trkpt lat="45.16364" lon="5.23444">
        <ele>363.03799438477</ele>
        <time>2009-08-08T12:52:31Z</time>
      </trkpt>
      <trkpt lat="45.16309" lon="5.23495">
        <ele>362.36801147461</ele>
        <time>2009-08-08T12:52:37Z</time>
      </trkpt>
      <trkpt lat="45.16246" lon="5.2354">
        <ele>360.52200317383</ele>
        <time>2009-08-08T12:52:44Z</time>
      </trkpt>
      <trkpt lat="45.16154" lon="5.23628">
        <ele>355.25601196289</ele>
        <time>2009-08-08T12:52:54Z</time>
      </trkpt>
      <trkpt lat="45.16088" lon="5.23674">
        <ele>352.19799804688</ele>
        <time>2009-08-08T12:53:00Z</time>
      </trkpt>
      <trkpt lat="45.16055" lon="5.23698">
        <ele>350.82901000977</ele>
        <time>2009-08-08T12:53:03Z</time>
      </trkpt>
      <trkpt lat="45.16044" lon="5.23707">
        <ele>350.72698974609</ele>
        <time>2009-08-08T12:53:04Z</time>
      </trkpt>
      <trkpt lat="45.15995" lon="5.2376">
        <ele>349.36099243164</ele>
        <time>2009-08-08T12:53:09Z</time>
      </trkpt>
      <trkpt lat="45.15862" lon="5.23834">
        <ele>341.68099975586</ele>
        <time>2009-08-08T12:53:21Z</time>
      </trkpt>
      <trkpt lat="45.1585" lon="5.2384">
        <ele>341.49798583984</ele>
        <time>2009-08-08T12:53:22Z</time>
      </trkpt>
      <trkpt lat="45.15816" lon="5.23858">
        <ele>340.01599121094</ele>
        <time>2009-08-08T12:53:25Z</time>
      </trkpt>
      <trkpt lat="45.15805" lon="5.23865">
        <ele>340.04998779297</ele>
        <time>2009-08-08T12:53:26Z</time>
      </trkpt>
      <trkpt lat="45.15768" lon="5.23947">
        <ele>338.46798706055</ele>
        <time>2009-08-08T12:53:32Z</time>
      </trkpt>
      <trkpt lat="45.15768" lon="5.23981">
        <ele>335.5</ele>
        <time>2009-08-08T12:53:34Z</time>
      </trkpt>
      <trkpt lat="45.15765" lon="5.24015">
        <ele>334.56698608398</ele>
        <time>2009-08-08T12:53:36Z</time>
      </trkpt>
      <trkpt lat="45.15731" lon="5.24081">
        <ele>331.26901245117</ele>
        <time>2009-08-08T12:53:41Z</time>
      </trkpt>
      <trkpt lat="45.15692" lon="5.24122">
        <ele>330.68701171875</ele>
        <time>2009-08-08T12:53:45Z</time>
      </trkpt>
      <trkpt lat="45.1567" lon="5.24141">
        <ele>329.86898803711</ele>
        <time>2009-08-08T12:53:47Z</time>
      </trkpt>
      <trkpt lat="45.15622" lon="5.24177">
        <ele>326.42098999023</ele>
        <time>2009-08-08T12:53:51Z</time>
      </trkpt>
      <trkpt lat="45.15594" lon="5.24219">
        <ele>324.69000244141</ele>
        <time>2009-08-08T12:53:54Z</time>
      </trkpt>
      <trkpt lat="45.15585" lon="5.24235">
        <ele>323.7080078125</ele>
        <time>2009-08-08T12:53:55Z</time>
      </trkpt>
      <trkpt lat="45.15559" lon="5.24288">
        <ele>323.6369934082</ele>
        <time>2009-08-08T12:53:58Z</time>
      </trkpt>
      <trkpt lat="45.15514" lon="5.24318">
        <ele>322.26599121094</ele>
        <time>2009-08-08T12:54:02Z</time>
      </trkpt>
      <trkpt lat="45.15478" lon="5.24342">
        <ele>318.92001342773</ele>
        <time>2009-08-08T12:54:05Z</time>
      </trkpt>
      <trkpt lat="45.15442" lon="5.24369">
        <ele>318.03900146484</ele>
        <time>2009-08-08T12:54:08Z</time>
      </trkpt>
      <trkpt lat="45.15414" lon="5.24406">
        <ele>316.3330078125</ele>
        <time>2009-08-08T12:54:11Z</time>
      </trkpt>
      <trkpt lat="45.154" lon="5.24473">
        <ele>314.14898681641</ele>
        <time>2009-08-08T12:54:15Z</time>
      </trkpt>
      <trkpt lat="45.15382" lon="5.24518">
        <ele>313.11700439453</ele>
        <time>2009-08-08T12:54:18Z</time>
      </trkpt>
      <trkpt lat="45.15313" lon="5.24653">
        <ele>308.51998901367</ele>
        <time>2009-08-08T12:54:27Z</time>
      </trkpt>
      <trkpt lat="45.15287" lon="5.24693">
        <ele>306.93200683594</ele>
        <time>2009-08-08T12:54:30Z</time>
      </trkpt>
      <trkpt lat="45.15279" lon="5.24707">
        <ele>306.24398803711</ele>
        <time>2009-08-08T12:54:31Z</time>
      </trkpt>
      <trkpt lat="45.15241" lon="5.24746">
        <ele>302.41000366211</ele>
        <time>2009-08-08T12:54:35Z</time>
      </trkpt>
      <trkpt lat="45.15173" lon="5.24792">
        <ele>301.14801025391</ele>
        <time>2009-08-08T12:54:41Z</time>
      </trkpt>
      <trkpt lat="45.15165" lon="5.24866">
        <ele>301.27398681641</ele>
        <time>2009-08-08T12:54:46Z</time>
      </trkpt>
      <trkpt lat="45.15201" lon="5.24915">
        <ele>305.44799804688</ele>
        <time>2009-08-08T12:54:52Z</time>
      </trkpt>
      <trkpt lat="45.15208" lon="5.24916">
        <ele>305.73498535156</ele>
        <time>2009-08-08T12:54:53Z</time>
      </trkpt>
      <trkpt lat="45.15216" lon="5.24917">
        <ele>306.34399414062</ele>
        <time>2009-08-08T12:54:54Z</time>
      </trkpt>
      <trkpt lat="45.15241" lon="5.24917">
        <ele>308.16900634766</ele>
        <time>2009-08-08T12:54:58Z</time>
      </trkpt>
      <trkpt lat="45.15266" lon="5.24918">
        <ele>309.52398681641</ele>
        <time>2009-08-08T12:55:02Z</time>
      </trkpt>
      <trkpt lat="45.15281" lon="5.24922">
        <ele>310.66500854492</ele>
        <time>2009-08-08T12:55:05Z</time>
      </trkpt>
      <trkpt lat="45.15306" lon="5.24923">
        <ele>313.18099975586</ele>
        <time>2009-08-08T12:55:10Z</time>
      </trkpt>
      <trkpt lat="45.1533" lon="5.2492">
        <ele>314.96398925781</ele>
        <time>2009-08-08T12:55:15Z</time>
      </trkpt>
      <trkpt lat="45.15359" lon="5.24909">
        <ele>317.4580078125</ele>
        <time>2009-08-08T12:55:22Z</time>
      </trkpt>
      <trkpt lat="45.15415" lon="5.24915">
        <ele>321.01300048828</ele>
        <time>2009-08-08T12:55:34Z</time>
      </trkpt>
      <trkpt lat="45.15451" lon="5.24946">
        <ele>323.55599975586</ele>
        <time>2009-08-08T12:55:44Z</time>
      </trkpt>
      <trkpt lat="45.15492" lon="5.24986">
        <ele>326.99899291992</ele>
        <time>2009-08-08T12:55:58Z</time>
      </trkpt>
      <trkpt lat="45.15522" lon="5.25038">
        <ele>330.64300537109</ele>
        <time>2009-08-08T12:56:12Z</time>
      </trkpt>
      <trkpt lat="45.15537" lon="5.25068">
        <ele>333.30200195312</ele>
        <time>2009-08-08T12:56:20Z</time>
      </trkpt>
      <trkpt lat="45.15576" lon="5.25144">
        <ele>337.17599487305</ele>
        <time>2009-08-08T12:56:40Z</time>
      </trkpt>
      <trkpt lat="45.15585" lon="5.25227">
        <ele>341.26400756836</ele>
        <time>2009-08-08T12:56:58Z</time>
      </trkpt>
      <trkpt lat="45.15559" lon="5.253">
        <ele>345.37701416016</ele>
        <time>2009-08-08T12:57:16Z</time>
      </trkpt>
      <trkpt lat="45.15533" lon="5.25342">
        <ele>349.18600463867</ele>
        <time>2009-08-08T12:57:30Z</time>
      </trkpt>
      <trkpt lat="45.15503" lon="5.25389">
        <ele>351.63101196289</ele>
        <time>2009-08-08T12:57:45Z</time>
      </trkpt>
      <trkpt lat="45.15461" lon="5.25457">
        <ele>355.13299560547</ele>
        <time>2009-08-08T12:58:03Z</time>
      </trkpt>
      <trkpt lat="45.15441" lon="5.25491">
        <ele>356.60501098633</ele>
        <time>2009-08-08T12:58:11Z</time>
      </trkpt>
      <trkpt lat="45.15437" lon="5.25513">
        <ele>357.53799438477</ele>
        <time>2009-08-08T12:58:15Z</time>
      </trkpt>
      <trkpt lat="45.15437" lon="5.25526">
        <ele>357.85699462891</ele>
        <time>2009-08-08T12:58:17Z</time>
      </trkpt>
      <trkpt lat="45.15468" lon="5.25634">
        <ele>360.86401367188</ele>
        <time>2009-08-08T12:58:35Z</time>
      </trkpt>
      <trkpt lat="45.15532" lon="5.25737">
        <ele>361.8039855957</ele>
        <time>2009-08-08T12:58:53Z</time>
      </trkpt>
      <trkpt lat="45.15545" lon="5.25759">
        <ele>361.4280090332</ele>
        <time>2009-08-08T12:58:56Z</time>
      </trkpt>
      <trkpt lat="45.1559" lon="5.25807">
        <ele>358.97198486328</ele>
        <time>2009-08-08T12:59:03Z</time>
      </trkpt>
      <trkpt lat="45.1561" lon="5.25834">
        <ele>357.36999511719</ele>
        <time>2009-08-08T12:59:06Z</time>
      </trkpt>
      <trkpt lat="45.15616" lon="5.25844">
        <ele>356.83801269531</ele>
        <time>2009-08-08T12:59:07Z</time>
      </trkpt>
      <trkpt lat="45.15653" lon="5.25916">
        <ele>353.57800292969</ele>
        <time>2009-08-08T12:59:13Z</time>
      </trkpt>
      <trkpt lat="45.15653" lon="5.26014">
        <ele>346.79501342773</ele>
        <time>2009-08-08T12:59:19Z</time>
      </trkpt>
      <trkpt lat="45.15636" lon="5.26062">
        <ele>345.34201049805</ele>
        <time>2009-08-08T12:59:22Z</time>
      </trkpt>
      <trkpt lat="45.15622" lon="5.26136">
        <ele>342.77398681641</ele>
        <time>2009-08-08T12:59:26Z</time>
      </trkpt>
      <trkpt lat="45.15609" lon="5.26279">
        <ele>332.09799194336</ele>
        <time>2009-08-08T12:59:33Z</time>
      </trkpt>
      <trkpt lat="45.1558" lon="5.2637">
        <ele>328.26501464844</ele>
        <time>2009-08-08T12:59:38Z</time>
      </trkpt>
      <trkpt lat="45.15547" lon="5.26443">
        <ele>323.06799316406</ele>
        <time>2009-08-08T12:59:42Z</time>
      </trkpt>
      <trkpt lat="45.15514" lon="5.26561">
        <ele>318.24899291992</ele>
        <time>2009-08-08T12:59:48Z</time>
      </trkpt>
      <trkpt lat="45.15485" lon="5.26671">
        <ele>313.8450012207</ele>
        <time>2009-08-08T12:59:54Z</time>
      </trkpt>
      <trkpt lat="45.15416" lon="5.26817">
        <ele>311.47299194336</ele>
        <time>2009-08-08T13:00:04Z</time>
      </trkpt>
      <trkpt lat="45.15327" lon="5.26909">
        <ele>309.54000854492</ele>
        <time>2009-08-08T13:00:14Z</time>
      </trkpt>
      <trkpt lat="45.15251" lon="5.2698">
        <ele>308.80099487305</ele>
        <time>2009-08-08T13:00:22Z</time>
      </trkpt>
      <trkpt lat="45.15137" lon="5.27096">
        <ele>306.39700317383</ele>
        <time>2009-08-08T13:00:35Z</time>
      </trkpt>
      <trkpt lat="45.15042" lon="5.27197">
        <ele>305.25601196289</ele>
        <time>2009-08-08T13:00:47Z</time>
      </trkpt>
      <trkpt lat="45.14946" lon="5.27299">
        <ele>304.10900878906</ele>
        <time>2009-08-08T13:01:00Z</time>
      </trkpt>
      <trkpt lat="45.14779" lon="5.2745">
        <ele>303.0539855957</ele>
        <time>2009-08-08T13:01:22Z</time>
      </trkpt>
      <trkpt lat="45.14672" lon="5.27517">
        <ele>300.85699462891</ele>
        <time>2009-08-08T13:01:35Z</time>
      </trkpt>
      <trkpt lat="45.1459" lon="5.27572">
        <ele>298.75601196289</ele>
        <time>2009-08-08T13:01:44Z</time>
      </trkpt>
      <trkpt lat="45.1456" lon="5.27625">
        <ele>296.9289855957</ele>
        <time>2009-08-08T13:01:49Z</time>
      </trkpt>
      <trkpt lat="45.14545" lon="5.27662">
        <ele>296.16299438477</ele>
        <time>2009-08-08T13:01:52Z</time>
      </trkpt>
      <trkpt lat="45.14523" lon="5.27747">
        <ele>294.06298828125</ele>
        <time>2009-08-08T13:01:58Z</time>
      </trkpt>
      <trkpt lat="45.14495" lon="5.2783">
        <ele>292.02398681641</ele>
        <time>2009-08-08T13:02:04Z</time>
      </trkpt>
      <trkpt lat="45.14449" lon="5.27923">
        <ele>290.74499511719</ele>
        <time>2009-08-08T13:02:12Z</time>
      </trkpt>
      <trkpt lat="45.14419" lon="5.27985">
        <ele>289.86199951172</ele>
        <time>2009-08-08T13:02:18Z</time>
      </trkpt>
      <trkpt lat="45.14395" lon="5.28041">
        <ele>289.89199829102</ele>
        <time>2009-08-08T13:02:24Z</time>
      </trkpt>
      <trkpt lat="45.14391" lon="5.28049">
        <ele>289.50201416016</ele>
        <time>2009-08-08T13:02:25Z</time>
      </trkpt>
      <trkpt lat="45.14359" lon="5.28117">
        <ele>289.16500854492</ele>
        <time>2009-08-08T13:02:34Z</time>
      </trkpt>
      <trkpt lat="45.14355" lon="5.28152">
        <ele>289.16101074219</ele>
        <time>2009-08-08T13:02:38Z</time>
      </trkpt>
      <trkpt lat="45.14347" lon="5.28211">
        <ele>289.59399414062</ele>
        <time>2009-08-08T13:02:44Z</time>
      </trkpt>
      <trkpt lat="45.14344" lon="5.28226">
        <ele>290.2200012207</ele>
        <time>2009-08-08T13:02:46Z</time>
      </trkpt>
      <trkpt lat="45.14343" lon="5.28252">
        <ele>290.74398803711</ele>
        <time>2009-08-08T13:02:50Z</time>
      </trkpt>
      <trkpt lat="45.14336" lon="5.28279">
        <ele>290.75</ele>
        <time>2009-08-08T13:02:54Z</time>
      </trkpt>
      <trkpt lat="45.14314" lon="5.28333">
        <ele>289.87701416016</ele>
        <time>2009-08-08T13:03:01Z</time>
      </trkpt>
      <trkpt lat="45.14306" lon="5.28346">
        <ele>289.49899291992</ele>
        <time>2009-08-08T13:03:03Z</time>
      </trkpt>
      <trkpt lat="45.14298" lon="5.28364">
        <ele>289.59698486328</ele>
        <time>2009-08-08T13:03:06Z</time>
      </trkpt>
      <trkpt lat="45.14296" lon="5.28366">
        <ele>290.10998535156</ele>
        <time>2009-08-08T13:03:09Z</time>
      </trkpt>
      <trkpt lat="45.143" lon="5.28371">
        <ele>289.96600341797</ele>
        <time>2009-08-08T13:03:44Z</time>
      </trkpt>
      <trkpt lat="45.14296" lon="5.28375">
        <ele>289.95700073242</ele>
        <time>2009-08-08T13:04:05Z</time>
      </trkpt>
      <trkpt lat="45.14291" lon="5.2839">
        <ele>289.70401000977</ele>
        <time>2009-08-08T13:04:11Z</time>
      </trkpt>
      <trkpt lat="45.14273" lon="5.28436">
        <ele>289.65600585938</ele>
        <time>2009-08-08T13:04:24Z</time>
      </trkpt>
      <trkpt lat="45.14267" lon="5.2845">
        <ele>289.72900390625</ele>
        <time>2009-08-08T13:04:27Z</time>
      </trkpt>
      <trkpt lat="45.14261" lon="5.28464">
        <ele>289.96499633789</ele>
        <time>2009-08-08T13:04:30Z</time>
      </trkpt>
      <trkpt lat="45.14247" lon="5.28497">
        <ele>290.35101318359</ele>
        <time>2009-08-08T13:04:36Z</time>
      </trkpt>
      <trkpt lat="45.14229" lon="5.28553">
        <ele>290.85198974609</ele>
        <time>2009-08-08T13:04:46Z</time>
      </trkpt>
      <trkpt lat="45.142" lon="5.28646">
        <ele>288.57299804688</ele>
        <time>2009-08-08T13:04:59Z</time>
      </trkpt>
      <trkpt lat="45.14197" lon="5.28654">
        <ele>288.92599487305</ele>
        <time>2009-08-08T13:05:00Z</time>
      </trkpt>
      <trkpt lat="45.14142" lon="5.28745">
        <ele>287.1780090332</ele>
        <time>2009-08-08T13:05:14Z</time>
      </trkpt>
      <trkpt lat="45.14138" lon="5.28751">
        <ele>287.60900878906</ele>
        <time>2009-08-08T13:05:15Z</time>
      </trkpt>
      <trkpt lat="45.14117" lon="5.28769">
        <ele>287.14898681641</ele>
        <time>2009-08-08T13:05:20Z</time>
      </trkpt>
      <trkpt lat="45.1409" lon="5.28789">
        <ele>286.89898681641</ele>
        <time>2009-08-08T13:05:27Z</time>
      </trkpt>
      <trkpt lat="45.14061" lon="5.28811">
        <ele>286.77301025391</ele>
        <time>2009-08-08T13:05:34Z</time>
      </trkpt>
      <trkpt lat="45.14047" lon="5.28821">
        <ele>286.4169921875</ele>
        <time>2009-08-08T13:05:37Z</time>
      </trkpt>
      <trkpt lat="45.1403" lon="5.28827">
        <ele>286.21398925781</ele>
        <time>2009-08-08T13:05:40Z</time>
      </trkpt>
      <trkpt lat="45.1395" lon="5.28892">
        <ele>284.42098999023</ele>
        <time>2009-08-08T13:05:54Z</time>
      </trkpt>
      <trkpt lat="45.13872" lon="5.28958">
        <ele>283.19299316406</ele>
        <time>2009-08-08T13:06:07Z</time>
      </trkpt>
      <trkpt lat="45.13805" lon="5.29022">
        <ele>281.17098999023</ele>
        <time>2009-08-08T13:06:17Z</time>
      </trkpt>
      <trkpt lat="45.13754" lon="5.29082">
        <ele>280.48400878906</ele>
        <time>2009-08-08T13:06:25Z</time>
      </trkpt>
      <trkpt lat="45.13651" lon="5.29221">
        <ele>277.59600830078</ele>
        <time>2009-08-08T13:06:43Z</time>
      </trkpt>
      <trkpt lat="45.13585" lon="5.29299">
        <ele>276.54299926758</ele>
        <time>2009-08-08T13:06:55Z</time>
      </trkpt>
      <trkpt lat="45.13563" lon="5.29323">
        <ele>276.30999755859</ele>
        <time>2009-08-08T13:06:59Z</time>
      </trkpt>
      <trkpt lat="45.13547" lon="5.2934">
        <ele>276.22299194336</ele>
        <time>2009-08-08T13:07:02Z</time>
      </trkpt>
      <trkpt lat="45.13523" lon="5.29367">
        <ele>276.1549987793</ele>
        <time>2009-08-08T13:07:07Z</time>
      </trkpt>
      <trkpt lat="45.13489" lon="5.29404">
        <ele>275.6369934082</ele>
        <time>2009-08-08T13:07:17Z</time>
      </trkpt>
      <trkpt lat="45.13478" lon="5.29427">
        <ele>276.08801269531</ele>
        <time>2009-08-08T13:07:25Z</time>
      </trkpt>
      <trkpt lat="45.13472" lon="5.29433">
        <ele>276.13101196289</ele>
        <time>2009-08-08T13:07:29Z</time>
      </trkpt>
      <trkpt lat="45.13467" lon="5.29434">
        <ele>276.26699829102</ele>
        <time>2009-08-08T13:07:35Z</time>
      </trkpt>
      <trkpt lat="45.13453" lon="5.29441">
        <ele>275.76400756836</ele>
        <time>2009-08-08T13:07:45Z</time>
      </trkpt>
      <trkpt lat="45.13424" lon="5.29466">
        <ele>275.07901000977</ele>
        <time>2009-08-08T13:07:52Z</time>
      </trkpt>
      <trkpt lat="45.13353" lon="5.29549">
        <ele>274.89401245117</ele>
        <time>2009-08-08T13:08:09Z</time>
      </trkpt>
      <trkpt lat="45.13265" lon="5.29645">
        <ele>275.15399169922</ele>
        <time>2009-08-08T13:08:26Z</time>
      </trkpt>
      <trkpt lat="45.13227" lon="5.29687">
        <ele>275.23999023438</ele>
        <time>2009-08-08T13:08:33Z</time>
      </trkpt>
      <trkpt lat="45.132" lon="5.29719">
        <ele>275.50299072266</ele>
        <time>2009-08-08T13:08:38Z</time>
      </trkpt>
      <trkpt lat="45.13135" lon="5.29801">
        <ele>274.39599609375</ele>
        <time>2009-08-08T13:08:51Z</time>
      </trkpt>
      <trkpt lat="45.13109" lon="5.29835">
        <ele>274.54699707031</ele>
        <time>2009-08-08T13:09:00Z</time>
      </trkpt>
      <trkpt lat="45.13052" lon="5.29897">
        <ele>274.27600097656</ele>
        <time>2009-08-08T13:09:11Z</time>
      </trkpt>
      <trkpt lat="45.13047" lon="5.29903">
        <ele>274.15701293945</ele>
        <time>2009-08-08T13:09:12Z</time>
      </trkpt>
      <trkpt lat="45.12976" lon="5.29991">
        <ele>273.84698486328</ele>
        <time>2009-08-08T13:09:26Z</time>
      </trkpt>
      <trkpt lat="45.12871" lon="5.30086">
        <ele>272.42999267578</ele>
        <time>2009-08-08T13:09:42Z</time>
      </trkpt>
      <trkpt lat="45.12775" lon="5.30135">
        <ele>273.53399658203</ele>
        <time>2009-08-08T13:09:55Z</time>
      </trkpt>
      <trkpt lat="45.12704" lon="5.30191">
        <ele>275.87298583984</ele>
        <time>2009-08-08T13:10:07Z</time>
      </trkpt>
      <trkpt lat="45.12666" lon="5.30238">
        <ele>275.52700805664</ele>
        <time>2009-08-08T13:10:14Z</time>
      </trkpt>
      <trkpt lat="45.12651" lon="5.30276">
        <ele>274.46398925781</ele>
        <time>2009-08-08T13:10:18Z</time>
      </trkpt>
      <trkpt lat="45.12642" lon="5.30319">
        <ele>273.70498657227</ele>
        <time>2009-08-08T13:10:22Z</time>
      </trkpt>
      <trkpt lat="45.12611" lon="5.30383">
        <ele>275.75601196289</ele>
        <time>2009-08-08T13:10:29Z</time>
      </trkpt>
      <trkpt lat="45.12523" lon="5.30532">
        <ele>275.05999755859</ele>
        <time>2009-08-08T13:10:48Z</time>
      </trkpt>
      <trkpt lat="45.12509" lon="5.30555">
        <ele>274.87899780273</ele>
        <time>2009-08-08T13:10:51Z</time>
      </trkpt>
      <trkpt lat="45.12488" lon="5.30546">
        <ele>274.62701416016</ele>
        <time>2009-08-08T13:10:55Z</time>
      </trkpt>
      <trkpt lat="45.1242" lon="5.30442">
        <ele>275.03100585938</ele>
        <time>2009-08-08T13:11:09Z</time>
      </trkpt>
      <trkpt lat="45.12387" lon="5.30396">
        <ele>274.26599121094</ele>
        <time>2009-08-08T13:11:15Z</time>
      </trkpt>
      <trkpt lat="45.1235" lon="5.30384">
        <ele>271.71200561523</ele>
        <time>2009-08-08T13:11:20Z</time>
      </trkpt>
      <trkpt lat="45.12341" lon="5.30387">
        <ele>271.46701049805</ele>
        <time>2009-08-08T13:11:21Z</time>
      </trkpt>
      <trkpt lat="45.12272" lon="5.30413">
        <ele>268.98001098633</ele>
        <time>2009-08-08T13:11:29Z</time>
      </trkpt>
      <trkpt lat="45.12214" lon="5.3043">
        <ele>266.50799560547</ele>
        <time>2009-08-08T13:11:35Z</time>
      </trkpt>
      <trkpt lat="45.12151" lon="5.3043">
        <ele>263.2619934082</ele>
        <time>2009-08-08T13:11:41Z</time>
      </trkpt>
      <trkpt lat="45.12109" lon="5.30443">
        <ele>260.80200195312</ele>
        <time>2009-08-08T13:11:45Z</time>
      </trkpt>
      <trkpt lat="45.12099" lon="5.30453">
        <ele>260.36599731445</ele>
        <time>2009-08-08T13:11:46Z</time>
      </trkpt>
      <trkpt lat="45.12086" lon="5.30525">
        <ele>257.06900024414</ele>
        <time>2009-08-08T13:11:51Z</time>
      </trkpt>
      <trkpt lat="45.1209" lon="5.30541">
        <ele>256.74398803711</ele>
        <time>2009-08-08T13:11:52Z</time>
      </trkpt>
      <trkpt lat="45.12125" lon="5.30669">
        <ele>251.80999755859</ele>
        <time>2009-08-08T13:12:00Z</time>
      </trkpt>
      <trkpt lat="45.12129" lon="5.30686">
        <ele>251.53700256348</ele>
        <time>2009-08-08T13:12:01Z</time>
      </trkpt>
      <trkpt lat="45.12179" lon="5.30925">
        <ele>241.78500366211</ele>
        <time>2009-08-08T13:12:14Z</time>
      </trkpt>
      <trkpt lat="45.1221" lon="5.31071">
        <ele>235.92700195312</ele>
        <time>2009-08-08T13:12:22Z</time>
      </trkpt>
      <trkpt lat="45.12221" lon="5.31125">
        <ele>234.05599975586</ele>
        <time>2009-08-08T13:12:25Z</time>
      </trkpt>
      <trkpt lat="45.12236" lon="5.31217">
        <ele>231.76499938965</ele>
        <time>2009-08-08T13:12:30Z</time>
      </trkpt>
      <trkpt lat="45.12243" lon="5.31273">
        <ele>227.60299682617</ele>
        <time>2009-08-08T13:12:33Z</time>
      </trkpt>
      <trkpt lat="45.12257" lon="5.31481">
        <ele>219.57899475098</ele>
        <time>2009-08-08T13:12:44Z</time>
      </trkpt>
      <trkpt lat="45.12269" lon="5.31554">
        <ele>217.54600524902</ele>
        <time>2009-08-08T13:12:48Z</time>
      </trkpt>
      <trkpt lat="45.1227" lon="5.31684">
        <ele>212.11999511719</ele>
        <time>2009-08-08T13:12:55Z</time>
      </trkpt>
      <trkpt lat="45.12301" lon="5.31846">
        <ele>204.14500427246</ele>
        <time>2009-08-08T13:13:04Z</time>
      </trkpt>
      <trkpt lat="45.12311" lon="5.31899">
        <ele>202.62800598144</ele>
        <time>2009-08-08T13:13:07Z</time>
      </trkpt>
      <trkpt lat="45.12328" lon="5.31949">
        <ele>200.57600402832</ele>
        <time>2009-08-08T13:13:10Z</time>
      </trkpt>
      <trkpt lat="45.12379" lon="5.32128">
        <ele>191.2200012207</ele>
        <time>2009-08-08T13:13:20Z</time>
      </trkpt>
      <trkpt lat="45.12395" lon="5.32181">
        <ele>191.72999572754</ele>
        <time>2009-08-08T13:13:23Z</time>
      </trkpt>
      <trkpt lat="45.12409" lon="5.32206">
        <ele>192.42399597168</ele>
        <time>2009-08-08T13:13:25Z</time>
      </trkpt>
      <trkpt lat="45.12448" lon="5.32248">
        <ele>190.45100402832</ele>
        <time>2009-08-08T13:13:30Z</time>
      </trkpt>
      <trkpt lat="45.1244" lon="5.3229">
        <ele>189.60600280762</ele>
        <time>2009-08-08T13:13:34Z</time>
      </trkpt>
      <trkpt lat="45.12428" lon="5.32308">
        <ele>189.11999511719</ele>
        <time>2009-08-08T13:13:36Z</time>
      </trkpt>
      <trkpt lat="45.12416" lon="5.32351">
        <ele>188.52000427246</ele>
        <time>2009-08-08T13:13:40Z</time>
      </trkpt>
      <trkpt lat="45.12414" lon="5.32373">
        <ele>188.12899780273</ele>
        <time>2009-08-08T13:13:42Z</time>
      </trkpt>
      <trkpt lat="45.12441" lon="5.32489">
        <ele>188.625</ele>
        <time>2009-08-08T13:13:54Z</time>
      </trkpt>
      <trkpt lat="45.12465" lon="5.32567">
        <ele>189.35699462891</ele>
        <time>2009-08-08T13:14:03Z</time>
      </trkpt>
      <trkpt lat="45.12489" lon="5.3265">
        <ele>190.42399597168</ele>
        <time>2009-08-08T13:14:13Z</time>
      </trkpt>
      <trkpt lat="45.12503" lon="5.32691">
        <ele>190.96099853516</ele>
        <time>2009-08-08T13:14:18Z</time>
      </trkpt>
      <trkpt lat="45.12522" lon="5.32751">
        <ele>191.21600341797</ele>
        <time>2009-08-08T13:14:26Z</time>
      </trkpt>
      <trkpt lat="45.12558" lon="5.32872">
        <ele>192.59700012207</ele>
        <time>2009-08-08T13:14:43Z</time>
      </trkpt>
      <trkpt lat="45.12567" lon="5.3291">
        <ele>192.93699645996</ele>
        <time>2009-08-08T13:14:48Z</time>
      </trkpt>
      <trkpt lat="45.12549" lon="5.32973">
        <ele>193.4640045166</ele>
        <time>2009-08-08T13:14:57Z</time>
      </trkpt>
      <trkpt lat="45.12435" lon="5.33048">
        <ele>192.87100219727</ele>
        <time>2009-08-08T13:15:18Z</time>
      </trkpt>
      <trkpt lat="45.12417" lon="5.33063">
        <ele>192.51300048828</ele>
        <time>2009-08-08T13:15:22Z</time>
      </trkpt>
      <trkpt lat="45.12398" lon="5.33081">
        <ele>192.78100585938</ele>
        <time>2009-08-08T13:15:26Z</time>
      </trkpt>
      <trkpt lat="45.124" lon="5.33161">
        <ele>189.34899902344</ele>
        <time>2009-08-08T13:15:36Z</time>
      </trkpt>
      <trkpt lat="45.12405" lon="5.33169">
        <ele>189.12199401856</ele>
        <time>2009-08-08T13:15:37Z</time>
      </trkpt>
      <trkpt lat="45.12449" lon="5.33232">
        <ele>186.5950012207</ele>
        <time>2009-08-08T13:15:44Z</time>
      </trkpt>
      <trkpt lat="45.12467" lon="5.33274">
        <ele>186.45300292969</ele>
        <time>2009-08-08T13:15:48Z</time>
      </trkpt>
      <trkpt lat="45.12469" lon="5.33295">
        <ele>187.0119934082</ele>
        <time>2009-08-08T13:15:50Z</time>
      </trkpt>
      <trkpt lat="45.12469" lon="5.33304">
        <ele>187.41799926758</ele>
        <time>2009-08-08T13:15:51Z</time>
      </trkpt>
      <trkpt lat="45.12466" lon="5.33362">
        <ele>189.4880065918</ele>
        <time>2009-08-08T13:15:58Z</time>
      </trkpt>
      <trkpt lat="45.12467" lon="5.33388">
        <ele>190.77000427246</ele>
        <time>2009-08-08T13:16:02Z</time>
      </trkpt>
      <trkpt lat="45.1248" lon="5.33432">
        <ele>192.94799804688</ele>
        <time>2009-08-08T13:16:10Z</time>
      </trkpt>
      <trkpt lat="45.12489" lon="5.33447">
        <ele>193.99499511719</ele>
        <time>2009-08-08T13:16:13Z</time>
      </trkpt>
      <trkpt lat="45.12506" lon="5.33475">
        <ele>195.30999755859</ele>
        <time>2009-08-08T13:16:19Z</time>
      </trkpt>
      <trkpt lat="45.12514" lon="5.3349">
        <ele>196.42300415039</ele>
        <time>2009-08-08T13:16:22Z</time>
      </trkpt>
      <trkpt lat="45.12524" lon="5.33551">
        <ele>198.89399719238</ele>
        <time>2009-08-08T13:16:33Z</time>
      </trkpt>
      <trkpt lat="45.12535" lon="5.33584">
        <ele>201.1369934082</ele>
        <time>2009-08-08T13:16:40Z</time>
      </trkpt>
      <trkpt lat="45.12557" lon="5.3362">
        <ele>203.25199890137</ele>
        <time>2009-08-08T13:16:49Z</time>
      </trkpt>
      <trkpt lat="45.12576" lon="5.33675">
        <ele>206.39999389648</ele>
        <time>2009-08-08T13:17:01Z</time>
      </trkpt>
      <trkpt lat="45.12551" lon="5.33692">
        <ele>209.09599304199</ele>
        <time>2009-08-08T13:17:09Z</time>
      </trkpt>
      <trkpt lat="45.1249" lon="5.33683">
        <ele>212.94299316406</ele>
        <time>2009-08-08T13:17:27Z</time>
      </trkpt>
      <trkpt lat="45.12478" lon="5.33676">
        <ele>213.57299804688</ele>
        <time>2009-08-08T13:17:36Z</time>
      </trkpt>
      <trkpt lat="45.12475" lon="5.33688">
        <ele>213.28700256348</ele>
        <time>2009-08-08T13:17:54Z</time>
      </trkpt>
      <trkpt lat="45.12481" lon="5.33729">
        <ele>213.33099365234</ele>
        <time>2009-08-08T13:18:02Z</time>
      </trkpt>
      <trkpt lat="45.12484" lon="5.33754">
        <ele>213.19500732422</ele>
        <time>2009-08-08T13:18:06Z</time>
      </trkpt>
      <trkpt lat="45.1249" lon="5.33794">
        <ele>213.15699768066</ele>
        <time>2009-08-08T13:18:12Z</time>
      </trkpt>
      <trkpt lat="45.12501" lon="5.3388">
        <ele>214.5119934082</ele>
        <time>2009-08-08T13:18:25Z</time>
      </trkpt>
      <trkpt lat="45.12505" lon="5.33898">
        <ele>214.36599731445</ele>
        <time>2009-08-08T13:18:28Z</time>
      </trkpt>
      <trkpt lat="45.12489" lon="5.33923">
        <ele>215.79499816894</ele>
        <time>2009-08-08T13:18:35Z</time>
      </trkpt>
      <trkpt lat="45.12444" lon="5.33917">
        <ele>219.08999633789</ele>
        <time>2009-08-08T13:18:50Z</time>
      </trkpt>
      <trkpt lat="45.12407" lon="5.33966">
        <ele>222.89500427246</ele>
        <time>2009-08-08T13:19:05Z</time>
      </trkpt>
      <trkpt lat="45.12407" lon="5.3402">
        <ele>225.36099243164</ele>
        <time>2009-08-08T13:19:16Z</time>
      </trkpt>
      <trkpt lat="45.1241" lon="5.3406">
        <ele>227.06500244141</ele>
        <time>2009-08-08T13:19:25Z</time>
      </trkpt>
      <trkpt lat="45.12413" lon="5.34112">
        <ele>230.38900756836</ele>
        <time>2009-08-08T13:19:37Z</time>
      </trkpt>
      <trkpt lat="45.12413" lon="5.3416">
        <ele>233.08000183106</ele>
        <time>2009-08-08T13:19:48Z</time>
      </trkpt>
      <trkpt lat="45.12413" lon="5.34186">
        <ele>234.18699645996</ele>
        <time>2009-08-08T13:19:54Z</time>
      </trkpt>
      <trkpt lat="45.12414" lon="5.34207">
        <ele>235.88800048828</ele>
        <time>2009-08-08T13:19:59Z</time>
      </trkpt>
      <trkpt lat="45.12432" lon="5.34262">
        <ele>239.13000488281</ele>
        <time>2009-08-08T13:20:13Z</time>
      </trkpt>
      <trkpt lat="45.12447" lon="5.34311">
        <ele>242.3390045166</ele>
        <time>2009-08-08T13:20:26Z</time>
      </trkpt>
      <trkpt lat="45.1246" lon="5.34354">
        <ele>245.24600219727</ele>
        <time>2009-08-08T13:20:37Z</time>
      </trkpt>
      <trkpt lat="45.12481" lon="5.34401">
        <ele>247.92399597168</ele>
        <time>2009-08-08T13:20:49Z</time>
      </trkpt>
      <trkpt lat="45.12501" lon="5.34448">
        <ele>251.04600524902</ele>
        <time>2009-08-08T13:21:00Z</time>
      </trkpt>
      <trkpt lat="45.12523" lon="5.34504">
        <ele>254.45100402832</ele>
        <time>2009-08-08T13:21:13Z</time>
      </trkpt>
      <trkpt lat="45.12529" lon="5.34564">
        <ele>257.53201293945</ele>
        <time>2009-08-08T13:21:26Z</time>
      </trkpt>
      <trkpt lat="45.12534" lon="5.34634">
        <ele>261.4460144043</ele>
        <time>2009-08-08T13:21:42Z</time>
      </trkpt>
      <trkpt lat="45.12535" lon="5.34717">
        <ele>266.45098876953</ele>
        <time>2009-08-08T13:22:00Z</time>
      </trkpt>
      <trkpt lat="45.12522" lon="5.34766">
        <ele>269.49398803711</ele>
        <time>2009-08-08T13:22:12Z</time>
      </trkpt>
      <trkpt lat="45.12534" lon="5.34833">
        <ele>273.23199462891</ele>
        <time>2009-08-08T13:22:26Z</time>
      </trkpt>
      <trkpt lat="45.12526" lon="5.34883">
        <ele>275.86999511719</ele>
        <time>2009-08-08T13:22:38Z</time>
      </trkpt>
      <trkpt lat="45.12528" lon="5.34963">
        <ele>279.67599487305</ele>
        <time>2009-08-08T13:22:55Z</time>
      </trkpt>
      <trkpt lat="45.12537" lon="5.35009">
        <ele>281.6969909668</ele>
        <time>2009-08-08T13:23:06Z</time>
      </trkpt>
      <trkpt lat="45.12555" lon="5.35087">
        <ele>286.39599609375</ele>
        <time>2009-08-08T13:23:22Z</time>
      </trkpt>
      <trkpt lat="45.12543" lon="5.35143">
        <ele>289.8450012207</ele>
        <time>2009-08-08T13:23:36Z</time>
      </trkpt>
      <trkpt lat="45.12535" lon="5.35161">
        <ele>290.82299804688</ele>
        <time>2009-08-08T13:23:41Z</time>
      </trkpt>
      <trkpt lat="45.12539" lon="5.35178">
        <ele>291.83599853516</ele>
        <time>2009-08-08T13:23:45Z</time>
      </trkpt>
      <trkpt lat="45.12568" lon="5.35212">
        <ele>294.44799804688</ele>
        <time>2009-08-08T13:23:57Z</time>
      </trkpt>
      <trkpt lat="45.12598" lon="5.35259">
        <ele>298.38900756836</ele>
        <time>2009-08-08T13:24:12Z</time>
      </trkpt>
      <trkpt lat="45.12604" lon="5.35305">
        <ele>301.04800415039</ele>
        <time>2009-08-08T13:24:24Z</time>
      </trkpt>
      <trkpt lat="45.1261" lon="5.35352">
        <ele>303.97698974609</ele>
        <time>2009-08-08T13:24:36Z</time>
      </trkpt>
      <trkpt lat="45.12643" lon="5.35394">
        <ele>307.15200805664</ele>
        <time>2009-08-08T13:24:51Z</time>
      </trkpt>
      <trkpt lat="45.12665" lon="5.35453">
        <ele>310.64001464844</ele>
        <time>2009-08-08T13:25:07Z</time>
      </trkpt>
      <trkpt lat="45.1268" lon="5.35494">
        <ele>313.32901000977</ele>
        <time>2009-08-08T13:25:19Z</time>
      </trkpt>
      <trkpt lat="45.12692" lon="5.35541">
        <ele>315.80499267578</ele>
        <time>2009-08-08T13:25:31Z</time>
      </trkpt>
      <trkpt lat="45.127" lon="5.35589">
        <ele>318.65701293945</ele>
        <time>2009-08-08T13:25:45Z</time>
      </trkpt>
      <trkpt lat="45.12693" lon="5.35624">
        <ele>321.85299682617</ele>
        <time>2009-08-08T13:25:57Z</time>
      </trkpt>
      <trkpt lat="45.12662" lon="5.35657">
        <ele>324.59698486328</ele>
        <time>2009-08-08T13:26:10Z</time>
      </trkpt>
      <trkpt lat="45.12645" lon="5.35689">
        <ele>327.45401000977</ele>
        <time>2009-08-08T13:26:19Z</time>
      </trkpt>
      <trkpt lat="45.12618" lon="5.35734">
        <ele>330.37899780273</ele>
        <time>2009-08-08T13:26:32Z</time>
      </trkpt>
      <trkpt lat="45.1261" lon="5.35783">
        <ele>333.48098754883</ele>
        <time>2009-08-08T13:26:45Z</time>
      </trkpt>
      <trkpt lat="45.12598" lon="5.35824">
        <ele>335.98498535156</ele>
        <time>2009-08-08T13:26:57Z</time>
      </trkpt>
      <trkpt lat="45.12588" lon="5.35871">
        <ele>338.69299316406</ele>
        <time>2009-08-08T13:27:11Z</time>
      </trkpt>
      <trkpt lat="45.12555" lon="5.35899">
        <ele>342.42300415039</ele>
        <time>2009-08-08T13:27:27Z</time>
      </trkpt>
      <trkpt lat="45.12517" lon="5.35904">
        <ele>345.36199951172</ele>
        <time>2009-08-08T13:27:41Z</time>
      </trkpt>
      <trkpt lat="45.12463" lon="5.35912">
        <ele>349.79598999023</ele>
        <time>2009-08-08T13:27:58Z</time>
      </trkpt>
      <trkpt lat="45.124" lon="5.35923">
        <ele>353.86999511719</ele>
        <time>2009-08-08T13:28:18Z</time>
      </trkpt>
      <trkpt lat="45.12339" lon="5.35933">
        <ele>356.70700073242</ele>
        <time>2009-08-08T13:28:35Z</time>
      </trkpt>
      <trkpt lat="45.12258" lon="5.35946">
        <ele>360.96798706055</ele>
        <time>2009-08-08T13:28:56Z</time>
      </trkpt>
      <trkpt lat="45.12181" lon="5.35969">
        <ele>365.08099365234</ele>
        <time>2009-08-08T13:29:17Z</time>
      </trkpt>
      <trkpt lat="45.12138" lon="5.36023">
        <ele>368.12899780273</ele>
        <time>2009-08-08T13:29:32Z</time>
      </trkpt>
      <trkpt lat="45.12132" lon="5.36037">
        <ele>368</ele>
        <time>2009-08-08T13:29:35Z</time>
      </trkpt>
      <trkpt lat="45.12119" lon="5.3607">
        <ele>368.89898681641</ele>
        <time>2009-08-08T13:29:41Z</time>
      </trkpt>
      <trkpt lat="45.12108" lon="5.36131">
        <ele>371.00399780273</ele>
        <time>2009-08-08T13:29:52Z</time>
      </trkpt>
      <trkpt lat="45.12107" lon="5.36142">
        <ele>371.9280090332</ele>
        <time>2009-08-08T13:29:54Z</time>
      </trkpt>
      <trkpt lat="45.121" lon="5.36163">
        <ele>372.26300048828</ele>
        <time>2009-08-08T13:29:58Z</time>
      </trkpt>
      <trkpt lat="45.12094" lon="5.36172">
        <ele>372.73599243164</ele>
        <time>2009-08-08T13:30:00Z</time>
      </trkpt>
      <trkpt lat="45.12069" lon="5.36223">
        <ele>374.66000366211</ele>
        <time>2009-08-08T13:30:11Z</time>
      </trkpt>
      <trkpt lat="45.12061" lon="5.36243">
        <ele>375.43099975586</ele>
        <time>2009-08-08T13:30:15Z</time>
      </trkpt>
      <trkpt lat="45.12058" lon="5.36333">
        <ele>378.67498779297</ele>
        <time>2009-08-08T13:30:31Z</time>
      </trkpt>
      <trkpt lat="45.12061" lon="5.36387">
        <ele>381.18899536133</ele>
        <time>2009-08-08T13:30:42Z</time>
      </trkpt>
      <trkpt lat="45.12051" lon="5.36474">
        <ele>384.00500488281</ele>
        <time>2009-08-08T13:30:59Z</time>
      </trkpt>
      <trkpt lat="45.12041" lon="5.36554">
        <ele>387.37701416016</ele>
        <time>2009-08-08T13:31:15Z</time>
      </trkpt>
      <trkpt lat="45.12044" lon="5.36574">
        <ele>388.90200805664</ele>
        <time>2009-08-08T13:31:19Z</time>
      </trkpt>
      <trkpt lat="45.12039" lon="5.36592">
        <ele>389.1549987793</ele>
        <time>2009-08-08T13:31:24Z</time>
      </trkpt>
      <trkpt lat="45.12025" lon="5.36581">
        <ele>391.00100708008</ele>
        <time>2009-08-08T13:31:30Z</time>
      </trkpt>
      <trkpt lat="45.12002" lon="5.36548">
        <ele>393.53799438477</ele>
        <time>2009-08-08T13:31:44Z</time>
      </trkpt>
      <trkpt lat="45.11964" lon="5.36489">
        <ele>398.81100463867</ele>
        <time>2009-08-08T13:32:04Z</time>
      </trkpt>
      <trkpt lat="45.1193" lon="5.36455">
        <ele>402.3330078125</ele>
        <time>2009-08-08T13:32:19Z</time>
      </trkpt>
      <trkpt lat="45.11887" lon="5.36441">
        <ele>407.9469909668</ele>
        <time>2009-08-08T13:32:35Z</time>
      </trkpt>
      <trkpt lat="45.11848" lon="5.36427">
        <ele>411.17700195312</ele>
        <time>2009-08-08T13:32:51Z</time>
      </trkpt>
      <trkpt lat="45.11797" lon="5.36409">
        <ele>416.08599853516</ele>
        <time>2009-08-08T13:33:10Z</time>
      </trkpt>
      <trkpt lat="45.1175" lon="5.364">
        <ele>420.85699462891</ele>
        <time>2009-08-08T13:33:28Z</time>
      </trkpt>
      <trkpt lat="45.11699" lon="5.36392">
        <ele>425.44100952148</ele>
        <time>2009-08-08T13:33:46Z</time>
      </trkpt>
      <trkpt lat="45.11649" lon="5.36375">
        <ele>430.96499633789</ele>
        <time>2009-08-08T13:34:05Z</time>
      </trkpt>
      <trkpt lat="45.1161" lon="5.36374">
        <ele>434.85198974609</ele>
        <time>2009-08-08T13:34:20Z</time>
      </trkpt>
      <trkpt lat="45.11579" lon="5.36401">
        <ele>438.30200195312</ele>
        <time>2009-08-08T13:34:35Z</time>
      </trkpt>
      <trkpt lat="45.1156" lon="5.36427">
        <ele>441.10800170898</ele>
        <time>2009-08-08T13:34:48Z</time>
      </trkpt>
      <trkpt lat="45.11546" lon="5.36451">
        <ele>444.13101196289</ele>
        <time>2009-08-08T13:35:00Z</time>
      </trkpt>
      <trkpt lat="45.11542" lon="5.36456">
        <ele>444.53100585938</ele>
        <time>2009-08-08T13:35:03Z</time>
      </trkpt>
      <trkpt lat="45.11524" lon="5.36487">
        <ele>447.28201293945</ele>
        <time>2009-08-08T13:35:16Z</time>
      </trkpt>
      <trkpt lat="45.11499" lon="5.36506">
        <ele>450.94299316406</ele>
        <time>2009-08-08T13:35:31Z</time>
      </trkpt>
      <trkpt lat="45.11494" lon="5.36507">
        <ele>451.44000244141</ele>
        <time>2009-08-08T13:35:33Z</time>
      </trkpt>
      <trkpt lat="45.11465" lon="5.36538">
        <ele>454.75900268555</ele>
        <time>2009-08-08T13:35:51Z</time>
      </trkpt>
      <trkpt lat="45.11461" lon="5.36543">
        <ele>455.63598632812</ele>
        <time>2009-08-08T13:35:54Z</time>
      </trkpt>
      <trkpt lat="45.11436" lon="5.36554">
        <ele>457.5719909668</ele>
        <time>2009-08-08T13:36:09Z</time>
      </trkpt>
      <trkpt lat="45.11399" lon="5.36559">
        <ele>461.16000366211</ele>
        <time>2009-08-08T13:36:26Z</time>
      </trkpt>
      <trkpt lat="45.11378" lon="5.36554">
        <ele>463.14999389648</ele>
        <time>2009-08-08T13:36:36Z</time>
      </trkpt>
      <trkpt lat="45.11382" lon="5.36576">
        <ele>464.79098510742</ele>
        <time>2009-08-08T13:36:46Z</time>
      </trkpt>
      <trkpt lat="45.11419" lon="5.36589">
        <ele>467.30599975586</ele>
        <time>2009-08-08T13:37:01Z</time>
      </trkpt>
      <trkpt lat="45.1145" lon="5.36585">
        <ele>470.98199462891</ele>
        <time>2009-08-08T13:37:14Z</time>
      </trkpt>
      <trkpt lat="45.11452" lon="5.36585">
        <ele>471.20001220703</ele>
        <time>2009-08-08T13:37:15Z</time>
      </trkpt>
      <trkpt lat="45.1146" lon="5.36588">
        <ele>472.3330078125</ele>
        <time>2009-08-08T13:37:20Z</time>
      </trkpt>
      <trkpt lat="45.11478" lon="5.36592">
        <ele>474.17098999023</ele>
        <time>2009-08-08T13:37:30Z</time>
      </trkpt>
      <trkpt lat="45.11491" lon="5.36594">
        <ele>475.3450012207</ele>
        <time>2009-08-08T13:37:37Z</time>
      </trkpt>
      <trkpt lat="45.11516" lon="5.36585">
        <ele>478.20901489258</ele>
        <time>2009-08-08T13:37:50Z</time>
      </trkpt>
      <trkpt lat="45.11538" lon="5.36564">
        <ele>480.70901489258</ele>
        <time>2009-08-08T13:38:04Z</time>
      </trkpt>
      <trkpt lat="45.11546" lon="5.36558">
        <ele>481.76599121094</ele>
        <time>2009-08-08T13:38:09Z</time>
      </trkpt>
      <trkpt lat="45.11558" lon="5.36549">
        <ele>483.74200439453</ele>
        <time>2009-08-08T13:38:16Z</time>
      </trkpt>
      <trkpt lat="45.11587" lon="5.36545">
        <ele>486.29098510742</ele>
        <time>2009-08-08T13:38:32Z</time>
      </trkpt>
      <trkpt lat="45.11614" lon="5.36566">
        <ele>489.57800292969</ele>
        <time>2009-08-08T13:38:47Z</time>
      </trkpt>
      <trkpt lat="45.11636" lon="5.36597">
        <ele>492.59899902344</ele>
        <time>2009-08-08T13:39:01Z</time>
      </trkpt>
      <trkpt lat="45.11669" lon="5.36626">
        <ele>495.73098754883</ele>
        <time>2009-08-08T13:39:19Z</time>
      </trkpt>
      <trkpt lat="45.11692" lon="5.36645">
        <ele>498.97698974609</ele>
        <time>2009-08-08T13:39:32Z</time>
      </trkpt>
      <trkpt lat="45.11703" lon="5.36687">
        <ele>502.0419921875</ele>
        <time>2009-08-08T13:39:46Z</time>
      </trkpt>
      <trkpt lat="45.11705" lon="5.36706">
        <ele>503.43099975586</ele>
        <time>2009-08-08T13:39:52Z</time>
      </trkpt>
      <trkpt lat="45.11707" lon="5.36733">
        <ele>505.23999023438</ele>
        <time>2009-08-08T13:40:02Z</time>
      </trkpt>
      <trkpt lat="45.11719" lon="5.36773">
        <ele>507.73001098633</ele>
        <time>2009-08-08T13:40:18Z</time>
      </trkpt>
      <trkpt lat="45.11721" lon="5.36782">
        <ele>508.26400756836</ele>
        <time>2009-08-08T13:40:21Z</time>
      </trkpt>
      <trkpt lat="45.11711" lon="5.3678">
        <ele>510.39401245117</ele>
        <time>2009-08-08T13:40:31Z</time>
      </trkpt>
      <trkpt lat="45.1171" lon="5.36775">
        <ele>510.78799438477</ele>
        <time>2009-08-08T13:40:33Z</time>
      </trkpt>
      <trkpt lat="45.11701" lon="5.36756">
        <ele>511.56799316406</ele>
        <time>2009-08-08T13:40:41Z</time>
      </trkpt>
      <trkpt lat="45.11695" lon="5.36747">
        <ele>512.40399169922</ele>
        <time>2009-08-08T13:40:45Z</time>
      </trkpt>
      <trkpt lat="45.11666" lon="5.36707">
        <ele>516.91302490234</ele>
        <time>2009-08-08T13:41:04Z</time>
      </trkpt>
      <trkpt lat="45.11633" lon="5.36686">
        <ele>520.65899658203</ele>
        <time>2009-08-08T13:41:22Z</time>
      </trkpt>
      <trkpt lat="45.11596" lon="5.3667">
        <ele>524.51300048828</ele>
        <time>2009-08-08T13:41:40Z</time>
      </trkpt>
      <trkpt lat="45.11561" lon="5.36661">
        <ele>528.33099365234</ele>
        <time>2009-08-08T13:41:58Z</time>
      </trkpt>
      <trkpt lat="45.11532" lon="5.36655">
        <ele>531.78198242188</ele>
        <time>2009-08-08T13:42:12Z</time>
      </trkpt>
      <trkpt lat="45.11494" lon="5.3666">
        <ele>535.17199707031</ele>
        <time>2009-08-08T13:42:30Z</time>
      </trkpt>
      <trkpt lat="45.11466" lon="5.36677">
        <ele>538.43402099609</ele>
        <time>2009-08-08T13:42:44Z</time>
      </trkpt>
      <trkpt lat="45.11427" lon="5.36686">
        <ele>542.57202148438</ele>
        <time>2009-08-08T13:43:02Z</time>
      </trkpt>
      <trkpt lat="45.11403" lon="5.36727">
        <ele>546.26599121094</ele>
        <time>2009-08-08T13:43:17Z</time>
      </trkpt>
      <trkpt lat="45.11378" lon="5.36758">
        <ele>550.12799072266</ele>
        <time>2009-08-08T13:43:31Z</time>
      </trkpt>
      <trkpt lat="45.11356" lon="5.36775">
        <ele>552.94897460938</ele>
        <time>2009-08-08T13:43:45Z</time>
      </trkpt>
      <trkpt lat="45.11335" lon="5.36784">
        <ele>555.02301025391</ele>
        <time>2009-08-08T13:43:57Z</time>
      </trkpt>
      <trkpt lat="45.113" lon="5.3679">
        <ele>558.16802978516</ele>
        <time>2009-08-08T13:44:14Z</time>
      </trkpt>
      <trkpt lat="45.11282" lon="5.36811">
        <ele>561.31896972656</ele>
        <time>2009-08-08T13:44:30Z</time>
      </trkpt>
      <trkpt lat="45.11282" lon="5.36844">
        <ele>563.89599609375</ele>
        <time>2009-08-08T13:44:45Z</time>
      </trkpt>
      <trkpt lat="45.11281" lon="5.36854">
        <ele>565.01300048828</ele>
        <time>2009-08-08T13:44:49Z</time>
      </trkpt>
      <trkpt lat="45.11282" lon="5.3688">
        <ele>566.80200195312</ele>
        <time>2009-08-08T13:44:59Z</time>
      </trkpt>
      <trkpt lat="45.11283" lon="5.36919">
        <ele>569.89599609375</ele>
        <time>2009-08-08T13:45:13Z</time>
      </trkpt>
      <trkpt lat="45.11283" lon="5.36972">
        <ele>572.70697021484</ele>
        <time>2009-08-08T13:45:29Z</time>
      </trkpt>
      <trkpt lat="45.1128" lon="5.37025">
        <ele>575.94097900391</ele>
        <time>2009-08-08T13:45:45Z</time>
      </trkpt>
      <trkpt lat="45.11281" lon="5.37027">
        <ele>575.91101074219</ele>
        <time>2009-08-08T13:45:47Z</time>
      </trkpt>
      <trkpt lat="45.11283" lon="5.37034">
        <ele>576.88500976562</ele>
        <time>2009-08-08T13:46:19Z</time>
      </trkpt>
      <trkpt lat="45.11281" lon="5.37041">
        <ele>577.24200439453</ele>
        <time>2009-08-08T13:46:23Z</time>
      </trkpt>
      <trkpt lat="45.1128" lon="5.3705">
        <ele>577.52099609375</ele>
        <time>2009-08-08T13:46:27Z</time>
      </trkpt>
      <trkpt lat="45.11287" lon="5.37104">
        <ele>580.45300292969</ele>
        <time>2009-08-08T13:46:42Z</time>
      </trkpt>
      <trkpt lat="45.11274" lon="5.37158">
        <ele>582.91497802734</ele>
        <time>2009-08-08T13:46:58Z</time>
      </trkpt>
      <trkpt lat="45.11259" lon="5.3722">
        <ele>586.03997802734</ele>
        <time>2009-08-08T13:47:18Z</time>
      </trkpt>
      <trkpt lat="45.1125" lon="5.3727">
        <ele>588.70001220703</ele>
        <time>2009-08-08T13:47:34Z</time>
      </trkpt>
      <trkpt lat="45.11248" lon="5.37296">
        <ele>589.90002441406</ele>
        <time>2009-08-08T13:47:42Z</time>
      </trkpt>
      <trkpt lat="45.11263" lon="5.37288">
        <ele>590.12902832031</ele>
        <time>2009-08-08T13:47:51Z</time>
      </trkpt>
      <trkpt lat="45.11263" lon="5.37281">
        <ele>590.60498046875</ele>
        <time>2009-08-08T13:47:53Z</time>
      </trkpt>
      <trkpt lat="45.1127" lon="5.37227">
        <ele>592.93200683594</ele>
        <time>2009-08-08T13:48:08Z</time>
      </trkpt>
      <trkpt lat="45.11285" lon="5.37186">
        <ele>595.375</ele>
        <time>2009-08-08T13:48:22Z</time>
      </trkpt>
      <trkpt lat="45.11305" lon="5.37141">
        <ele>598.40899658203</ele>
        <time>2009-08-08T13:48:38Z</time>
      </trkpt>
      <trkpt lat="45.11314" lon="5.3709">
        <ele>601.34802246094</ele>
        <time>2009-08-08T13:48:54Z</time>
      </trkpt>
      <trkpt lat="45.11319" lon="5.37041">
        <ele>604.875</ele>
        <time>2009-08-08T13:49:09Z</time>
      </trkpt>
      <trkpt lat="45.11332" lon="5.36981">
        <ele>609.07598876953</ele>
        <time>2009-08-08T13:49:27Z</time>
      </trkpt>
      <trkpt lat="45.11341" lon="5.36997">
        <ele>610.85699462891</ele>
        <time>2009-08-08T13:49:35Z</time>
      </trkpt>
      <trkpt lat="45.11329" lon="5.37057">
        <ele>614.23602294922</ele>
        <time>2009-08-08T13:49:52Z</time>
      </trkpt>
      <trkpt lat="45.11333" lon="5.371">
        <ele>616.44000244141</ele>
        <time>2009-08-08T13:50:06Z</time>
      </trkpt>
      <trkpt lat="45.11335" lon="5.37139">
        <ele>618.86199951172</ele>
        <time>2009-08-08T13:50:19Z</time>
      </trkpt>
      <trkpt lat="45.11319" lon="5.37185">
        <ele>621.70300292969</ele>
        <time>2009-08-08T13:50:35Z</time>
      </trkpt>
      <trkpt lat="45.11313" lon="5.37227">
        <ele>624.11199951172</ele>
        <time>2009-08-08T13:50:51Z</time>
      </trkpt>
      <trkpt lat="45.11312" lon="5.37274">
        <ele>627.05200195312</ele>
        <time>2009-08-08T13:51:07Z</time>
      </trkpt>
      <trkpt lat="45.11313" lon="5.37289">
        <ele>628.50799560547</ele>
        <time>2009-08-08T13:51:12Z</time>
      </trkpt>
      <trkpt lat="45.11314" lon="5.37329">
        <ele>630.93200683594</ele>
        <time>2009-08-08T13:51:27Z</time>
      </trkpt>
      <trkpt lat="45.11318" lon="5.37379">
        <ele>634.25897216797</ele>
        <time>2009-08-08T13:51:44Z</time>
      </trkpt>
      <trkpt lat="45.1133" lon="5.37414">
        <ele>636.76300048828</ele>
        <time>2009-08-08T13:51:57Z</time>
      </trkpt>
      <trkpt lat="45.11335" lon="5.37447">
        <ele>638.94500732422</ele>
        <time>2009-08-08T13:52:09Z</time>
      </trkpt>
      <trkpt lat="45.11344" lon="5.37482">
        <ele>641.91900634766</ele>
        <time>2009-08-08T13:52:23Z</time>
      </trkpt>
      <trkpt lat="45.11351" lon="5.37512">
        <ele>644.22399902344</ele>
        <time>2009-08-08T13:52:35Z</time>
      </trkpt>
      <trkpt lat="45.11359" lon="5.37554">
        <ele>647.0009765625</ele>
        <time>2009-08-08T13:52:52Z</time>
      </trkpt>
      <trkpt lat="45.11372" lon="5.37593">
        <ele>650.09100341797</ele>
        <time>2009-08-08T13:53:08Z</time>
      </trkpt>
      <trkpt lat="45.11372" lon="5.37596">
        <ele>650.16802978516</ele>
        <time>2009-08-08T13:53:09Z</time>
      </trkpt>
      <trkpt lat="45.11383" lon="5.37632">
        <ele>652.85198974609</ele>
        <time>2009-08-08T13:53:23Z</time>
      </trkpt>
      <trkpt lat="45.11383" lon="5.3764">
        <ele>653.42602539062</ele>
        <time>2009-08-08T13:53:27Z</time>
      </trkpt>
      <trkpt lat="45.11383" lon="5.37659">
        <ele>655.26898193359</ele>
        <time>2009-08-08T13:53:35Z</time>
      </trkpt>
      <trkpt lat="45.11373" lon="5.3769">
        <ele>657.51599121094</ele>
        <time>2009-08-08T13:53:49Z</time>
      </trkpt>
      <trkpt lat="45.11348" lon="5.37712">
        <ele>660.58001708984</ele>
        <time>2009-08-08T13:54:04Z</time>
      </trkpt>
      <trkpt lat="45.11322" lon="5.37737">
        <ele>663.48400878906</ele>
        <time>2009-08-08T13:54:20Z</time>
      </trkpt>
      <trkpt lat="45.113" lon="5.37749">
        <ele>666.28601074219</ele>
        <time>2009-08-08T13:54:33Z</time>
      </trkpt>
      <trkpt lat="45.11294" lon="5.37748">
        <ele>666.93200683594</ele>
        <time>2009-08-08T13:54:37Z</time>
      </trkpt>
      <trkpt lat="45.11278" lon="5.37749">
        <ele>669.05798339844</ele>
        <time>2009-08-08T13:54:48Z</time>
      </trkpt>
      <trkpt lat="45.11269" lon="5.3775">
        <ele>670.21600341797</ele>
        <time>2009-08-08T13:54:54Z</time>
      </trkpt>
      <trkpt lat="45.11264" lon="5.37751">
        <ele>670.76300048828</ele>
        <time>2009-08-08T13:54:58Z</time>
      </trkpt>
      <trkpt lat="45.11255" lon="5.37754">
        <ele>671.75</ele>
        <time>2009-08-08T13:55:03Z</time>
      </trkpt>
      <trkpt lat="45.11247" lon="5.37755">
        <ele>672.54901123047</ele>
        <time>2009-08-08T13:55:07Z</time>
      </trkpt>
      <trkpt lat="45.11217" lon="5.37762">
        <ele>675.03997802734</ele>
        <time>2009-08-08T13:55:24Z</time>
      </trkpt>
      <trkpt lat="45.11206" lon="5.37764">
        <ele>676.39398193359</ele>
        <time>2009-08-08T13:55:31Z</time>
      </trkpt>
      <trkpt lat="45.112" lon="5.37765">
        <ele>677.32000732422</ele>
        <time>2009-08-08T13:55:35Z</time>
      </trkpt>
      <trkpt lat="45.11172" lon="5.37776">
        <ele>680.76599121094</ele>
        <time>2009-08-08T13:55:52Z</time>
      </trkpt>
      <trkpt lat="45.11152" lon="5.37797">
        <ele>682.85900878906</ele>
        <time>2009-08-08T13:56:05Z</time>
      </trkpt>
      <trkpt lat="45.11148" lon="5.37804">
        <ele>684.1259765625</ele>
        <time>2009-08-08T13:56:08Z</time>
      </trkpt>
      <trkpt lat="45.11136" lon="5.37846">
        <ele>687.31597900391</ele>
        <time>2009-08-08T13:56:24Z</time>
      </trkpt>
      <trkpt lat="45.11118" lon="5.37885">
        <ele>690.78997802734</ele>
        <time>2009-08-08T13:56:40Z</time>
      </trkpt>
      <trkpt lat="45.11117" lon="5.37887">
        <ele>690.82397460938</ele>
        <time>2009-08-08T13:56:41Z</time>
      </trkpt>
      <trkpt lat="45.11126" lon="5.37919">
        <ele>694.19299316406</ele>
        <time>2009-08-08T13:56:54Z</time>
      </trkpt>
      <trkpt lat="45.11153" lon="5.37938">
        <ele>697.50897216797</ele>
        <time>2009-08-08T13:57:09Z</time>
      </trkpt>
      <trkpt lat="45.11178" lon="5.37957">
        <ele>700.43597412109</ele>
        <time>2009-08-08T13:57:23Z</time>
      </trkpt>
      <trkpt lat="45.11202" lon="5.37983">
        <ele>702.98297119141</ele>
        <time>2009-08-08T13:57:38Z</time>
      </trkpt>
      <trkpt lat="45.11213" lon="5.38031">
        <ele>706.10101318359</ele>
        <time>2009-08-08T13:57:57Z</time>
      </trkpt>
      <trkpt lat="45.11196" lon="5.38068">
        <ele>709.51599121094</ele>
        <time>2009-08-08T13:58:13Z</time>
      </trkpt>
      <trkpt lat="45.11176" lon="5.38104">
        <ele>712.40002441406</ele>
        <time>2009-08-08T13:58:29Z</time>
      </trkpt>
      <trkpt lat="45.11168" lon="5.38139">
        <ele>715.38598632812</ele>
        <time>2009-08-08T13:58:43Z</time>
      </trkpt>
      <trkpt lat="45.1116" lon="5.38183">
        <ele>718.55200195312</ele>
        <time>2009-08-08T13:58:59Z</time>
      </trkpt>
      <trkpt lat="45.11141" lon="5.38209">
        <ele>721.26397705078</ele>
        <time>2009-08-08T13:59:14Z</time>
      </trkpt>
      <trkpt lat="45.11123" lon="5.38223">
        <ele>723.68701171875</ele>
        <time>2009-08-08T13:59:26Z</time>
      </trkpt>
      <trkpt lat="45.11116" lon="5.38237">
        <ele>725.23199462891</ele>
        <time>2009-08-08T13:59:34Z</time>
      </trkpt>
      <trkpt lat="45.11105" lon="5.3827">
        <ele>727.96197509766</ele>
        <time>2009-08-08T13:59:49Z</time>
      </trkpt>
      <trkpt lat="45.11099" lon="5.38292">
        <ele>729.70397949219</ele>
        <time>2009-08-08T13:59:59Z</time>
      </trkpt>
      <trkpt lat="45.11105" lon="5.38328">
        <ele>732.6240234375</ele>
        <time>2009-08-08T14:00:15Z</time>
      </trkpt>
      <trkpt lat="45.11121" lon="5.38365">
        <ele>735.81402587891</ele>
        <time>2009-08-08T14:00:30Z</time>
      </trkpt>
      <trkpt lat="45.11128" lon="5.38345">
        <ele>736.57501220703</ele>
        <time>2009-08-08T14:00:39Z</time>
      </trkpt>
      <trkpt lat="45.11123" lon="5.38318">
        <ele>738.54602050781</ele>
        <time>2009-08-08T14:00:48Z</time>
      </trkpt>
      <trkpt lat="45.11125" lon="5.38302">
        <ele>739.30902099609</ele>
        <time>2009-08-08T14:00:54Z</time>
      </trkpt>
      <trkpt lat="45.11154" lon="5.38266">
        <ele>742.69097900391</ele>
        <time>2009-08-08T14:01:13Z</time>
      </trkpt>
      <trkpt lat="45.11175" lon="5.38267">
        <ele>744.60400390625</ele>
        <time>2009-08-08T14:01:24Z</time>
      </trkpt>
      <trkpt lat="45.1118" lon="5.3827">
        <ele>744.97698974609</ele>
        <time>2009-08-08T14:01:27Z</time>
      </trkpt>
      <trkpt lat="45.11204" lon="5.38275">
        <ele>747.31500244141</ele>
        <time>2009-08-08T14:01:39Z</time>
      </trkpt>
      <trkpt lat="45.11216" lon="5.38268">
        <ele>748.00299072266</ele>
        <time>2009-08-08T14:01:46Z</time>
      </trkpt>
      <trkpt lat="45.11221" lon="5.3825">
        <ele>749.46197509766</ele>
        <time>2009-08-08T14:01:54Z</time>
      </trkpt>
      <trkpt lat="45.11226" lon="5.38201">
        <ele>752.33099365234</ele>
        <time>2009-08-08T14:02:12Z</time>
      </trkpt>
      <trkpt lat="45.11232" lon="5.38172">
        <ele>754.30700683594</ele>
        <time>2009-08-08T14:02:23Z</time>
      </trkpt>
      <trkpt lat="45.11237" lon="5.38164">
        <ele>754.78399658203</ele>
        <time>2009-08-08T14:02:27Z</time>
      </trkpt>
      <trkpt lat="45.11258" lon="5.38125">
        <ele>758.08898925781</ele>
        <time>2009-08-08T14:02:46Z</time>
      </trkpt>
      <trkpt lat="45.11292" lon="5.38095">
        <ele>761.39202880859</ele>
        <time>2009-08-08T14:03:06Z</time>
      </trkpt>
      <trkpt lat="45.11298" lon="5.38045">
        <ele>764.67602539062</ele>
        <time>2009-08-08T14:03:23Z</time>
      </trkpt>
      <trkpt lat="45.11317" lon="5.38018">
        <ele>766.60601806641</ele>
        <time>2009-08-08T14:03:38Z</time>
      </trkpt>
      <trkpt lat="45.11324" lon="5.37981">
        <ele>769.82202148438</ele>
        <time>2009-08-08T14:03:52Z</time>
      </trkpt>
      <trkpt lat="45.11343" lon="5.37961">
        <ele>772.05297851562</ele>
        <time>2009-08-08T14:04:06Z</time>
      </trkpt>
      <trkpt lat="45.11369" lon="5.37952">
        <ele>774.51300048828</ele>
        <time>2009-08-08T14:04:21Z</time>
      </trkpt>
      <trkpt lat="45.11397" lon="5.3794">
        <ele>776.93597412109</ele>
        <time>2009-08-08T14:04:36Z</time>
      </trkpt>
      <trkpt lat="45.1142" lon="5.37931">
        <ele>779.60699462891</ele>
        <time>2009-08-08T14:04:50Z</time>
      </trkpt>
      <trkpt lat="45.11422" lon="5.37931">
        <ele>779.68402099609</ele>
        <time>2009-08-08T14:04:51Z</time>
      </trkpt>
      <trkpt lat="45.11457" lon="5.37919">
        <ele>782.80297851562</ele>
        <time>2009-08-08T14:05:09Z</time>
      </trkpt>
      <trkpt lat="45.11493" lon="5.37908">
        <ele>786.67700195312</ele>
        <time>2009-08-08T14:05:27Z</time>
      </trkpt>
      <trkpt lat="45.11522" lon="5.3789">
        <ele>789.57501220703</ele>
        <time>2009-08-08T14:05:42Z</time>
      </trkpt>
      <trkpt lat="45.11554" lon="5.37846">
        <ele>792.18701171875</ele>
        <time>2009-08-08T14:06:00Z</time>
      </trkpt>
      <trkpt lat="45.1157" lon="5.37863">
        <ele>794.6669921875</ele>
        <time>2009-08-08T14:06:11Z</time>
      </trkpt>
      <trkpt lat="45.11559" lon="5.37903">
        <ele>797.38098144531</ele>
        <time>2009-08-08T14:06:26Z</time>
      </trkpt>
      <trkpt lat="45.11551" lon="5.37938">
        <ele>799.93402099609</ele>
        <time>2009-08-08T14:06:39Z</time>
      </trkpt>
      <trkpt lat="45.11567" lon="5.37963">
        <ele>802.76202392578</ele>
        <time>2009-08-08T14:06:52Z</time>
      </trkpt>
      <trkpt lat="45.11569" lon="5.37964">
        <ele>803.21899414062</ele>
        <time>2009-08-08T14:06:53Z</time>
      </trkpt>
      <trkpt lat="45.11593" lon="5.37961">
        <ele>805.89898681641</ele>
        <time>2009-08-08T14:07:05Z</time>
      </trkpt>
      <trkpt lat="45.11623" lon="5.37944">
        <ele>808.88500976562</ele>
        <time>2009-08-08T14:07:21Z</time>
      </trkpt>
      <trkpt lat="45.11646" lon="5.37922">
        <ele>812.95397949219</ele>
        <time>2009-08-08T14:07:36Z</time>
      </trkpt>
      <trkpt lat="45.11648" lon="5.37938">
        <ele>815.19598388672</ele>
        <time>2009-08-08T14:07:45Z</time>
      </trkpt>
      <trkpt lat="45.11632" lon="5.3797">
        <ele>816.16101074219</ele>
        <time>2009-08-08T14:08:00Z</time>
      </trkpt>
      <trkpt lat="45.11615" lon="5.38002">
        <ele>818.98101806641</ele>
        <time>2009-08-08T14:08:15Z</time>
      </trkpt>
      <trkpt lat="45.11588" lon="5.38031">
        <ele>822.27697753906</ele>
        <time>2009-08-08T14:08:33Z</time>
      </trkpt>
      <trkpt lat="45.1156" lon="5.38057">
        <ele>825.96502685547</ele>
        <time>2009-08-08T14:08:51Z</time>
      </trkpt>
      <trkpt lat="45.11534" lon="5.38083">
        <ele>829.69598388672</ele>
        <time>2009-08-08T14:09:08Z</time>
      </trkpt>
      <trkpt lat="45.11507" lon="5.38108">
        <ele>833.30499267578</ele>
        <time>2009-08-08T14:09:25Z</time>
      </trkpt>
      <trkpt lat="45.11486" lon="5.38135">
        <ele>836.02301025391</ele>
        <time>2009-08-08T14:09:41Z</time>
      </trkpt>
      <trkpt lat="45.11483" lon="5.38139">
        <ele>836.43701171875</ele>
        <time>2009-08-08T14:09:43Z</time>
      </trkpt>
      <trkpt lat="45.11478" lon="5.38148">
        <ele>837.54602050781</ele>
        <time>2009-08-08T14:09:48Z</time>
      </trkpt>
      <trkpt lat="45.11469" lon="5.38186">
        <ele>840.00701904297</ele>
        <time>2009-08-08T14:10:04Z</time>
      </trkpt>
      <trkpt lat="45.11462" lon="5.3822">
        <ele>842.46301269531</ele>
        <time>2009-08-08T14:10:19Z</time>
      </trkpt>
      <trkpt lat="45.11457" lon="5.38246">
        <ele>844.38500976562</ele>
        <time>2009-08-08T14:10:30Z</time>
      </trkpt>
      <trkpt lat="45.11449" lon="5.38297">
        <ele>849.18402099609</ele>
        <time>2009-08-08T14:10:49Z</time>
      </trkpt>
      <trkpt lat="45.1144" lon="5.3832">
        <ele>851.71197509766</ele>
        <time>2009-08-08T14:11:00Z</time>
      </trkpt>
      <trkpt lat="45.11417" lon="5.38303">
        <ele>854.54602050781</ele>
        <time>2009-08-08T14:11:14Z</time>
      </trkpt>
      <trkpt lat="45.11398" lon="5.38307">
        <ele>857.13702392578</ele>
        <time>2009-08-08T14:11:24Z</time>
      </trkpt>
      <trkpt lat="45.11397" lon="5.38315">
        <ele>857.79797363281</ele>
        <time>2009-08-08T14:11:27Z</time>
      </trkpt>
      <trkpt lat="45.11393" lon="5.38349">
        <ele>859.8740234375</ele>
        <time>2009-08-08T14:11:42Z</time>
      </trkpt>
      <trkpt lat="45.1139" lon="5.38361">
        <ele>861.01397705078</ele>
        <time>2009-08-08T14:11:48Z</time>
      </trkpt>
      <trkpt lat="45.11388" lon="5.38369">
        <ele>861.40502929688</ele>
        <time>2009-08-08T14:11:52Z</time>
      </trkpt>
      <trkpt lat="45.11377" lon="5.38396">
        <ele>863.40197753906</ele>
        <time>2009-08-08T14:12:05Z</time>
      </trkpt>
      <trkpt lat="45.11366" lon="5.38423">
        <ele>866.04797363281</ele>
        <time>2009-08-08T14:12:18Z</time>
      </trkpt>
      <trkpt lat="45.11362" lon="5.38444">
        <ele>867.79498291016</ele>
        <time>2009-08-08T14:12:27Z</time>
      </trkpt>
      <trkpt lat="45.11368" lon="5.38477">
        <ele>870.18200683594</ele>
        <time>2009-08-08T14:12:41Z</time>
      </trkpt>
      <trkpt lat="45.1138" lon="5.38509">
        <ele>872.88299560547</ele>
        <time>2009-08-08T14:12:54Z</time>
      </trkpt>
      <trkpt lat="45.11394" lon="5.38552">
        <ele>877.28497314453</ele>
        <time>2009-08-08T14:13:11Z</time>
      </trkpt>
      <trkpt lat="45.11411" lon="5.386">
        <ele>881.2490234375</ele>
        <time>2009-08-08T14:13:30Z</time>
      </trkpt>
      <trkpt lat="45.11432" lon="5.38653">
        <ele>885.96002197266</ele>
        <time>2009-08-08T14:13:52Z</time>
      </trkpt>
      <trkpt lat="45.11448" lon="5.38688">
        <ele>889.11297607422</ele>
        <time>2009-08-08T14:14:08Z</time>
      </trkpt>
      <trkpt lat="45.11454" lon="5.38707">
        <ele>890.833984375</ele>
        <time>2009-08-08T14:14:17Z</time>
      </trkpt>
      <trkpt lat="45.1147" lon="5.38744">
        <ele>893.77099609375</ele>
        <time>2009-08-08T14:14:33Z</time>
      </trkpt>
      <trkpt lat="45.11483" lon="5.38787">
        <ele>896.89099121094</ele>
        <time>2009-08-08T14:14:50Z</time>
      </trkpt>
      <trkpt lat="45.11492" lon="5.38832">
        <ele>900.74597167969</ele>
        <time>2009-08-08T14:15:07Z</time>
      </trkpt>
      <trkpt lat="45.11496" lon="5.38882">
        <ele>903.75402832031</ele>
        <time>2009-08-08T14:15:24Z</time>
      </trkpt>
      <trkpt lat="45.11499" lon="5.38886">
        <ele>904.09002685547</ele>
        <time>2009-08-08T14:15:26Z</time>
      </trkpt>
      <trkpt lat="45.11507" lon="5.3888">
        <ele>904.91802978516</ele>
        <time>2009-08-08T14:15:31Z</time>
      </trkpt>
      <trkpt lat="45.11507" lon="5.38843">
        <ele>907.0419921875</ele>
        <time>2009-08-08T14:15:44Z</time>
      </trkpt>
      <trkpt lat="45.11508" lon="5.38806">
        <ele>909.67602539062</ele>
        <time>2009-08-08T14:15:58Z</time>
      </trkpt>
      <trkpt lat="45.11509" lon="5.38769">
        <ele>912.54498291016</ele>
        <time>2009-08-08T14:16:13Z</time>
      </trkpt>
      <trkpt lat="45.11509" lon="5.38733">
        <ele>915.39697265625</ele>
        <time>2009-08-08T14:16:28Z</time>
      </trkpt>
      <trkpt lat="45.11507" lon="5.38705">
        <ele>917.72198486328</ele>
        <time>2009-08-08T14:16:41Z</time>
      </trkpt>
      <trkpt lat="45.11511" lon="5.38688">
        <ele>919.04302978516</ele>
        <time>2009-08-08T14:16:49Z</time>
      </trkpt>
      <trkpt lat="45.11522" lon="5.38685">
        <ele>920.53198242188</ele>
        <time>2009-08-08T14:16:56Z</time>
      </trkpt>
      <trkpt lat="45.11531" lon="5.3869">
        <ele>921.85101318359</ele>
        <time>2009-08-08T14:17:02Z</time>
      </trkpt>
      <trkpt lat="45.11537" lon="5.38695">
        <ele>922.07397460938</ele>
        <time>2009-08-08T14:17:06Z</time>
      </trkpt>
      <trkpt lat="45.11549" lon="5.38704">
        <ele>923.94396972656</ele>
        <time>2009-08-08T14:17:13Z</time>
      </trkpt>
      <trkpt lat="45.11557" lon="5.38711">
        <ele>924.77899169922</ele>
        <time>2009-08-08T14:17:19Z</time>
      </trkpt>
      <trkpt lat="45.11569" lon="5.3872">
        <ele>926.35601806641</ele>
        <time>2009-08-08T14:17:27Z</time>
      </trkpt>
      <trkpt lat="45.1158" lon="5.38727">
        <ele>927.64599609375</ele>
        <time>2009-08-08T14:17:35Z</time>
      </trkpt>
      <trkpt lat="45.11592" lon="5.3873">
        <ele>928.85400390625</ele>
        <time>2009-08-08T14:17:43Z</time>
      </trkpt>
      <trkpt lat="45.11615" lon="5.38724">
        <ele>931.56298828125</ele>
        <time>2009-08-08T14:17:58Z</time>
      </trkpt>
      <trkpt lat="45.11629" lon="5.38704">
        <ele>933.39898681641</ele>
        <time>2009-08-08T14:18:11Z</time>
      </trkpt>
      <trkpt lat="45.11641" lon="5.38677">
        <ele>935.27801513672</ele>
        <time>2009-08-08T14:18:24Z</time>
      </trkpt>
      <trkpt lat="45.11651" lon="5.38649">
        <ele>937.86297607422</ele>
        <time>2009-08-08T14:18:37Z</time>
      </trkpt>
      <trkpt lat="45.11657" lon="5.38614">
        <ele>940.48400878906</ele>
        <time>2009-08-08T14:18:53Z</time>
      </trkpt>
      <trkpt lat="45.11657" lon="5.38598">
        <ele>941.73999023438</ele>
        <time>2009-08-08T14:19:00Z</time>
      </trkpt>
      <trkpt lat="45.11655" lon="5.38557">
        <ele>944.31298828125</ele>
        <time>2009-08-08T14:19:16Z</time>
      </trkpt>
      <trkpt lat="45.1166" lon="5.3855">
        <ele>944.791015625</ele>
        <time>2009-08-08T14:19:20Z</time>
      </trkpt>
      <trkpt lat="45.11665" lon="5.3857">
        <ele>946.45501708984</ele>
        <time>2009-08-08T14:19:29Z</time>
      </trkpt>
      <trkpt lat="45.11669" lon="5.3861">
        <ele>948.71997070312</ele>
        <time>2009-08-08T14:19:44Z</time>
      </trkpt>
      <trkpt lat="45.11674" lon="5.38652">
        <ele>951.72900390625</ele>
        <time>2009-08-08T14:20:00Z</time>
      </trkpt>
      <trkpt lat="45.11678" lon="5.38684">
        <ele>954.84002685547</ele>
        <time>2009-08-08T14:20:13Z</time>
      </trkpt>
      <trkpt lat="45.11682" lon="5.38719">
        <ele>957.34698486328</ele>
        <time>2009-08-08T14:20:27Z</time>
      </trkpt>
      <trkpt lat="45.11679" lon="5.38765">
        <ele>960.53302001953</ele>
        <time>2009-08-08T14:20:43Z</time>
      </trkpt>
      <trkpt lat="45.11668" lon="5.38815">
        <ele>964.21697998047</ele>
        <time>2009-08-08T14:21:01Z</time>
      </trkpt>
      <trkpt lat="45.11647" lon="5.38849">
        <ele>967.91400146484</ele>
        <time>2009-08-08T14:21:16Z</time>
      </trkpt>
      <trkpt lat="45.1163" lon="5.38888">
        <ele>970.47802734375</ele>
        <time>2009-08-08T14:21:30Z</time>
      </trkpt>
      <trkpt lat="45.11625" lon="5.38951">
        <ele>974.13702392578</ele>
        <time>2009-08-08T14:21:47Z</time>
      </trkpt>
      <trkpt lat="45.11613" lon="5.39004">
        <ele>976.80297851562</ele>
        <time>2009-08-08T14:22:00Z</time>
      </trkpt>
      <trkpt lat="45.11597" lon="5.39067">
        <ele>978.99597167969</ele>
        <time>2009-08-08T14:22:16Z</time>
      </trkpt>
      <trkpt lat="45.11594" lon="5.39134">
        <ele>982.50201416016</ele>
        <time>2009-08-08T14:22:32Z</time>
      </trkpt>
      <trkpt lat="45.11597" lon="5.39213">
        <ele>986.37097167969</ele>
        <time>2009-08-08T14:22:50Z</time>
      </trkpt>
      <trkpt lat="45.11605" lon="5.39289">
        <ele>989.19000244141</ele>
        <time>2009-08-08T14:23:07Z</time>
      </trkpt>
      <trkpt lat="45.11613" lon="5.39352">
        <ele>991.36297607422</ele>
        <time>2009-08-08T14:23:21Z</time>
      </trkpt>
      <trkpt lat="45.11624" lon="5.39419">
        <ele>994.58898925781</ele>
        <time>2009-08-08T14:23:36Z</time>
      </trkpt>
      <trkpt lat="45.11629" lon="5.39453">
        <ele>996.66302490234</ele>
        <time>2009-08-08T14:23:44Z</time>
      </trkpt>
      <trkpt lat="45.11639" lon="5.39528">
        <ele>1000.4340209961</ele>
        <time>2009-08-08T14:24:01Z</time>
      </trkpt>
      <trkpt lat="45.11638" lon="5.39595">
        <ele>1001.8140258789</ele>
        <time>2009-08-08T14:24:12Z</time>
      </trkpt>
      <trkpt lat="45.11626" lon="5.39706">
        <ele>1000.0599975586</ele>
        <time>2009-08-08T14:24:27Z</time>
      </trkpt>
      <trkpt lat="45.11626" lon="5.39716">
        <ele>999.90802001953</ele>
        <time>2009-08-08T14:24:28Z</time>
      </trkpt>
      <trkpt lat="45.11626" lon="5.39727">
        <ele>999.23901367188</ele>
        <time>2009-08-08T14:24:29Z</time>
      </trkpt>
      <trkpt lat="45.116" lon="5.39795">
        <ele>998.4169921875</ele>
        <time>2009-08-08T14:24:36Z</time>
      </trkpt>
      <trkpt lat="45.11567" lon="5.3984">
        <ele>997.791015625</ele>
        <time>2009-08-08T14:24:42Z</time>
      </trkpt>
      <trkpt lat="45.11556" lon="5.39884">
        <ele>995.77502441406</ele>
        <time>2009-08-08T14:24:46Z</time>
      </trkpt>
      <trkpt lat="45.11554" lon="5.39949">
        <ele>995.13397216797</ele>
        <time>2009-08-08T14:24:51Z</time>
      </trkpt>
      <trkpt lat="45.11558" lon="5.39989">
        <ele>995.07299804688</ele>
        <time>2009-08-08T14:24:58Z</time>
      </trkpt>
      <trkpt lat="45.11558" lon="5.3999">
        <ele>994.84899902344</ele>
        <time>2009-08-08T14:25:00Z</time>
      </trkpt>
      <trkpt lat="45.11528" lon="5.39977">
        <ele>994.39697265625</ele>
        <time>2009-08-08T14:28:37Z</time>
      </trkpt>
      <trkpt lat="45.11519" lon="5.39966">
        <ele>994.11401367188</ele>
        <time>2009-08-08T14:28:39Z</time>
      </trkpt>
      <trkpt lat="45.11501" lon="5.3994">
        <ele>995.93597412109</ele>
        <time>2009-08-08T14:28:44Z</time>
      </trkpt>
      <trkpt lat="45.11493" lon="5.3993">
        <ele>996.49798583984</ele>
        <time>2009-08-08T14:28:46Z</time>
      </trkpt>
      <trkpt lat="45.11456" lon="5.39907">
        <ele>997.46801757812</ele>
        <time>2009-08-08T14:28:54Z</time>
      </trkpt>
      <trkpt lat="45.1143" lon="5.39892">
        <ele>996.27099609375</ele>
        <time>2009-08-08T14:28:59Z</time>
      </trkpt>
      <trkpt lat="45.11408" lon="5.39872">
        <ele>994.55700683594</ele>
        <time>2009-08-08T14:29:03Z</time>
      </trkpt>
      <trkpt lat="45.11376" lon="5.39842">
        <ele>992.29602050781</ele>
        <time>2009-08-08T14:29:08Z</time>
      </trkpt>
      <trkpt lat="45.11367" lon="5.39841">
        <ele>991.91400146484</ele>
        <time>2009-08-08T14:29:09Z</time>
      </trkpt>
      <trkpt lat="45.11323" lon="5.39841">
        <ele>991.85302734375</ele>
        <time>2009-08-08T14:29:14Z</time>
      </trkpt>
      <trkpt lat="45.11299" lon="5.39852">
        <ele>988.49298095703</ele>
        <time>2009-08-08T14:29:17Z</time>
      </trkpt>
      <trkpt lat="45.11288" lon="5.39863">
        <ele>987.73901367188</ele>
        <time>2009-08-08T14:29:19Z</time>
      </trkpt>
      <trkpt lat="45.1124" lon="5.39884">
        <ele>985.35302734375</ele>
        <time>2009-08-08T14:29:27Z</time>
      </trkpt>
      <trkpt lat="45.11218" lon="5.3989">
        <ele>983.64202880859</ele>
        <time>2009-08-08T14:29:30Z</time>
      </trkpt>
      <trkpt lat="45.11153" lon="5.39864">
        <ele>979.875</ele>
        <time>2009-08-08T14:29:38Z</time>
      </trkpt>
      <trkpt lat="45.11138" lon="5.39852">
        <ele>978.86102294922</ele>
        <time>2009-08-08T14:29:40Z</time>
      </trkpt>
      <trkpt lat="45.1113" lon="5.39845">
        <ele>978.34197998047</ele>
        <time>2009-08-08T14:29:41Z</time>
      </trkpt>
      <trkpt lat="45.11095" lon="5.39829">
        <ele>975.96801757812</ele>
        <time>2009-08-08T14:29:45Z</time>
      </trkpt>
      <trkpt lat="45.11059" lon="5.39824">
        <ele>974.14398193359</ele>
        <time>2009-08-08T14:29:49Z</time>
      </trkpt>
      <trkpt lat="45.1105" lon="5.39822">
        <ele>973.71398925781</ele>
        <time>2009-08-08T14:29:50Z</time>
      </trkpt>
      <trkpt lat="45.11016" lon="5.39804">
        <ele>971.75402832031</ele>
        <time>2009-08-08T14:29:54Z</time>
      </trkpt>
      <trkpt lat="45.11" lon="5.39789">
        <ele>970.89599609375</ele>
        <time>2009-08-08T14:29:56Z</time>
      </trkpt>
      <trkpt lat="45.10965" lon="5.39741">
        <ele>967.81896972656</ele>
        <time>2009-08-08T14:30:01Z</time>
      </trkpt>
      <trkpt lat="45.10949" lon="5.39727">
        <ele>966.78002929688</ele>
        <time>2009-08-08T14:30:03Z</time>
      </trkpt>
      <trkpt lat="45.10932" lon="5.39724">
        <ele>966.03198242188</ele>
        <time>2009-08-08T14:30:05Z</time>
      </trkpt>
      <trkpt lat="45.10898" lon="5.39726">
        <ele>964.17999267578</ele>
        <time>2009-08-08T14:30:09Z</time>
      </trkpt>
      <trkpt lat="45.10881" lon="5.39727">
        <ele>962.72399902344</ele>
        <time>2009-08-08T14:30:11Z</time>
      </trkpt>
      <trkpt lat="45.1083" lon="5.39699">
        <ele>959.85498046875</ele>
        <time>2009-08-08T14:30:17Z</time>
      </trkpt>
      <trkpt lat="45.10804" lon="5.39686">
        <ele>958.28997802734</ele>
        <time>2009-08-08T14:30:20Z</time>
      </trkpt>
      <trkpt lat="45.10783" lon="5.39627">
        <ele>955.65197753906</ele>
        <time>2009-08-08T14:30:26Z</time>
      </trkpt>
      <trkpt lat="45.10786" lon="5.3959">
        <ele>954.24798583984</ele>
        <time>2009-08-08T14:30:29Z</time>
      </trkpt>
      <trkpt lat="45.1077" lon="5.39548">
        <ele>952.09301757812</ele>
        <time>2009-08-08T14:30:33Z</time>
      </trkpt>
      <trkpt lat="45.10749" lon="5.39522">
        <ele>950.66802978516</ele>
        <time>2009-08-08T14:30:36Z</time>
      </trkpt>
      <trkpt lat="45.10728" lon="5.39495">
        <ele>948.50201416016</ele>
        <time>2009-08-08T14:30:39Z</time>
      </trkpt>
      <trkpt lat="45.10718" lon="5.39458">
        <ele>946.17401123047</ele>
        <time>2009-08-08T14:30:42Z</time>
      </trkpt>
      <trkpt lat="45.10672" lon="5.39377">
        <ele>941.88702392578</ele>
        <time>2009-08-08T14:30:50Z</time>
      </trkpt>
      <trkpt lat="45.10665" lon="5.39366">
        <ele>941.54699707031</ele>
        <time>2009-08-08T14:30:51Z</time>
      </trkpt>
      <trkpt lat="45.10619" lon="5.39333">
        <ele>938.39501953125</ele>
        <time>2009-08-08T14:30:56Z</time>
      </trkpt>
      <trkpt lat="45.10598" lon="5.39326">
        <ele>937.61499023438</ele>
        <time>2009-08-08T14:30:58Z</time>
      </trkpt>
      <trkpt lat="45.10564" lon="5.393">
        <ele>935.46899414062</ele>
        <time>2009-08-08T14:31:02Z</time>
      </trkpt>
      <trkpt lat="45.10464" lon="5.39205">
        <ele>929.98101806641</ele>
        <time>2009-08-08T14:31:14Z</time>
      </trkpt>
      <trkpt lat="45.10456" lon="5.39197">
        <ele>929.19000244141</ele>
        <time>2009-08-08T14:31:15Z</time>
      </trkpt>
      <trkpt lat="45.1044" lon="5.39177">
        <ele>928.15698242188</ele>
        <time>2009-08-08T14:31:17Z</time>
      </trkpt>
      <trkpt lat="45.10378" lon="5.39158">
        <ele>924.82299804688</ele>
        <time>2009-08-08T14:31:23Z</time>
      </trkpt>
      <trkpt lat="45.10324" lon="5.3917">
        <ele>921.99298095703</ele>
        <time>2009-08-08T14:31:28Z</time>
      </trkpt>
      <trkpt lat="45.10278" lon="5.39164">
        <ele>920.32598876953</ele>
        <time>2009-08-08T14:31:32Z</time>
      </trkpt>
      <trkpt lat="45.10255" lon="5.39153">
        <ele>919.24298095703</ele>
        <time>2009-08-08T14:31:34Z</time>
      </trkpt>
      <trkpt lat="45.10228" lon="5.391">
        <ele>916.52301025391</ele>
        <time>2009-08-08T14:31:39Z</time>
      </trkpt>
      <trkpt lat="45.10228" lon="5.39086">
        <ele>916.52301025391</ele>
        <time>2009-08-08T14:31:40Z</time>
      </trkpt>
      <trkpt lat="45.1022" lon="5.39063">
        <ele>915.81201171875</ele>
        <time>2009-08-08T14:31:42Z</time>
      </trkpt>
      <trkpt lat="45.10206" lon="5.39049">
        <ele>915.40197753906</ele>
        <time>2009-08-08T14:31:44Z</time>
      </trkpt>
      <trkpt lat="45.10166" lon="5.39015">
        <ele>913.30499267578</ele>
        <time>2009-08-08T14:31:49Z</time>
      </trkpt>
      <trkpt lat="45.10141" lon="5.38995">
        <ele>912.23400878906</ele>
        <time>2009-08-08T14:31:52Z</time>
      </trkpt>
      <trkpt lat="45.10132" lon="5.38988">
        <ele>911.99298095703</ele>
        <time>2009-08-08T14:31:53Z</time>
      </trkpt>
      <trkpt lat="45.10081" lon="5.38944">
        <ele>909.34301757812</ele>
        <time>2009-08-08T14:31:59Z</time>
      </trkpt>
      <trkpt lat="45.10043" lon="5.3896">
        <ele>908.36999511719</ele>
        <time>2009-08-08T14:32:03Z</time>
      </trkpt>
      <trkpt lat="45.10005" lon="5.39004">
        <ele>906.97198486328</ele>
        <time>2009-08-08T14:32:08Z</time>
      </trkpt>
      <trkpt lat="45.0994" lon="5.38999">
        <ele>905.69097900391</ele>
        <time>2009-08-08T14:32:15Z</time>
      </trkpt>
      <trkpt lat="45.09923" lon="5.38981">
        <ele>904.77600097656</ele>
        <time>2009-08-08T14:32:17Z</time>
      </trkpt>
      <trkpt lat="45.09907" lon="5.38962">
        <ele>904.34802246094</ele>
        <time>2009-08-08T14:32:19Z</time>
      </trkpt>
      <trkpt lat="45.0988" lon="5.38924">
        <ele>903.05200195312</ele>
        <time>2009-08-08T14:32:23Z</time>
      </trkpt>
      <trkpt lat="45.0983" lon="5.38909">
        <ele>900.13397216797</ele>
        <time>2009-08-08T14:32:29Z</time>
      </trkpt>
      <trkpt lat="45.09775" lon="5.38932">
        <ele>899.32098388672</ele>
        <time>2009-08-08T14:32:35Z</time>
      </trkpt>
      <trkpt lat="45.09759" lon="5.38919">
        <ele>899.10601806641</ele>
        <time>2009-08-08T14:32:37Z</time>
      </trkpt>
      <trkpt lat="45.09718" lon="5.38885">
        <ele>897.90301513672</ele>
        <time>2009-08-08T14:32:42Z</time>
      </trkpt>
      <trkpt lat="45.0966" lon="5.38866">
        <ele>895.18402099609</ele>
        <time>2009-08-08T14:32:48Z</time>
      </trkpt>
      <trkpt lat="45.09651" lon="5.38864">
        <ele>894.60699462891</ele>
        <time>2009-08-08T14:32:49Z</time>
      </trkpt>
      <trkpt lat="45.09647" lon="5.38833">
        <ele>894.02600097656</ele>
        <time>2009-08-08T14:32:54Z</time>
      </trkpt>
      <trkpt lat="45.09656" lon="5.38787">
        <ele>893.21398925781</ele>
        <time>2009-08-08T14:33:00Z</time>
      </trkpt>
      <trkpt lat="45.09608" lon="5.38733">
        <ele>890.22100830078</ele>
        <time>2009-08-08T14:33:09Z</time>
      </trkpt>
      <trkpt lat="45.09595" lon="5.38738">
        <ele>890.68499755859</ele>
        <time>2009-08-08T14:33:11Z</time>
      </trkpt>
      <trkpt lat="45.09581" lon="5.38745">
        <ele>889.94598388672</ele>
        <time>2009-08-08T14:33:13Z</time>
      </trkpt>
      <trkpt lat="45.09551" lon="5.38708">
        <ele>888.26898193359</ele>
        <time>2009-08-08T14:33:19Z</time>
      </trkpt>
      <trkpt lat="45.09555" lon="5.38698">
        <ele>887.67700195312</ele>
        <time>2009-08-08T14:33:20Z</time>
      </trkpt>
      <trkpt lat="45.09551" lon="5.38629">
        <ele>885.23699951172</ele>
        <time>2009-08-08T14:33:26Z</time>
      </trkpt>
      <trkpt lat="45.09543" lon="5.38622">
        <ele>884.74798583984</ele>
        <time>2009-08-08T14:33:27Z</time>
      </trkpt>
      <trkpt lat="45.09469" lon="5.38572">
        <ele>880.55401611328</ele>
        <time>2009-08-08T14:33:35Z</time>
      </trkpt>
      <trkpt lat="45.09416" lon="5.38553">
        <ele>877.95397949219</ele>
        <time>2009-08-08T14:33:40Z</time>
      </trkpt>
      <trkpt lat="45.0937" lon="5.38506">
        <ele>874.20697021484</ele>
        <time>2009-08-08T14:33:45Z</time>
      </trkpt>
      <trkpt lat="45.0933" lon="5.38444">
        <ele>871.50701904297</ele>
        <time>2009-08-08T14:33:50Z</time>
      </trkpt>
      <trkpt lat="45.09286" lon="5.3837">
        <ele>870.71398925781</ele>
        <time>2009-08-08T14:33:56Z</time>
      </trkpt>
      <trkpt lat="45.09217" lon="5.38287">
        <ele>868.09997558594</ele>
        <time>2009-08-08T14:34:05Z</time>
      </trkpt>
      <trkpt lat="45.09147" lon="5.38247">
        <ele>860.20001220703</ele>
        <time>2009-08-08T14:34:12Z</time>
      </trkpt>
      <trkpt lat="45.0912" lon="5.3825">
        <ele>855.91302490234</ele>
        <time>2009-08-08T14:34:15Z</time>
      </trkpt>
      <trkpt lat="45.09093" lon="5.38236">
        <ele>853.79498291016</ele>
        <time>2009-08-08T14:34:19Z</time>
      </trkpt>
      <trkpt lat="45.09048" lon="5.38218">
        <ele>852.29797363281</ele>
        <time>2009-08-08T14:34:26Z</time>
      </trkpt>
      <trkpt lat="45.08983" lon="5.38244">
        <ele>848.89898681641</ele>
        <time>2009-08-08T14:34:34Z</time>
      </trkpt>
      <trkpt lat="45.08924" lon="5.38257">
        <ele>845.90899658203</ele>
        <time>2009-08-08T14:34:40Z</time>
      </trkpt>
      <trkpt lat="45.0885" lon="5.38263">
        <ele>842.25299072266</ele>
        <time>2009-08-08T14:34:47Z</time>
      </trkpt>
      <trkpt lat="45.08807" lon="5.38253">
        <ele>841.5</ele>
        <time>2009-08-08T14:34:51Z</time>
      </trkpt>
      <trkpt lat="45.0872" lon="5.38236">
        <ele>837.34002685547</ele>
        <time>2009-08-08T14:34:59Z</time>
      </trkpt>
      <trkpt lat="45.08532" lon="5.38197">
        <ele>830.0419921875</ele>
        <time>2009-08-08T14:35:16Z</time>
      </trkpt>
      <trkpt lat="45.08373" lon="5.38128">
        <ele>824.3330078125</ele>
        <time>2009-08-08T14:35:31Z</time>
      </trkpt>
      <trkpt lat="45.08244" lon="5.38071">
        <ele>822.36401367188</ele>
        <time>2009-08-08T14:35:44Z</time>
      </trkpt>
      <trkpt lat="45.08214" lon="5.38039">
        <ele>820.36901855469</ele>
        <time>2009-08-08T14:35:48Z</time>
      </trkpt>
      <trkpt lat="45.08173" lon="5.3799">
        <ele>819.78997802734</ele>
        <time>2009-08-08T14:35:54Z</time>
      </trkpt>
      <trkpt lat="45.08141" lon="5.37971">
        <ele>819.00402832031</ele>
        <time>2009-08-08T14:35:58Z</time>
      </trkpt>
      <trkpt lat="45.08112" lon="5.37929">
        <ele>818.25402832031</ele>
        <time>2009-08-08T14:36:03Z</time>
      </trkpt>
      <trkpt lat="45.08084" lon="5.37881">
        <ele>818.02001953125</ele>
        <time>2009-08-08T14:36:09Z</time>
      </trkpt>
      <trkpt lat="45.08074" lon="5.37867">
        <ele>817.84100341797</ele>
        <time>2009-08-08T14:36:11Z</time>
      </trkpt>
      <trkpt lat="45.08062" lon="5.37835">
        <ele>817.63702392578</ele>
        <time>2009-08-08T14:36:15Z</time>
      </trkpt>
      <trkpt lat="45.08059" lon="5.3778">
        <ele>818.55401611328</ele>
        <time>2009-08-08T14:36:21Z</time>
      </trkpt>
      <trkpt lat="45.08042" lon="5.37738">
        <ele>818.17700195312</ele>
        <time>2009-08-08T14:36:27Z</time>
      </trkpt>
      <trkpt lat="45.08014" lon="5.37713">
        <ele>816.83502197266</ele>
        <time>2009-08-08T14:36:32Z</time>
      </trkpt>
      <trkpt lat="45.07996" lon="5.37667">
        <ele>814.05902099609</ele>
        <time>2009-08-08T14:36:39Z</time>
      </trkpt>
      <trkpt lat="45.08001" lon="5.3766">
        <ele>813.5419921875</ele>
        <time>2009-08-08T14:36:40Z</time>
      </trkpt>
      <trkpt lat="45.08011" lon="5.37639">
        <ele>812.13000488281</ele>
        <time>2009-08-08T14:36:42Z</time>
      </trkpt>
      <trkpt lat="45.08023" lon="5.3762">
        <ele>811.11401367188</ele>
        <time>2009-08-08T14:36:44Z</time>
      </trkpt>
      <trkpt lat="45.0803" lon="5.37547">
        <ele>805.55603027344</ele>
        <time>2009-08-08T14:36:50Z</time>
      </trkpt>
      <trkpt lat="45.08021" lon="5.3748">
        <ele>800.95098876953</ele>
        <time>2009-08-08T14:36:57Z</time>
      </trkpt>
      <trkpt lat="45.08024" lon="5.37471">
        <ele>800.76501464844</ele>
        <time>2009-08-08T14:36:58Z</time>
      </trkpt>
      <trkpt lat="45.08036" lon="5.37433">
        <ele>798.62097167969</ele>
        <time>2009-08-08T14:37:02Z</time>
      </trkpt>
      <trkpt lat="45.08038" lon="5.37421">
        <ele>797.47198486328</ele>
        <time>2009-08-08T14:37:03Z</time>
      </trkpt>
      <trkpt lat="45.0804" lon="5.37395">
        <ele>795.70501708984</ele>
        <time>2009-08-08T14:37:05Z</time>
      </trkpt>
      <trkpt lat="45.08038" lon="5.37367">
        <ele>794.36602783203</ele>
        <time>2009-08-08T14:37:07Z</time>
      </trkpt>
      <trkpt lat="45.0803" lon="5.37325">
        <ele>791.40698242188</ele>
        <time>2009-08-08T14:37:10Z</time>
      </trkpt>
      <trkpt lat="45.08021" lon="5.37263">
        <ele>788.71899414062</ele>
        <time>2009-08-08T14:37:17Z</time>
      </trkpt>
      <trkpt lat="45.08012" lon="5.3723">
        <ele>787.31298828125</ele>
        <time>2009-08-08T14:37:29Z</time>
      </trkpt>
      <trkpt lat="45.07995" lon="5.37161">
        <ele>784.56500244141</ele>
        <time>2009-08-08T14:37:38Z</time>
      </trkpt>
      <trkpt lat="45.07993" lon="5.37151">
        <ele>784.17498779297</ele>
        <time>2009-08-08T14:37:39Z</time>
      </trkpt>
      <trkpt lat="45.07974" lon="5.371">
        <ele>782.07098388672</ele>
        <time>2009-08-08T14:37:44Z</time>
      </trkpt>
      <trkpt lat="45.07971" lon="5.37092">
        <ele>781.58898925781</ele>
        <time>2009-08-08T14:37:45Z</time>
      </trkpt>
      <trkpt lat="45.07958" lon="5.37088">
        <ele>780.28002929688</ele>
        <time>2009-08-08T14:37:48Z</time>
      </trkpt>
      <trkpt lat="45.07965" lon="5.37121">
        <ele>778.91497802734</ele>
        <time>2009-08-08T14:37:52Z</time>
      </trkpt>
      <trkpt lat="45.07985" lon="5.37177">
        <ele>776.02197265625</ele>
        <time>2009-08-08T14:37:57Z</time>
      </trkpt>
      <trkpt lat="45.07995" lon="5.37269">
        <ele>771.25</ele>
        <time>2009-08-08T14:38:03Z</time>
      </trkpt>
      <trkpt lat="45.08001" lon="5.37318">
        <ele>768.34899902344</ele>
        <time>2009-08-08T14:38:06Z</time>
      </trkpt>
      <trkpt lat="45.07988" lon="5.37462">
        <ele>759.31701660156</ele>
        <time>2009-08-08T14:38:14Z</time>
      </trkpt>
      <trkpt lat="45.07951" lon="5.37569">
        <ele>752.19000244141</ele>
        <time>2009-08-08T14:38:20Z</time>
      </trkpt>
      <trkpt lat="45.079" lon="5.37636">
        <ele>746.3740234375</ele>
        <time>2009-08-08T14:38:26Z</time>
      </trkpt>
      <trkpt lat="45.0789" lon="5.3762">
        <ele>744.18298339844</ele>
        <time>2009-08-08T14:38:30Z</time>
      </trkpt>
      <trkpt lat="45.07902" lon="5.37607">
        <ele>743.25897216797</ele>
        <time>2009-08-08T14:38:32Z</time>
      </trkpt>
      <trkpt lat="45.07935" lon="5.37547">
        <ele>738.56896972656</ele>
        <time>2009-08-08T14:38:38Z</time>
      </trkpt>
      <trkpt lat="45.07949" lon="5.37464">
        <ele>734.24401855469</ele>
        <time>2009-08-08T14:38:43Z</time>
      </trkpt>
      <trkpt lat="45.07948" lon="5.37369">
        <ele>728.57897949219</ele>
        <time>2009-08-08T14:38:48Z</time>
      </trkpt>
      <trkpt lat="45.07904" lon="5.37219">
        <ele>719.43701171875</ele>
        <time>2009-08-08T14:38:56Z</time>
      </trkpt>
      <trkpt lat="45.07852" lon="5.37121">
        <ele>711.02502441406</ele>
        <time>2009-08-08T14:39:02Z</time>
      </trkpt>
      <trkpt lat="45.07848" lon="5.37061">
        <ele>705.42102050781</ele>
        <time>2009-08-08T14:39:07Z</time>
      </trkpt>
      <trkpt lat="45.07877" lon="5.36985">
        <ele>700.02899169922</ele>
        <time>2009-08-08T14:39:13Z</time>
      </trkpt>
      <trkpt lat="45.07878" lon="5.36935">
        <ele>696.73101806641</ele>
        <time>2009-08-08T14:39:16Z</time>
      </trkpt>
      <trkpt lat="45.07856" lon="5.3686">
        <ele>691.13702392578</ele>
        <time>2009-08-08T14:39:21Z</time>
      </trkpt>
      <trkpt lat="45.07874" lon="5.36789">
        <ele>687.03497314453</ele>
        <time>2009-08-08T14:39:26Z</time>
      </trkpt>
      <trkpt lat="45.07936" lon="5.36672">
        <ele>677.33801269531</ele>
        <time>2009-08-08T14:39:35Z</time>
      </trkpt>
      <trkpt lat="45.07965" lon="5.36633">
        <ele>674.11401367188</ele>
        <time>2009-08-08T14:39:39Z</time>
      </trkpt>
      <trkpt lat="45.08" lon="5.36593">
        <ele>669.22900390625</ele>
        <time>2009-08-08T14:39:43Z</time>
      </trkpt>
      <trkpt lat="45.0803" lon="5.36508">
        <ele>663.60900878906</ele>
        <time>2009-08-08T14:39:49Z</time>
      </trkpt>
      <trkpt lat="45.08026" lon="5.36476">
        <ele>661.40997314453</ele>
        <time>2009-08-08T14:39:51Z</time>
      </trkpt>
      <trkpt lat="45.08033" lon="5.36392">
        <ele>655.69500732422</ele>
        <time>2009-08-08T14:39:57Z</time>
      </trkpt>
      <trkpt lat="45.08039" lon="5.3633">
        <ele>652.02301025391</ele>
        <time>2009-08-08T14:40:01Z</time>
      </trkpt>
      <trkpt lat="45.08053" lon="5.36268">
        <ele>648.64501953125</ele>
        <time>2009-08-08T14:40:05Z</time>
      </trkpt>
      <trkpt lat="45.08035" lon="5.36177">
        <ele>643.59600830078</ele>
        <time>2009-08-08T14:40:11Z</time>
      </trkpt>
      <trkpt lat="45.08029" lon="5.36163">
        <ele>642.60900878906</ele>
        <time>2009-08-08T14:40:12Z</time>
      </trkpt>
      <trkpt lat="45.07999" lon="5.36109">
        <ele>640.60302734375</ele>
        <time>2009-08-08T14:40:16Z</time>
      </trkpt>
      <trkpt lat="45.0799" lon="5.36097">
        <ele>640.40600585938</ele>
        <time>2009-08-08T14:40:17Z</time>
      </trkpt>
      <trkpt lat="45.07917" lon="5.36069">
        <ele>633.22302246094</ele>
        <time>2009-08-08T14:40:23Z</time>
      </trkpt>
      <trkpt lat="45.07851" lon="5.36059">
        <ele>627.99401855469</ele>
        <time>2009-08-08T14:40:28Z</time>
      </trkpt>
      <trkpt lat="45.07805" lon="5.36024">
        <ele>623.15698242188</ele>
        <time>2009-08-08T14:40:32Z</time>
      </trkpt>
      <trkpt lat="45.07783" lon="5.36003">
        <ele>622.39398193359</ele>
        <time>2009-08-08T14:40:34Z</time>
      </trkpt>
      <trkpt lat="45.07738" lon="5.35976">
        <ele>616.26702880859</ele>
        <time>2009-08-08T14:40:38Z</time>
      </trkpt>
      <trkpt lat="45.07681" lon="5.3596">
        <ele>611.05102539062</ele>
        <time>2009-08-08T14:40:43Z</time>
      </trkpt>
      <trkpt lat="45.07644" lon="5.35922">
        <ele>607.28100585938</ele>
        <time>2009-08-08T14:40:47Z</time>
      </trkpt>
      <trkpt lat="45.07637" lon="5.35867">
        <ele>604.42901611328</ele>
        <time>2009-08-08T14:40:51Z</time>
      </trkpt>
      <trkpt lat="45.07635" lon="5.35836">
        <ele>603.64697265625</ele>
        <time>2009-08-08T14:40:53Z</time>
      </trkpt>
      <trkpt lat="45.07609" lon="5.35719">
        <ele>596.02697753906</ele>
        <time>2009-08-08T14:41:00Z</time>
      </trkpt>
      <trkpt lat="45.076" lon="5.35684">
        <ele>593.77899169922</ele>
        <time>2009-08-08T14:41:02Z</time>
      </trkpt>
      <trkpt lat="45.07579" lon="5.35638">
        <ele>590.62097167969</ele>
        <time>2009-08-08T14:41:05Z</time>
      </trkpt>
      <trkpt lat="45.07557" lon="5.35505">
        <ele>582.59802246094</ele>
        <time>2009-08-08T14:41:12Z</time>
      </trkpt>
      <trkpt lat="45.07526" lon="5.35423">
        <ele>577.69000244141</ele>
        <time>2009-08-08T14:41:17Z</time>
      </trkpt>
      <trkpt lat="45.07512" lon="5.35395">
        <ele>573.98101806641</ele>
        <time>2009-08-08T14:41:21Z</time>
      </trkpt>
      <trkpt lat="45.07505" lon="5.35406">
        <ele>573.72497558594</ele>
        <time>2009-08-08T14:41:28Z</time>
      </trkpt>
      <trkpt lat="45.07507" lon="5.35408">
        <ele>573.12799072266</ele>
        <time>2009-08-08T14:41:30Z</time>
      </trkpt>
      <trkpt lat="45.07517" lon="5.35406">
        <ele>574.57397460938</ele>
        <time>2009-08-08T14:41:36Z</time>
      </trkpt>
      <trkpt lat="45.07524" lon="5.35412">
        <ele>574.84002685547</ele>
        <time>2009-08-08T14:41:42Z</time>
      </trkpt>
      <trkpt lat="45.07526" lon="5.35419">
        <ele>574.28601074219</ele>
        <time>2009-08-08T14:42:15Z</time>
      </trkpt>
      <trkpt lat="45.07527" lon="5.35421">
        <ele>574.05999755859</ele>
        <time>2009-08-08T14:42:16Z</time>
      </trkpt>
      <trkpt lat="45.07563" lon="5.35431">
        <ele>567.61901855469</ele>
        <time>2009-08-08T14:42:26Z</time>
      </trkpt>
      <trkpt lat="45.07576" lon="5.35432">
        <ele>566.70697021484</ele>
        <time>2009-08-08T14:42:28Z</time>
      </trkpt>
      <trkpt lat="45.07594" lon="5.35432">
        <ele>566.19299316406</ele>
        <time>2009-08-08T14:42:31Z</time>
      </trkpt>
      <trkpt lat="45.076" lon="5.35431">
        <ele>566.02899169922</ele>
        <time>2009-08-08T14:42:32Z</time>
      </trkpt>
      <trkpt lat="45.07618" lon="5.35434">
        <ele>565.23199462891</ele>
        <time>2009-08-08T14:42:35Z</time>
      </trkpt>
      <trkpt lat="45.07624" lon="5.35437">
        <ele>565.25799560547</ele>
        <time>2009-08-08T14:42:36Z</time>
      </trkpt>
      <trkpt lat="45.07668" lon="5.35454">
        <ele>564.5830078125</ele>
        <time>2009-08-08T14:42:44Z</time>
      </trkpt>
      <trkpt lat="45.0769" lon="5.35476">
        <ele>562.89099121094</ele>
        <time>2009-08-08T14:42:48Z</time>
      </trkpt>
      <trkpt lat="45.07711" lon="5.35506">
        <ele>560.55401611328</ele>
        <time>2009-08-08T14:42:52Z</time>
      </trkpt>
      <trkpt lat="45.07763" lon="5.35597">
        <ele>553.88000488281</ele>
        <time>2009-08-08T14:43:00Z</time>
      </trkpt>
      <trkpt lat="45.07774" lon="5.35616">
        <ele>551.85998535156</ele>
        <time>2009-08-08T14:43:02Z</time>
      </trkpt>
      <trkpt lat="45.07813" lon="5.35609">
        <ele>547.76397705078</ele>
        <time>2009-08-08T14:43:07Z</time>
      </trkpt>
      <trkpt lat="45.07856" lon="5.35582">
        <ele>541.92199707031</ele>
        <time>2009-08-08T14:43:12Z</time>
      </trkpt>
      <trkpt lat="45.07867" lon="5.35554">
        <ele>540.94097900391</ele>
        <time>2009-08-08T14:43:14Z</time>
      </trkpt>
      <trkpt lat="45.07901" lon="5.35493">
        <ele>534.76000976562</ele>
        <time>2009-08-08T14:43:20Z</time>
      </trkpt>
      <trkpt lat="45.07888" lon="5.3549">
        <ele>533.48297119141</ele>
        <time>2009-08-08T14:43:24Z</time>
      </trkpt>
      <trkpt lat="45.07879" lon="5.35506">
        <ele>532.58502197266</ele>
        <time>2009-08-08T14:43:27Z</time>
      </trkpt>
      <trkpt lat="45.07854" lon="5.35534">
        <ele>530.15301513672</ele>
        <time>2009-08-08T14:43:32Z</time>
      </trkpt>
      <trkpt lat="45.07811" lon="5.35542">
        <ele>524.41302490234</ele>
        <time>2009-08-08T14:43:37Z</time>
      </trkpt>
      <trkpt lat="45.07786" lon="5.35473">
        <ele>515.95300292969</ele>
        <time>2009-08-08T14:43:44Z</time>
      </trkpt>
      <trkpt lat="45.07774" lon="5.3542">
        <ele>511.01400756836</ele>
        <time>2009-08-08T14:43:48Z</time>
      </trkpt>
      <trkpt lat="45.07753" lon="5.35365">
        <ele>506.43701171875</ele>
        <time>2009-08-08T14:43:52Z</time>
      </trkpt>
      <trkpt lat="45.07717" lon="5.35313">
        <ele>501.1969909668</ele>
        <time>2009-08-08T14:43:58Z</time>
      </trkpt>
      <trkpt lat="45.0768" lon="5.35288">
        <ele>494.57299804688</ele>
        <time>2009-08-08T14:44:03Z</time>
      </trkpt>
      <trkpt lat="45.07666" lon="5.35281">
        <ele>490.56201171875</ele>
        <time>2009-08-08T14:44:07Z</time>
      </trkpt>
      <trkpt lat="45.07676" lon="5.35272">
        <ele>488.27301025391</ele>
        <time>2009-08-08T14:44:12Z</time>
      </trkpt>
      <trkpt lat="45.07735" lon="5.35273">
        <ele>481.88101196289</ele>
        <time>2009-08-08T14:44:22Z</time>
      </trkpt>
      <trkpt lat="45.07767" lon="5.3529">
        <ele>480.6969909668</ele>
        <time>2009-08-08T14:44:26Z</time>
      </trkpt>
      <trkpt lat="45.07783" lon="5.35304">
        <ele>481.48999023438</ele>
        <time>2009-08-08T14:44:29Z</time>
      </trkpt>
      <trkpt lat="45.07801" lon="5.35327">
        <ele>480.80899047852</ele>
        <time>2009-08-08T14:44:35Z</time>
      </trkpt>
      <trkpt lat="45.07838" lon="5.35354">
        <ele>474.5119934082</ele>
        <time>2009-08-08T14:44:41Z</time>
      </trkpt>
      <trkpt lat="45.07865" lon="5.35332">
        <ele>468.19400024414</ele>
        <time>2009-08-08T14:44:46Z</time>
      </trkpt>
      <trkpt lat="45.07893" lon="5.35308">
        <ele>463.63500976562</ele>
        <time>2009-08-08T14:44:51Z</time>
      </trkpt>
      <trkpt lat="45.07948" lon="5.35295">
        <ele>458.4049987793</ele>
        <time>2009-08-08T14:44:57Z</time>
      </trkpt>
      <trkpt lat="45.07984" lon="5.35285">
        <ele>454.48300170898</ele>
        <time>2009-08-08T14:45:01Z</time>
      </trkpt>
      <trkpt lat="45.08013" lon="5.35265">
        <ele>451.10101318359</ele>
        <time>2009-08-08T14:45:05Z</time>
      </trkpt>
      <trkpt lat="45.08033" lon="5.35271">
        <ele>446.37701416016</ele>
        <time>2009-08-08T14:45:10Z</time>
      </trkpt>
      <trkpt lat="45.08037" lon="5.3528">
        <ele>445.44900512695</ele>
        <time>2009-08-08T14:45:12Z</time>
      </trkpt>
      <trkpt lat="45.08047" lon="5.35285">
        <ele>445.49499511719</ele>
        <time>2009-08-08T14:45:21Z</time>
      </trkpt>
      <trkpt lat="45.08047" lon="5.35279">
        <ele>446.80499267578</ele>
        <time>2009-08-08T14:45:24Z</time>
      </trkpt>
      <trkpt lat="45.08049" lon="5.35274">
        <ele>448.04699707031</ele>
        <time>2009-08-08T14:45:26Z</time>
      </trkpt>
      <trkpt lat="45.08049" lon="5.3527">
        <ele>448.29299926758</ele>
        <time>2009-08-08T14:45:27Z</time>
      </trkpt>
      <trkpt lat="45.08051" lon="5.35255">
        <ele>450.26501464844</ele>
        <time>2009-08-08T14:45:32Z</time>
      </trkpt>
      <trkpt lat="45.0805" lon="5.35245">
        <ele>451.16598510742</ele>
        <time>2009-08-08T14:45:35Z</time>
      </trkpt>
      <trkpt lat="45.08049" lon="5.35236">
        <ele>451.88900756836</ele>
        <time>2009-08-08T14:45:38Z</time>
      </trkpt>
      <trkpt lat="45.08045" lon="5.35218">
        <ele>454.19299316406</ele>
        <time>2009-08-08T14:45:45Z</time>
      </trkpt>
      <trkpt lat="45.08037" lon="5.35201">
        <ele>455.83999633789</ele>
        <time>2009-08-08T14:45:53Z</time>
      </trkpt>
      <trkpt lat="45.08017" lon="5.35182">
        <ele>457.85101318359</ele>
        <time>2009-08-08T14:46:04Z</time>
      </trkpt>
      <trkpt lat="45.08004" lon="5.35174">
        <ele>460.66000366211</ele>
        <time>2009-08-08T14:46:12Z</time>
      </trkpt>
      <trkpt lat="45.0798" lon="5.35154">
        <ele>463.33801269531</ele>
        <time>2009-08-08T14:46:26Z</time>
      </trkpt>
      <trkpt lat="45.07964" lon="5.35113">
        <ele>467.33898925781</ele>
        <time>2009-08-08T14:46:42Z</time>
      </trkpt>
      <trkpt lat="45.07959" lon="5.35082">
        <ele>471.10800170898</ele>
        <time>2009-08-08T14:46:57Z</time>
      </trkpt>
      <trkpt lat="45.07954" lon="5.35052">
        <ele>474.26300048828</ele>
        <time>2009-08-08T14:47:11Z</time>
      </trkpt>
      <trkpt lat="45.0794" lon="5.35019">
        <ele>478.88299560547</ele>
        <time>2009-08-08T14:47:27Z</time>
      </trkpt>
      <trkpt lat="45.07918" lon="5.34993">
        <ele>481.04598999023</ele>
        <time>2009-08-08T14:47:42Z</time>
      </trkpt>
      <trkpt lat="45.07913" lon="5.34987">
        <ele>481.76800537109</ele>
        <time>2009-08-08T14:47:45Z</time>
      </trkpt>
      <trkpt lat="45.07899" lon="5.34978">
        <ele>481.35000610352</ele>
        <time>2009-08-08T14:47:54Z</time>
      </trkpt>
      <trkpt lat="45.07895" lon="5.34973">
        <ele>481.92999267578</ele>
        <time>2009-08-08T14:48:00Z</time>
      </trkpt>
      <trkpt lat="45.07897" lon="5.34976">
        <ele>481.45700073242</ele>
        <time>2009-08-08T14:48:28Z</time>
      </trkpt>
      <trkpt lat="45.07897" lon="5.34977">
        <ele>481.46099853516</ele>
        <time>2009-08-08T14:48:29Z</time>
      </trkpt>
      <trkpt lat="45.07895" lon="5.34964">
        <ele>481.57800292969</ele>
        <time>2009-08-08T14:48:38Z</time>
      </trkpt>
      <trkpt lat="45.07895" lon="5.34947">
        <ele>482.17300415039</ele>
        <time>2009-08-08T14:48:44Z</time>
      </trkpt>
      <trkpt lat="45.07893" lon="5.34912">
        <ele>484.1669921875</ele>
        <time>2009-08-08T14:48:55Z</time>
      </trkpt>
      <trkpt lat="45.07892" lon="5.34898">
        <ele>485.56500244141</ele>
        <time>2009-08-08T14:48:59Z</time>
      </trkpt>
      <trkpt lat="45.0789" lon="5.34879">
        <ele>487.18200683594</ele>
        <time>2009-08-08T14:49:04Z</time>
      </trkpt>
      <trkpt lat="45.07889" lon="5.34869">
        <ele>488.20098876953</ele>
        <time>2009-08-08T14:49:06Z</time>
      </trkpt>
      <trkpt lat="45.07884" lon="5.34838">
        <ele>489.67700195312</ele>
        <time>2009-08-08T14:49:13Z</time>
      </trkpt>
      <trkpt lat="45.07864" lon="5.3479">
        <ele>486.81500244141</ele>
        <time>2009-08-08T14:49:27Z</time>
      </trkpt>
      <trkpt lat="45.0786" lon="5.34782">
        <ele>485.17300415039</ele>
        <time>2009-08-08T14:49:29Z</time>
      </trkpt>
      <trkpt lat="45.07864" lon="5.34752">
        <ele>480.23001098633</ele>
        <time>2009-08-08T14:49:34Z</time>
      </trkpt>
      <trkpt lat="45.07883" lon="5.34726">
        <ele>475.81698608398</ele>
        <time>2009-08-08T14:49:39Z</time>
      </trkpt>
      <trkpt lat="45.07904" lon="5.3471">
        <ele>472.66000366211</ele>
        <time>2009-08-08T14:49:43Z</time>
      </trkpt>
      <trkpt lat="45.07916" lon="5.34701">
        <ele>470.68399047852</ele>
        <time>2009-08-08T14:49:45Z</time>
      </trkpt>
      <trkpt lat="45.07927" lon="5.34688">
        <ele>469.0539855957</ele>
        <time>2009-08-08T14:49:47Z</time>
      </trkpt>
      <trkpt lat="45.07954" lon="5.34648">
        <ele>462.60598754883</ele>
        <time>2009-08-08T14:49:52Z</time>
      </trkpt>
      <trkpt lat="45.07942" lon="5.34628">
        <ele>459.41900634766</ele>
        <time>2009-08-08T14:49:57Z</time>
      </trkpt>
      <trkpt lat="45.07931" lon="5.34634">
        <ele>457.46899414062</ele>
        <time>2009-08-08T14:49:59Z</time>
      </trkpt>
      <trkpt lat="45.07916" lon="5.34621">
        <ele>453.93099975586</ele>
        <time>2009-08-08T14:50:04Z</time>
      </trkpt>
      <trkpt lat="45.07924" lon="5.34573">
        <ele>449.26400756836</ele>
        <time>2009-08-08T14:50:10Z</time>
      </trkpt>
      <trkpt lat="45.0792" lon="5.34507">
        <ele>445.17199707031</ele>
        <time>2009-08-08T14:50:17Z</time>
      </trkpt>
      <trkpt lat="45.07925" lon="5.3445">
        <ele>443.74301147461</ele>
        <time>2009-08-08T14:50:22Z</time>
      </trkpt>
      <trkpt lat="45.07928" lon="5.34438">
        <ele>443.07299804688</ele>
        <time>2009-08-08T14:50:24Z</time>
      </trkpt>
      <trkpt lat="45.07944" lon="5.34417">
        <ele>441.36801147461</ele>
        <time>2009-08-08T14:50:29Z</time>
      </trkpt>
      <trkpt lat="45.07962" lon="5.34409">
        <ele>439.57000732422</ele>
        <time>2009-08-08T14:50:32Z</time>
      </trkpt>
      <trkpt lat="45.07968" lon="5.34406">
        <ele>439.38598632812</ele>
        <time>2009-08-08T14:50:33Z</time>
      </trkpt>
      <trkpt lat="45.07975" lon="5.34403">
        <ele>439.09799194336</ele>
        <time>2009-08-08T14:50:34Z</time>
      </trkpt>
      <trkpt lat="45.08001" lon="5.34382">
        <ele>439.42999267578</ele>
        <time>2009-08-08T14:50:38Z</time>
      </trkpt>
      <trkpt lat="45.08023" lon="5.34354">
        <ele>438.78799438477</ele>
        <time>2009-08-08T14:50:43Z</time>
      </trkpt>
      <trkpt lat="45.08075" lon="5.34348">
        <ele>435.78601074219</ele>
        <time>2009-08-08T14:50:52Z</time>
      </trkpt>
      <trkpt lat="45.08082" lon="5.34349">
        <ele>435.06201171875</ele>
        <time>2009-08-08T14:50:53Z</time>
      </trkpt>
      <trkpt lat="45.0813" lon="5.34345">
        <ele>429.02200317383</ele>
        <time>2009-08-08T14:51:00Z</time>
      </trkpt>
      <trkpt lat="45.08151" lon="5.34322">
        <ele>425.68798828125</ele>
        <time>2009-08-08T14:51:04Z</time>
      </trkpt>
      <trkpt lat="45.08197" lon="5.3426">
        <ele>417.99499511719</ele>
        <time>2009-08-08T14:51:15Z</time>
      </trkpt>
      <trkpt lat="45.0823" lon="5.34239">
        <ele>413.69500732422</ele>
        <time>2009-08-08T14:51:21Z</time>
      </trkpt>
      <trkpt lat="45.0824" lon="5.34234">
        <ele>412.75299072266</ele>
        <time>2009-08-08T14:51:23Z</time>
      </trkpt>
      <trkpt lat="45.08261" lon="5.34233">
        <ele>410.70401000977</ele>
        <time>2009-08-08T14:51:29Z</time>
      </trkpt>
      <trkpt lat="45.08274" lon="5.34238">
        <ele>410.77099609375</ele>
        <time>2009-08-08T14:51:35Z</time>
      </trkpt>
      <trkpt lat="45.08281" lon="5.3424">
        <ele>410.22198486328</ele>
        <time>2009-08-08T14:51:41Z</time>
      </trkpt>
      <trkpt lat="45.08288" lon="5.34235">
        <ele>408.60501098633</ele>
        <time>2009-08-08T14:52:36Z</time>
      </trkpt>
      <trkpt lat="45.08291" lon="5.34231">
        <ele>408.40200805664</ele>
        <time>2009-08-08T14:52:37Z</time>
      </trkpt>
      <trkpt lat="45.08295" lon="5.34226">
        <ele>407.9289855957</ele>
        <time>2009-08-08T14:52:38Z</time>
      </trkpt>
      <trkpt lat="45.08308" lon="5.34206">
        <ele>406.54800415039</ele>
        <time>2009-08-08T14:52:41Z</time>
      </trkpt>
      <trkpt lat="45.08319" lon="5.34183">
        <ele>405.38800048828</ele>
        <time>2009-08-08T14:52:44Z</time>
      </trkpt>
      <trkpt lat="45.0833" lon="5.34166">
        <ele>405.00799560547</ele>
        <time>2009-08-08T14:52:47Z</time>
      </trkpt>
      <trkpt lat="45.08334" lon="5.34162">
        <ele>404.4280090332</ele>
        <time>2009-08-08T14:52:48Z</time>
      </trkpt>
      <trkpt lat="45.08376" lon="5.34126">
        <ele>400.32400512695</ele>
        <time>2009-08-08T14:52:56Z</time>
      </trkpt>
      <trkpt lat="45.08398" lon="5.34116">
        <ele>398.84399414062</ele>
        <time>2009-08-08T14:52:59Z</time>
      </trkpt>
      <trkpt lat="45.08406" lon="5.34114">
        <ele>398.3210144043</ele>
        <time>2009-08-08T14:53:00Z</time>
      </trkpt>
      <trkpt lat="45.08413" lon="5.34113">
        <ele>398.29501342773</ele>
        <time>2009-08-08T14:53:01Z</time>
      </trkpt>
      <trkpt lat="45.08435" lon="5.34113">
        <ele>396.86700439453</ele>
        <time>2009-08-08T14:53:04Z</time>
      </trkpt>
      <trkpt lat="45.08487" lon="5.3411">
        <ele>393.15600585938</ele>
        <time>2009-08-08T14:53:11Z</time>
      </trkpt>
      <trkpt lat="45.08515" lon="5.34094">
        <ele>392.39801025391</ele>
        <time>2009-08-08T14:53:15Z</time>
      </trkpt>
      <trkpt lat="45.08564" lon="5.34055">
        <ele>392.51300048828</ele>
        <time>2009-08-08T14:53:24Z</time>
      </trkpt>
      <trkpt lat="45.08585" lon="5.34029">
        <ele>392.25</ele>
        <time>2009-08-08T14:53:32Z</time>
      </trkpt>
      <trkpt lat="45.08591" lon="5.33985">
        <ele>390.5530090332</ele>
        <time>2009-08-08T14:53:38Z</time>
      </trkpt>
      <trkpt lat="45.08591" lon="5.33957">
        <ele>389.44299316406</ele>
        <time>2009-08-08T14:53:43Z</time>
      </trkpt>
      <trkpt lat="45.08594" lon="5.33953">
        <ele>389.33801269531</ele>
        <time>2009-08-08T14:53:48Z</time>
      </trkpt>
      <trkpt lat="45.08589" lon="5.33951">
        <ele>388.50500488281</ele>
        <time>2009-08-08T14:54:40Z</time>
      </trkpt>
      <trkpt lat="45.08588" lon="5.33951">
        <ele>388.53698730469</ele>
        <time>2009-08-08T14:54:42Z</time>
      </trkpt>
      <trkpt lat="45.08584" lon="5.33956">
        <ele>388.58499145508</ele>
        <time>2009-08-08T14:55:50Z</time>
      </trkpt>
      <trkpt lat="45.08553" lon="5.33989">
        <ele>385.84698486328</ele>
        <time>2009-08-08T14:56:01Z</time>
      </trkpt>
      <trkpt lat="45.08545" lon="5.34">
        <ele>385.23999023438</ele>
        <time>2009-08-08T14:56:03Z</time>
      </trkpt>
      <trkpt lat="45.08516" lon="5.3404">
        <ele>383.07598876953</ele>
        <time>2009-08-08T14:56:09Z</time>
      </trkpt>
      <trkpt lat="45.08499" lon="5.34026">
        <ele>381.53100585938</ele>
        <time>2009-08-08T14:56:14Z</time>
      </trkpt>
      <trkpt lat="45.08524" lon="5.33978">
        <ele>380.19299316406</ele>
        <time>2009-08-08T14:56:21Z</time>
      </trkpt>
      <trkpt lat="45.0851" lon="5.33928">
        <ele>376.85501098633</ele>
        <time>2009-08-08T14:56:26Z</time>
      </trkpt>
      <trkpt lat="45.08446" lon="5.33834">
        <ele>371.40600585938</ele>
        <time>2009-08-08T14:56:35Z</time>
      </trkpt>
      <trkpt lat="45.08398" lon="5.33759">
        <ele>365.53399658203</ele>
        <time>2009-08-08T14:56:41Z</time>
      </trkpt>
      <trkpt lat="45.08387" lon="5.33732">
        <ele>364.09698486328</ele>
        <time>2009-08-08T14:56:43Z</time>
      </trkpt>
      <trkpt lat="45.08385" lon="5.33704">
        <ele>362.75201416016</ele>
        <time>2009-08-08T14:56:45Z</time>
      </trkpt>
      <trkpt lat="45.08384" lon="5.33652">
        <ele>358.82000732422</ele>
        <time>2009-08-08T14:56:49Z</time>
      </trkpt>
      <trkpt lat="45.08355" lon="5.33618">
        <ele>354.5419921875</ele>
        <time>2009-08-08T14:56:53Z</time>
      </trkpt>
      <trkpt lat="45.08239" lon="5.33574">
        <ele>346.67098999023</ele>
        <time>2009-08-08T14:57:03Z</time>
      </trkpt>
      <trkpt lat="45.08225" lon="5.33571">
        <ele>346.20498657227</ele>
        <time>2009-08-08T14:57:04Z</time>
      </trkpt>
      <trkpt lat="45.08113" lon="5.33488">
        <ele>336.47900390625</ele>
        <time>2009-08-08T14:57:13Z</time>
      </trkpt>
      <trkpt lat="45.08067" lon="5.33439">
        <ele>331.8219909668</ele>
        <time>2009-08-08T14:57:17Z</time>
      </trkpt>
      <trkpt lat="45.08033" lon="5.33399">
        <ele>328.70401000977</ele>
        <time>2009-08-08T14:57:20Z</time>
      </trkpt>
      <trkpt lat="45.07997" lon="5.33336">
        <ele>324.29901123047</ele>
        <time>2009-08-08T14:57:24Z</time>
      </trkpt>
      <trkpt lat="45.07904" lon="5.33278">
        <ele>316.62799072266</ele>
        <time>2009-08-08T14:57:31Z</time>
      </trkpt>
      <trkpt lat="45.07876" lon="5.33268">
        <ele>314.18701171875</ele>
        <time>2009-08-08T14:57:33Z</time>
      </trkpt>
      <trkpt lat="45.07818" lon="5.33264">
        <ele>309.94900512695</ele>
        <time>2009-08-08T14:57:37Z</time>
      </trkpt>
      <trkpt lat="45.07747" lon="5.33242">
        <ele>304.71398925781</ele>
        <time>2009-08-08T14:57:42Z</time>
      </trkpt>
      <trkpt lat="45.07613" lon="5.33121">
        <ele>292.70199584961</ele>
        <time>2009-08-08T14:57:53Z</time>
      </trkpt>
      <trkpt lat="45.07553" lon="5.33067">
        <ele>288.09399414062</ele>
        <time>2009-08-08T14:57:58Z</time>
      </trkpt>
      <trkpt lat="45.07508" lon="5.33068">
        <ele>285.84698486328</ele>
        <time>2009-08-08T14:58:02Z</time>
      </trkpt>
      <trkpt lat="45.07464" lon="5.33084">
        <ele>284.87100219727</ele>
        <time>2009-08-08T14:58:06Z</time>
      </trkpt>
      <trkpt lat="45.07431" lon="5.33023">
        <ele>285.59899902344</ele>
        <time>2009-08-08T14:58:12Z</time>
      </trkpt>
      <trkpt lat="45.07417" lon="5.3301">
        <ele>285.57000732422</ele>
        <time>2009-08-08T14:58:14Z</time>
      </trkpt>
      <trkpt lat="45.07375" lon="5.32986">
        <ele>285.8869934082</ele>
        <time>2009-08-08T14:58:20Z</time>
      </trkpt>
      <trkpt lat="45.07349" lon="5.3298">
        <ele>285.99899291992</ele>
        <time>2009-08-08T14:58:24Z</time>
      </trkpt>
      <trkpt lat="45.07312" lon="5.32997">
        <ele>286.12799072266</ele>
        <time>2009-08-08T14:58:29Z</time>
      </trkpt>
      <trkpt lat="45.07277" lon="5.32997">
        <ele>286.49798583984</ele>
        <time>2009-08-08T14:58:34Z</time>
      </trkpt>
      <trkpt lat="45.07264" lon="5.32991">
        <ele>286.4880065918</ele>
        <time>2009-08-08T14:58:36Z</time>
      </trkpt>
      <trkpt lat="45.07233" lon="5.32965">
        <ele>286.77899169922</ele>
        <time>2009-08-08T14:58:41Z</time>
      </trkpt>
      <trkpt lat="45.07217" lon="5.32945">
        <ele>286.86999511719</ele>
        <time>2009-08-08T14:58:44Z</time>
      </trkpt>
      <trkpt lat="45.07185" lon="5.32905">
        <ele>286.94500732422</ele>
        <time>2009-08-08T14:58:50Z</time>
      </trkpt>
      <trkpt lat="45.07152" lon="5.32887">
        <ele>287.14199829102</ele>
        <time>2009-08-08T14:58:55Z</time>
      </trkpt>
      <trkpt lat="45.0702" lon="5.32878">
        <ele>284.41799926758</ele>
        <time>2009-08-08T14:59:12Z</time>
      </trkpt>
      <trkpt lat="45.06905" lon="5.32872">
        <ele>278.96200561523</ele>
        <time>2009-08-08T14:59:24Z</time>
      </trkpt>
      <trkpt lat="45.0685" lon="5.32871">
        <ele>277.02801513672</ele>
        <time>2009-08-08T14:59:29Z</time>
      </trkpt>
      <trkpt lat="45.06796" lon="5.32866">
        <ele>275.18200683594</ele>
        <time>2009-08-08T14:59:34Z</time>
      </trkpt>
      <trkpt lat="45.06734" lon="5.32822">
        <ele>272.91101074219</ele>
        <time>2009-08-08T14:59:40Z</time>
      </trkpt>
      <trkpt lat="45.06691" lon="5.32778">
        <ele>271.21798706055</ele>
        <time>2009-08-08T14:59:45Z</time>
      </trkpt>
      <trkpt lat="45.06675" lon="5.3276">
        <ele>270.22100830078</ele>
        <time>2009-08-08T14:59:47Z</time>
      </trkpt>
      <trkpt lat="45.06618" lon="5.32701">
        <ele>268.85998535156</ele>
        <time>2009-08-08T14:59:54Z</time>
      </trkpt>
      <trkpt lat="45.06595" lon="5.32677">
        <ele>267.60101318359</ele>
        <time>2009-08-08T14:59:57Z</time>
      </trkpt>
      <trkpt lat="45.06543" lon="5.32622">
        <ele>267.28698730469</ele>
        <time>2009-08-08T15:00:04Z</time>
      </trkpt>
      <trkpt lat="45.06484" lon="5.32561">
        <ele>266.35000610352</ele>
        <time>2009-08-08T15:00:15Z</time>
      </trkpt>
      <trkpt lat="45.06493" lon="5.32545">
        <ele>266.2080078125</ele>
        <time>2009-08-08T15:00:19Z</time>
      </trkpt>
      <trkpt lat="45.06513" lon="5.32532">
        <ele>265.9880065918</ele>
        <time>2009-08-08T15:00:23Z</time>
      </trkpt>
      <trkpt lat="45.06535" lon="5.32519">
        <ele>266.31100463867</ele>
        <time>2009-08-08T15:00:27Z</time>
      </trkpt>
      <trkpt lat="45.06602" lon="5.32473">
        <ele>265.89001464844</ele>
        <time>2009-08-08T15:00:38Z</time>
      </trkpt>
      <trkpt lat="45.06681" lon="5.3242">
        <ele>265.31100463867</ele>
        <time>2009-08-08T15:00:50Z</time>
      </trkpt>
      <trkpt lat="45.06761" lon="5.32364">
        <ele>265.53601074219</ele>
        <time>2009-08-08T15:01:02Z</time>
      </trkpt>
      <trkpt lat="45.06883" lon="5.3224">
        <ele>265.56900024414</ele>
        <time>2009-08-08T15:01:22Z</time>
      </trkpt>
      <trkpt lat="45.06952" lon="5.32161">
        <ele>266.16101074219</ele>
        <time>2009-08-08T15:01:34Z</time>
      </trkpt>
      <trkpt lat="45.06988" lon="5.3211">
        <ele>263.98001098633</ele>
        <time>2009-08-08T15:01:40Z</time>
      </trkpt>
      <trkpt lat="45.0705" lon="5.31967">
        <ele>260.08999633789</ele>
        <time>2009-08-08T15:01:52Z</time>
      </trkpt>
      <trkpt lat="45.07069" lon="5.31835">
        <ele>259.23001098633</ele>
        <time>2009-08-08T15:02:02Z</time>
      </trkpt>
      <trkpt lat="45.07085" lon="5.3171">
        <ele>258.8630065918</ele>
        <time>2009-08-08T15:02:12Z</time>
      </trkpt>
      <trkpt lat="45.07117" lon="5.31536">
        <ele>258.4460144043</ele>
        <time>2009-08-08T15:02:27Z</time>
      </trkpt>
      <trkpt lat="45.07156" lon="5.31502">
        <ele>258.89401245117</ele>
        <time>2009-08-08T15:02:34Z</time>
      </trkpt>
      <trkpt lat="45.0717" lon="5.31507">
        <ele>258.25799560547</ele>
        <time>2009-08-08T15:02:36Z</time>
      </trkpt>
      <trkpt lat="45.07184" lon="5.31515">
        <ele>258.49700927734</ele>
        <time>2009-08-08T15:02:38Z</time>
      </trkpt>
      <trkpt lat="45.07229" lon="5.31514">
        <ele>259.13000488281</ele>
        <time>2009-08-08T15:02:44Z</time>
      </trkpt>
      <trkpt lat="45.07291" lon="5.3147">
        <ele>258.68899536133</ele>
        <time>2009-08-08T15:02:53Z</time>
      </trkpt>
      <trkpt lat="45.07323" lon="5.31446">
        <ele>258.79800415039</ele>
        <time>2009-08-08T15:02:58Z</time>
      </trkpt>
      <trkpt lat="45.07385" lon="5.3137">
        <ele>259.15899658203</ele>
        <time>2009-08-08T15:03:09Z</time>
      </trkpt>
      <trkpt lat="45.07474" lon="5.31303">
        <ele>259.58499145508</ele>
        <time>2009-08-08T15:03:23Z</time>
      </trkpt>
      <trkpt lat="45.07496" lon="5.31296">
        <ele>259.63000488281</ele>
        <time>2009-08-08T15:03:26Z</time>
      </trkpt>
      <trkpt lat="45.07528" lon="5.31269">
        <ele>259.87100219727</ele>
        <time>2009-08-08T15:03:31Z</time>
      </trkpt>
      <trkpt lat="45.07539" lon="5.31255">
        <ele>260.00900268555</ele>
        <time>2009-08-08T15:03:33Z</time>
      </trkpt>
      <trkpt lat="45.07579" lon="5.31239">
        <ele>260.10400390625</ele>
        <time>2009-08-08T15:03:39Z</time>
      </trkpt>
      <trkpt lat="45.07607" lon="5.31248">
        <ele>259.80499267578</ele>
        <time>2009-08-08T15:03:43Z</time>
      </trkpt>
      <trkpt lat="45.07635" lon="5.31245">
        <ele>260.03698730469</ele>
        <time>2009-08-08T15:03:47Z</time>
      </trkpt>
      <trkpt lat="45.07649" lon="5.3124">
        <ele>260.02700805664</ele>
        <time>2009-08-08T15:03:49Z</time>
      </trkpt>
      <trkpt lat="45.07678" lon="5.31242">
        <ele>260.08200073242</ele>
        <time>2009-08-08T15:03:53Z</time>
      </trkpt>
      <trkpt lat="45.07738" lon="5.31274">
        <ele>260.59100341797</ele>
        <time>2009-08-08T15:04:01Z</time>
      </trkpt>
      <trkpt lat="45.07763" lon="5.31301">
        <ele>260.88500976562</ele>
        <time>2009-08-08T15:04:05Z</time>
      </trkpt>
      <trkpt lat="45.07812" lon="5.31304">
        <ele>262.01300048828</ele>
        <time>2009-08-08T15:04:12Z</time>
      </trkpt>
      <trkpt lat="45.07829" lon="5.31273">
        <ele>263.05099487305</ele>
        <time>2009-08-08T15:04:16Z</time>
      </trkpt>
      <trkpt lat="45.07838" lon="5.31234">
        <ele>263.76998901367</ele>
        <time>2009-08-08T15:04:20Z</time>
      </trkpt>
      <trkpt lat="45.07812" lon="5.3117">
        <ele>265.95098876953</ele>
        <time>2009-08-08T15:04:28Z</time>
      </trkpt>
      <trkpt lat="45.07792" lon="5.3115">
        <ele>267.22799682617</ele>
        <time>2009-08-08T15:04:32Z</time>
      </trkpt>
      <trkpt lat="45.07778" lon="5.31088">
        <ele>269.15399169922</ele>
        <time>2009-08-08T15:04:40Z</time>
      </trkpt>
      <trkpt lat="45.07793" lon="5.31061">
        <ele>270.17700195312</ele>
        <time>2009-08-08T15:04:44Z</time>
      </trkpt>
      <trkpt lat="45.07861" lon="5.30983">
        <ele>274.02801513672</ele>
        <time>2009-08-08T15:04:58Z</time>
      </trkpt>
      <trkpt lat="45.07901" lon="5.30939">
        <ele>276.02301025391</ele>
        <time>2009-08-08T15:05:07Z</time>
      </trkpt>
      <trkpt lat="45.07907" lon="5.3093">
        <ele>276.35299682617</ele>
        <time>2009-08-08T15:05:09Z</time>
      </trkpt>
      <trkpt lat="45.07923" lon="5.30893">
        <ele>277.38598632812</ele>
        <time>2009-08-08T15:05:16Z</time>
      </trkpt>
      <trkpt lat="45.07928" lon="5.30876">
        <ele>278.23498535156</ele>
        <time>2009-08-08T15:05:19Z</time>
      </trkpt>
      <trkpt lat="45.07934" lon="5.30853">
        <ele>278.81298828125</ele>
        <time>2009-08-08T15:05:23Z</time>
      </trkpt>
      <trkpt lat="45.0794" lon="5.30819">
        <ele>279.17401123047</ele>
        <time>2009-08-08T15:05:28Z</time>
      </trkpt>
      <trkpt lat="45.08048" lon="5.30536">
        <ele>270.2380065918</ele>
        <time>2009-08-08T15:05:56Z</time>
      </trkpt>
      <trkpt lat="45.08089" lon="5.30578">
        <ele>268.10998535156</ele>
        <time>2009-08-08T15:06:01Z</time>
      </trkpt>
      <trkpt lat="45.08134" lon="5.30622">
        <ele>265.98001098633</ele>
        <time>2009-08-08T15:06:06Z</time>
      </trkpt>
      <trkpt lat="45.08192" lon="5.30673">
        <ele>262.82699584961</ele>
        <time>2009-08-08T15:06:12Z</time>
      </trkpt>
      <trkpt lat="45.08235" lon="5.30696">
        <ele>261.0539855957</ele>
        <time>2009-08-08T15:06:16Z</time>
      </trkpt>
      <trkpt lat="45.08327" lon="5.30726">
        <ele>255.9700012207</ele>
        <time>2009-08-08T15:06:24Z</time>
      </trkpt>
      <trkpt lat="45.08387" lon="5.30741">
        <ele>253.64500427246</ele>
        <time>2009-08-08T15:06:29Z</time>
      </trkpt>
      <trkpt lat="45.08469" lon="5.30782">
        <ele>247.17799377441</ele>
        <time>2009-08-08T15:06:36Z</time>
      </trkpt>
      <trkpt lat="45.08537" lon="5.30756">
        <ele>244.76100158691</ele>
        <time>2009-08-08T15:06:42Z</time>
      </trkpt>
      <trkpt lat="45.08543" lon="5.30741">
        <ele>245.89199829102</ele>
        <time>2009-08-08T15:06:43Z</time>
      </trkpt>
      <trkpt lat="45.08565" lon="5.30675">
        <ele>243.37899780273</ele>
        <time>2009-08-08T15:06:47Z</time>
      </trkpt>
      <trkpt lat="45.0859" lon="5.30605">
        <ele>238.67399597168</ele>
        <time>2009-08-08T15:06:51Z</time>
      </trkpt>
      <trkpt lat="45.08612" lon="5.30534">
        <ele>237.68899536133</ele>
        <time>2009-08-08T15:06:55Z</time>
      </trkpt>
      <trkpt lat="45.08637" lon="5.30468">
        <ele>234.24899291992</ele>
        <time>2009-08-08T15:06:59Z</time>
      </trkpt>
      <trkpt lat="45.08711" lon="5.30321">
        <ele>231.82200622559</ele>
        <time>2009-08-08T15:07:10Z</time>
      </trkpt>
      <trkpt lat="45.08759" lon="5.3026">
        <ele>231.63000488281</ele>
        <time>2009-08-08T15:07:16Z</time>
      </trkpt>
      <trkpt lat="45.08863" lon="5.30095">
        <ele>230.375</ele>
        <time>2009-08-08T15:07:31Z</time>
      </trkpt>
      <trkpt lat="45.08952" lon="5.29949">
        <ele>229.89399719238</ele>
        <time>2009-08-08T15:07:45Z</time>
      </trkpt>
      <trkpt lat="45.08987" lon="5.29926">
        <ele>228.95500183106</ele>
        <time>2009-08-08T15:07:50Z</time>
      </trkpt>
      <trkpt lat="45.0902" lon="5.29916">
        <ele>228.78900146484</ele>
        <time>2009-08-08T15:07:56Z</time>
      </trkpt>
      <trkpt lat="45.09037" lon="5.29886">
        <ele>229.38900756836</ele>
        <time>2009-08-08T15:08:01Z</time>
      </trkpt>
      <trkpt lat="45.09034" lon="5.29817">
        <ele>228.48899841309</ele>
        <time>2009-08-08T15:08:08Z</time>
      </trkpt>
      <trkpt lat="45.09041" lon="5.29781">
        <ele>228.80799865723</ele>
        <time>2009-08-08T15:08:12Z</time>
      </trkpt>
      <trkpt lat="45.09113" lon="5.29649">
        <ele>227.73300170898</ele>
        <time>2009-08-08T15:08:28Z</time>
      </trkpt>
      <trkpt lat="45.0918" lon="5.29536">
        <ele>227.33200073242</ele>
        <time>2009-08-08T15:08:42Z</time>
      </trkpt>
      <trkpt lat="45.09246" lon="5.29385">
        <ele>226.69599914551</ele>
        <time>2009-08-08T15:08:58Z</time>
      </trkpt>
      <trkpt lat="45.09308" lon="5.29231">
        <ele>225.61099243164</ele>
        <time>2009-08-08T15:09:14Z</time>
      </trkpt>
      <trkpt lat="45.09367" lon="5.29096">
        <ele>221.49800109863</ele>
        <time>2009-08-08T15:09:27Z</time>
      </trkpt>
      <trkpt lat="45.09412" lon="5.2896">
        <ele>220.57499694824</ele>
        <time>2009-08-08T15:09:39Z</time>
      </trkpt>
      <trkpt lat="45.09449" lon="5.28836">
        <ele>219.91999816894</ele>
        <time>2009-08-08T15:09:51Z</time>
      </trkpt>
      <trkpt lat="45.09506" lon="5.28671">
        <ele>217.68699645996</ele>
        <time>2009-08-08T15:10:07Z</time>
      </trkpt>
      <trkpt lat="45.09571" lon="5.2859">
        <ele>218.96499633789</ele>
        <time>2009-08-08T15:10:19Z</time>
      </trkpt>
      <trkpt lat="45.09619" lon="5.28559">
        <ele>220.92999267578</ele>
        <time>2009-08-08T15:10:28Z</time>
      </trkpt>
      <trkpt lat="45.09653" lon="5.28536">
        <ele>221.80700683594</ele>
        <time>2009-08-08T15:10:34Z</time>
      </trkpt>
      <trkpt lat="45.09683" lon="5.28511">
        <ele>222.27699279785</ele>
        <time>2009-08-08T15:10:39Z</time>
      </trkpt>
      <trkpt lat="45.09791" lon="5.28406">
        <ele>223.96800231934</ele>
        <time>2009-08-08T15:10:57Z</time>
      </trkpt>
      <trkpt lat="45.09903" lon="5.28298">
        <ele>222.31799316406</ele>
        <time>2009-08-08T15:11:16Z</time>
      </trkpt>
      <trkpt lat="45.10015" lon="5.2819">
        <ele>221.23100280762</ele>
        <time>2009-08-08T15:11:34Z</time>
      </trkpt>
      <trkpt lat="45.10104" lon="5.28106">
        <ele>220.3690032959</ele>
        <time>2009-08-08T15:11:48Z</time>
      </trkpt>
      <trkpt lat="45.1021" lon="5.28005">
        <ele>218.44200134277</ele>
        <time>2009-08-08T15:12:02Z</time>
      </trkpt>
      <trkpt lat="45.1025" lon="5.27965">
        <ele>217.76800537109</ele>
        <time>2009-08-08T15:12:07Z</time>
      </trkpt>
      <trkpt lat="45.10394" lon="5.27828">
        <ele>214.62399291992</ele>
        <time>2009-08-08T15:12:24Z</time>
      </trkpt>
      <trkpt lat="45.10511" lon="5.27716">
        <ele>212.43099975586</ele>
        <time>2009-08-08T15:12:39Z</time>
      </trkpt>
      <trkpt lat="45.10568" lon="5.27664">
        <ele>211.65100097656</ele>
        <time>2009-08-08T15:12:47Z</time>
      </trkpt>
      <trkpt lat="45.10632" lon="5.2766">
        <ele>211.55000305176</ele>
        <time>2009-08-08T15:12:55Z</time>
      </trkpt>
      <trkpt lat="45.10653" lon="5.27678">
        <ele>211.2619934082</ele>
        <time>2009-08-08T15:12:58Z</time>
      </trkpt>
      <trkpt lat="45.10765" lon="5.27813">
        <ele>210.61999511719</ele>
        <time>2009-08-08T15:13:16Z</time>
      </trkpt>
      <trkpt lat="45.10879" lon="5.27948">
        <ele>209.5</ele>
        <time>2009-08-08T15:13:35Z</time>
      </trkpt>
      <trkpt lat="45.10913" lon="5.27988">
        <ele>207.61399841309</ele>
        <time>2009-08-08T15:13:40Z</time>
      </trkpt>
      <trkpt lat="45.10976" lon="5.28063">
        <ele>205.02799987793</ele>
        <time>2009-08-08T15:13:48Z</time>
      </trkpt>
      <trkpt lat="45.10991" lon="5.28082">
        <ele>204.30599975586</ele>
        <time>2009-08-08T15:13:50Z</time>
      </trkpt>
      <trkpt lat="45.11014" lon="5.28108">
        <ele>202.74499511719</ele>
        <time>2009-08-08T15:13:53Z</time>
      </trkpt>
      <trkpt lat="45.11069" lon="5.28102">
        <ele>200.95700073242</ele>
        <time>2009-08-08T15:13:59Z</time>
      </trkpt>
      <trkpt lat="45.11076" lon="5.28091">
        <ele>199.72599792481</ele>
        <time>2009-08-08T15:14:00Z</time>
      </trkpt>
      <trkpt lat="45.1115" lon="5.27969">
        <ele>198.2140045166</ele>
        <time>2009-08-08T15:14:12Z</time>
      </trkpt>
      <trkpt lat="45.11178" lon="5.27925">
        <ele>197.48399353027</ele>
        <time>2009-08-08T15:14:17Z</time>
      </trkpt>
      <trkpt lat="45.11187" lon="5.27862">
        <ele>197.15800476074</ele>
        <time>2009-08-08T15:14:24Z</time>
      </trkpt>
      <trkpt lat="45.11147" lon="5.2773">
        <ele>198.51600646973</ele>
        <time>2009-08-08T15:14:41Z</time>
      </trkpt>
      <trkpt lat="45.11143" lon="5.27711">
        <ele>198.66600036621</ele>
        <time>2009-08-08T15:14:43Z</time>
      </trkpt>
      <trkpt lat="45.1114" lon="5.27664">
        <ele>200.05400085449</ele>
        <time>2009-08-08T15:14:48Z</time>
      </trkpt>
      <trkpt lat="45.11134" lon="5.27608">
        <ele>201.55900573731</ele>
        <time>2009-08-08T15:14:55Z</time>
      </trkpt>
      <trkpt lat="45.11151" lon="5.27551">
        <ele>203.27400207519</ele>
        <time>2009-08-08T15:15:03Z</time>
      </trkpt>
      <trkpt lat="45.11178" lon="5.27512">
        <ele>204.87399291992</ele>
        <time>2009-08-08T15:15:11Z</time>
      </trkpt>
      <trkpt lat="45.11226" lon="5.27477">
        <ele>206.6609954834</ele>
        <time>2009-08-08T15:15:22Z</time>
      </trkpt>
      <trkpt lat="45.11231" lon="5.27475">
        <ele>206.82699584961</ele>
        <time>2009-08-08T15:15:23Z</time>
      </trkpt>
      <trkpt lat="45.11315" lon="5.27469">
        <ele>210.98399353027</ele>
        <time>2009-08-08T15:15:39Z</time>
      </trkpt>
      <trkpt lat="45.11385" lon="5.27467">
        <ele>214.66499328613</ele>
        <time>2009-08-08T15:15:52Z</time>
      </trkpt>
      <trkpt lat="45.11488" lon="5.27466">
        <ele>220.13200378418</ele>
        <time>2009-08-08T15:16:12Z</time>
      </trkpt>
      <trkpt lat="45.11506" lon="5.27467">
        <ele>221.27299499512</ele>
        <time>2009-08-08T15:16:16Z</time>
      </trkpt>
      <trkpt lat="45.11608" lon="5.27489">
        <ele>226.74200439453</ele>
        <time>2009-08-08T15:16:39Z</time>
      </trkpt>
      <trkpt lat="45.11658" lon="5.27523">
        <ele>229.72300720215</ele>
        <time>2009-08-08T15:16:54Z</time>
      </trkpt>
      <trkpt lat="45.117" lon="5.27581">
        <ele>233.14999389648</ele>
        <time>2009-08-08T15:17:11Z</time>
      </trkpt>
      <trkpt lat="45.1173" lon="5.27619">
        <ele>234.97900390625</ele>
        <time>2009-08-08T15:17:25Z</time>
      </trkpt>
      <trkpt lat="45.11786" lon="5.2767">
        <ele>238.20500183106</ele>
        <time>2009-08-08T15:17:42Z</time>
      </trkpt>
      <trkpt lat="45.11855" lon="5.27709">
        <ele>242.09399414062</ele>
        <time>2009-08-08T15:17:59Z</time>
      </trkpt>
      <trkpt lat="45.11904" lon="5.27739">
        <ele>245.26800537109</ele>
        <time>2009-08-08T15:18:10Z</time>
      </trkpt>
      <trkpt lat="45.11961" lon="5.27811">
        <ele>249.38200378418</ele>
        <time>2009-08-08T15:18:30Z</time>
      </trkpt>
      <trkpt lat="45.12005" lon="5.27878">
        <ele>251.92300415039</ele>
        <time>2009-08-08T15:18:49Z</time>
      </trkpt>
      <trkpt lat="45.12061" lon="5.27916">
        <ele>254.64700317383</ele>
        <time>2009-08-08T15:19:07Z</time>
      </trkpt>
      <trkpt lat="45.12112" lon="5.2796">
        <ele>257.73199462891</ele>
        <time>2009-08-08T15:19:25Z</time>
      </trkpt>
      <trkpt lat="45.12152" lon="5.28023">
        <ele>259.41400146484</ele>
        <time>2009-08-08T15:19:43Z</time>
      </trkpt>
      <trkpt lat="45.12184" lon="5.28076">
        <ele>261.73999023438</ele>
        <time>2009-08-08T15:19:57Z</time>
      </trkpt>
      <trkpt lat="45.12241" lon="5.28143">
        <ele>263.34899902344</ele>
        <time>2009-08-08T15:20:15Z</time>
      </trkpt>
      <trkpt lat="45.12313" lon="5.28156">
        <ele>264.04998779297</ele>
        <time>2009-08-08T15:20:31Z</time>
      </trkpt>
      <trkpt lat="45.12396" lon="5.28127">
        <ele>264.97900390625</ele>
        <time>2009-08-08T15:20:47Z</time>
      </trkpt>
      <trkpt lat="45.1242" lon="5.28106">
        <ele>265.33700561523</ele>
        <time>2009-08-08T15:20:52Z</time>
      </trkpt>
      <trkpt lat="45.12439" lon="5.28083">
        <ele>266.30099487305</ele>
        <time>2009-08-08T15:20:57Z</time>
      </trkpt>
      <trkpt lat="45.12456" lon="5.28055">
        <ele>265.67098999023</ele>
        <time>2009-08-08T15:21:07Z</time>
      </trkpt>
      <trkpt lat="45.12457" lon="5.28055">
        <ele>265.90301513672</ele>
        <time>2009-08-08T15:21:09Z</time>
      </trkpt>
      <trkpt lat="45.12457" lon="5.28034">
        <ele>266.13800048828</ele>
        <time>2009-08-08T15:21:27Z</time>
      </trkpt>
      <trkpt lat="45.12457" lon="5.2803">
        <ele>265.95098876953</ele>
        <time>2009-08-08T15:21:28Z</time>
      </trkpt>
      <trkpt lat="45.1244" lon="5.28002">
        <ele>266.41799926758</ele>
        <time>2009-08-08T15:21:34Z</time>
      </trkpt>
      <trkpt lat="45.12372" lon="5.27918">
        <ele>265.47299194336</ele>
        <time>2009-08-08T15:21:48Z</time>
      </trkpt>
      <trkpt lat="45.12267" lon="5.27775">
        <ele>264.63299560547</ele>
        <time>2009-08-08T15:22:06Z</time>
      </trkpt>
      <trkpt lat="45.12197" lon="5.2768">
        <ele>263.92098999023</ele>
        <time>2009-08-08T15:22:16Z</time>
      </trkpt>
      <trkpt lat="45.12175" lon="5.2765">
        <ele>264.19198608398</ele>
        <time>2009-08-08T15:22:19Z</time>
      </trkpt>
      <trkpt lat="45.12107" lon="5.27556">
        <ele>263.9700012207</ele>
        <time>2009-08-08T15:22:28Z</time>
      </trkpt>
      <trkpt lat="45.12014" lon="5.27429">
        <ele>262.52398681641</ele>
        <time>2009-08-08T15:22:40Z</time>
      </trkpt>
      <trkpt lat="45.11899" lon="5.27269">
        <ele>261.05899047852</ele>
        <time>2009-08-08T15:22:55Z</time>
      </trkpt>
      <trkpt lat="45.11747" lon="5.27059">
        <ele>259.4700012207</ele>
        <time>2009-08-08T15:23:14Z</time>
      </trkpt>
      <trkpt lat="45.11563" lon="5.26806">
        <ele>256.34698486328</ele>
        <time>2009-08-08T15:23:35Z</time>
      </trkpt>
      <trkpt lat="45.11391" lon="5.26569">
        <ele>253.64500427246</ele>
        <time>2009-08-08T15:23:54Z</time>
      </trkpt>
      <trkpt lat="45.1124" lon="5.2636">
        <ele>252.17900085449</ele>
        <time>2009-08-08T15:24:11Z</time>
      </trkpt>
      <trkpt lat="45.11072" lon="5.26129">
        <ele>251.54400634766</ele>
        <time>2009-08-08T15:24:30Z</time>
      </trkpt>
      <trkpt lat="45.10935" lon="5.25941">
        <ele>249.41200256348</ele>
        <time>2009-08-08T15:24:47Z</time>
      </trkpt>
      <trkpt lat="45.10804" lon="5.25761">
        <ele>249.44200134277</ele>
        <time>2009-08-08T15:25:03Z</time>
      </trkpt>
      <trkpt lat="45.10701" lon="5.25619">
        <ele>249.58500671387</ele>
        <time>2009-08-08T15:25:15Z</time>
      </trkpt>
      <trkpt lat="45.10611" lon="5.25496">
        <ele>248.50100708008</ele>
        <time>2009-08-08T15:25:25Z</time>
      </trkpt>
      <trkpt lat="45.10522" lon="5.25372">
        <ele>249.13000488281</ele>
        <time>2009-08-08T15:25:35Z</time>
      </trkpt>
      <trkpt lat="45.10344" lon="5.25128">
        <ele>248.64599609375</ele>
        <time>2009-08-08T15:25:56Z</time>
      </trkpt>
      <trkpt lat="45.1019" lon="5.24904">
        <ele>247.75799560547</ele>
        <time>2009-08-08T15:26:16Z</time>
      </trkpt>
      <trkpt lat="45.10118" lon="5.24787">
        <ele>245.80700683594</ele>
        <time>2009-08-08T15:26:28Z</time>
      </trkpt>
      <trkpt lat="45.10107" lon="5.24764">
        <ele>245.36700439453</ele>
        <time>2009-08-08T15:26:36Z</time>
      </trkpt>
      <trkpt lat="45.10107" lon="5.24764">
        <ele>245.24800109863</ele>
        <time>2009-08-08T15:26:37Z</time>
      </trkpt>
      <trkpt lat="45.10105" lon="5.24761">
        <ele>245.00500488281</ele>
        <time>2009-08-08T15:26:53Z</time>
      </trkpt>
      <trkpt lat="45.10104" lon="5.24759">
        <ele>244.94999694824</ele>
        <time>2009-08-08T15:26:54Z</time>
      </trkpt>
      <trkpt lat="45.10078" lon="5.24703">
        <ele>244.83000183106</ele>
        <time>2009-08-08T15:27:04Z</time>
      </trkpt>
      <trkpt lat="45.10072" lon="5.24686">
        <ele>244.87899780273</ele>
        <time>2009-08-08T15:27:06Z</time>
      </trkpt>
      <trkpt lat="45.10024" lon="5.24559">
        <ele>244.26100158691</ele>
        <time>2009-08-08T15:27:19Z</time>
      </trkpt>
      <trkpt lat="45.09951" lon="5.24368">
        <ele>244.15199279785</ele>
        <time>2009-08-08T15:27:37Z</time>
      </trkpt>
      <trkpt lat="45.09869" lon="5.24153">
        <ele>243.40699768066</ele>
        <time>2009-08-08T15:27:55Z</time>
      </trkpt>
      <trkpt lat="45.09769" lon="5.23889">
        <ele>241.11500549316</ele>
        <time>2009-08-08T15:28:16Z</time>
      </trkpt>
      <trkpt lat="45.09668" lon="5.23621">
        <ele>240.98500061035</ele>
        <time>2009-08-08T15:28:36Z</time>
      </trkpt>
      <trkpt lat="45.09576" lon="5.23379">
        <ele>241.82000732422</ele>
        <time>2009-08-08T15:28:53Z</time>
      </trkpt>
      <trkpt lat="45.09494" lon="5.23162">
        <ele>241.33799743652</ele>
        <time>2009-08-08T15:29:10Z</time>
      </trkpt>
      <trkpt lat="45.09418" lon="5.2296">
        <ele>235.22799682617</ele>
        <time>2009-08-08T15:29:27Z</time>
      </trkpt>
      <trkpt lat="45.09345" lon="5.22773">
        <ele>229.20300292969</ele>
        <time>2009-08-08T15:29:41Z</time>
      </trkpt>
      <trkpt lat="45.09305" lon="5.22667">
        <ele>227.55799865723</ele>
        <time>2009-08-08T15:29:49Z</time>
      </trkpt>
      <trkpt lat="45.09242" lon="5.22534">
        <ele>222.48599243164</ele>
        <time>2009-08-08T15:29:59Z</time>
      </trkpt>
      <trkpt lat="45.09217" lon="5.22492">
        <ele>218.49699401856</ele>
        <time>2009-08-08T15:30:02Z</time>
      </trkpt>
      <trkpt lat="45.09199" lon="5.22463">
        <ele>216.52499389648</ele>
        <time>2009-08-08T15:30:04Z</time>
      </trkpt>
      <trkpt lat="45.09162" lon="5.22402">
        <ele>214.12899780273</ele>
        <time>2009-08-08T15:30:08Z</time>
      </trkpt>
      <trkpt lat="45.09133" lon="5.22356">
        <ele>212.42900085449</ele>
        <time>2009-08-08T15:30:11Z</time>
      </trkpt>
      <trkpt lat="45.09017" lon="5.22173">
        <ele>203.34700012207</ele>
        <time>2009-08-08T15:30:23Z</time>
      </trkpt>
      <trkpt lat="45.08937" lon="5.22056">
        <ele>203.13800048828</ele>
        <time>2009-08-08T15:30:33Z</time>
      </trkpt>
      <trkpt lat="45.08819" lon="5.2193">
        <ele>203.35600280762</ele>
        <time>2009-08-08T15:30:48Z</time>
      </trkpt>
      <trkpt lat="45.08693" lon="5.21766">
        <ele>203.88200378418</ele>
        <time>2009-08-08T15:31:06Z</time>
      </trkpt>
      <trkpt lat="45.08598" lon="5.21573">
        <ele>198.10200500488</ele>
        <time>2009-08-08T15:31:22Z</time>
      </trkpt>
      <trkpt lat="45.08556" lon="5.21448">
        <ele>191.49099731445</ele>
        <time>2009-08-08T15:31:30Z</time>
      </trkpt>
      <trkpt lat="45.08526" lon="5.21347">
        <ele>186.87399291992</ele>
        <time>2009-08-08T15:31:36Z</time>
      </trkpt>
      <trkpt lat="45.08511" lon="5.21295">
        <ele>184.72799682617</ele>
        <time>2009-08-08T15:31:39Z</time>
      </trkpt>
      <trkpt lat="45.08506" lon="5.21278">
        <ele>184.07099914551</ele>
        <time>2009-08-08T15:31:40Z</time>
      </trkpt>
      <trkpt lat="45.08482" lon="5.21192">
        <ele>181.10400390625</ele>
        <time>2009-08-08T15:31:45Z</time>
      </trkpt>
      <trkpt lat="45.08484" lon="5.21138">
        <ele>179.47999572754</ele>
        <time>2009-08-08T15:31:48Z</time>
      </trkpt>
      <trkpt lat="45.08488" lon="5.21121">
        <ele>178.81700134277</ele>
        <time>2009-08-08T15:31:49Z</time>
      </trkpt>
      <trkpt lat="45.0851" lon="5.21059">
        <ele>176.5119934082</ele>
        <time>2009-08-08T15:31:53Z</time>
      </trkpt>
      <trkpt lat="45.0852" lon="5.21026">
        <ele>176</ele>
        <time>2009-08-08T15:31:55Z</time>
      </trkpt>
      <trkpt lat="45.08527" lon="5.20958">
        <ele>173.41499328613</ele>
        <time>2009-08-08T15:31:59Z</time>
      </trkpt>
      <trkpt lat="45.08524" lon="5.20761">
        <ele>171.8809967041</ele>
        <time>2009-08-08T15:32:11Z</time>
      </trkpt>
      <trkpt lat="45.08523" lon="5.20657">
        <ele>171.72599792481</ele>
        <time>2009-08-08T15:32:18Z</time>
      </trkpt>
      <trkpt lat="45.08522" lon="5.20587">
        <ele>171.87600708008</ele>
        <time>2009-08-08T15:32:23Z</time>
      </trkpt>
      <trkpt lat="45.0852" lon="5.20489">
        <ele>171.40699768066</ele>
        <time>2009-08-08T15:32:30Z</time>
      </trkpt>
      <trkpt lat="45.08516" lon="5.20338">
        <ele>171.35499572754</ele>
        <time>2009-08-08T15:32:41Z</time>
      </trkpt>
      <trkpt lat="45.08512" lon="5.20145">
        <ele>170.30200195312</ele>
        <time>2009-08-08T15:32:56Z</time>
      </trkpt>
      <trkpt lat="45.08511" lon="5.19972">
        <ele>170.16499328613</ele>
        <time>2009-08-08T15:33:10Z</time>
      </trkpt>
      <trkpt lat="45.08512" lon="5.19732">
        <ele>168.33500671387</ele>
        <time>2009-08-08T15:33:29Z</time>
      </trkpt>
      <trkpt lat="45.0852" lon="5.19487">
        <ele>165.96099853516</ele>
        <time>2009-08-08T15:33:49Z</time>
      </trkpt>
      <trkpt lat="45.08537" lon="5.19267">
        <ele>162.75100708008</ele>
        <time>2009-08-08T15:34:05Z</time>
      </trkpt>
      <trkpt lat="45.08558" lon="5.18983">
        <ele>160.67900085449</ele>
        <time>2009-08-08T15:34:27Z</time>
      </trkpt>
      <trkpt lat="45.08567" lon="5.18849">
        <ele>161.1549987793</ele>
        <time>2009-08-08T15:34:37Z</time>
      </trkpt>
      <trkpt lat="45.08573" lon="5.18773">
        <ele>160.89999389648</ele>
        <time>2009-08-08T15:34:44Z</time>
      </trkpt>
      <trkpt lat="45.08574" lon="5.18761">
        <ele>160.68200683594</ele>
        <time>2009-08-08T15:34:45Z</time>
      </trkpt>
      <trkpt lat="45.08575" lon="5.1857">
        <ele>160.14999389648</ele>
        <time>2009-08-08T15:35:00Z</time>
      </trkpt>
      <trkpt lat="45.08572" lon="5.1848">
        <ele>159.74099731445</ele>
        <time>2009-08-08T15:35:07Z</time>
      </trkpt>
      <trkpt lat="45.0857" lon="5.18307">
        <ele>164.07000732422</ele>
        <time>2009-08-08T15:35:22Z</time>
      </trkpt>
      <trkpt lat="45.08541" lon="5.18189">
        <ele>166.52200317383</ele>
        <time>2009-08-08T15:35:36Z</time>
      </trkpt>
      <trkpt lat="45.08511" lon="5.18098">
        <ele>168.2380065918</ele>
        <time>2009-08-08T15:35:50Z</time>
      </trkpt>
      <trkpt lat="45.08486" lon="5.18024">
        <ele>169.81100463867</ele>
        <time>2009-08-08T15:36:03Z</time>
      </trkpt>
      <trkpt lat="45.08443" lon="5.17938">
        <ele>171.60600280762</ele>
        <time>2009-08-08T15:36:18Z</time>
      </trkpt>
      <trkpt lat="45.0838" lon="5.17823">
        <ele>174.14700317383</ele>
        <time>2009-08-08T15:36:38Z</time>
      </trkpt>
      <trkpt lat="45.08317" lon="5.1774">
        <ele>174.76800537109</ele>
        <time>2009-08-08T15:36:54Z</time>
      </trkpt>
      <trkpt lat="45.08241" lon="5.17645">
        <ele>175.73899841309</ele>
        <time>2009-08-08T15:37:11Z</time>
      </trkpt>
      <trkpt lat="45.08221" lon="5.17618">
        <ele>176.36399841309</ele>
        <time>2009-08-08T15:37:16Z</time>
      </trkpt>
      <trkpt lat="45.08144" lon="5.17502">
        <ele>178.80700683594</ele>
        <time>2009-08-08T15:37:36Z</time>
      </trkpt>
      <trkpt lat="45.08076" lon="5.17388">
        <ele>180.63000488281</ele>
        <time>2009-08-08T15:37:56Z</time>
      </trkpt>
      <trkpt lat="45.08006" lon="5.17288">
        <ele>184.36599731445</ele>
        <time>2009-08-08T15:38:13Z</time>
      </trkpt>
      <trkpt lat="45.0798" lon="5.17249">
        <ele>186.33999633789</ele>
        <time>2009-08-08T15:38:19Z</time>
      </trkpt>
      <trkpt lat="45.0795" lon="5.17198">
        <ele>188.45300292969</ele>
        <time>2009-08-08T15:38:25Z</time>
      </trkpt>
      <trkpt lat="45.07918" lon="5.17142">
        <ele>189.56599426269</ele>
        <time>2009-08-08T15:38:31Z</time>
      </trkpt>
      <trkpt lat="45.07893" lon="5.17095">
        <ele>190.00900268555</ele>
        <time>2009-08-08T15:38:36Z</time>
      </trkpt>
      <trkpt lat="45.07827" lon="5.1693">
        <ele>190.54699707031</ele>
        <time>2009-08-08T15:38:54Z</time>
      </trkpt>
      <trkpt lat="45.0778" lon="5.1675">
        <ele>192.05999755859</ele>
        <time>2009-08-08T15:39:14Z</time>
      </trkpt>
      <trkpt lat="45.07753" lon="5.16625">
        <ele>192.92399597168</ele>
        <time>2009-08-08T15:39:29Z</time>
      </trkpt>
      <trkpt lat="45.07718" lon="5.1647">
        <ele>193.24499511719</ele>
        <time>2009-08-08T15:39:47Z</time>
      </trkpt>
      <trkpt lat="45.07687" lon="5.16332">
        <ele>192.42100524902</ele>
        <time>2009-08-08T15:40:02Z</time>
      </trkpt>
      <trkpt lat="45.07674" lon="5.1627">
        <ele>192.63800048828</ele>
        <time>2009-08-08T15:40:08Z</time>
      </trkpt>
      <trkpt lat="45.07684" lon="5.16232">
        <ele>192.69400024414</ele>
        <time>2009-08-08T15:40:12Z</time>
      </trkpt>
      <trkpt lat="45.07745" lon="5.16137">
        <ele>194.79600524902</ele>
        <time>2009-08-08T15:40:26Z</time>
      </trkpt>
      <trkpt lat="45.07779" lon="5.16083">
        <ele>197.21600341797</ele>
        <time>2009-08-08T15:40:36Z</time>
      </trkpt>
      <trkpt lat="45.078" lon="5.16018">
        <ele>199.33200073242</ele>
        <time>2009-08-08T15:40:48Z</time>
      </trkpt>
      <trkpt lat="45.0781" lon="5.15981">
        <ele>200.58299255371</ele>
        <time>2009-08-08T15:40:55Z</time>
      </trkpt>
      <trkpt lat="45.07837" lon="5.15882">
        <ele>201.68400573731</ele>
        <time>2009-08-08T15:41:11Z</time>
      </trkpt>
      <trkpt lat="45.07873" lon="5.15734">
        <ele>202.84399414062</ele>
        <time>2009-08-08T15:41:30Z</time>
      </trkpt>
      <trkpt lat="45.07902" lon="5.15574">
        <ele>205.0059967041</ele>
        <time>2009-08-08T15:41:49Z</time>
      </trkpt>
      <trkpt lat="45.07929" lon="5.15452">
        <ele>206.69200134277</ele>
        <time>2009-08-08T15:42:04Z</time>
      </trkpt>
      <trkpt lat="45.07967" lon="5.15307">
        <ele>205.83200073242</ele>
        <time>2009-08-08T15:42:20Z</time>
      </trkpt>
      <trkpt lat="45.07992" lon="5.15141">
        <ele>206.16200256348</ele>
        <time>2009-08-08T15:42:35Z</time>
      </trkpt>
      <trkpt lat="45.08003" lon="5.15071">
        <ele>207.94400024414</ele>
        <time>2009-08-08T15:42:42Z</time>
      </trkpt>
      <trkpt lat="45.08036" lon="5.14942">
        <ele>204.07899475098</ele>
        <time>2009-08-08T15:42:57Z</time>
      </trkpt>
      <trkpt lat="45.08061" lon="5.14843">
        <ele>202.8690032959</ele>
        <time>2009-08-08T15:43:07Z</time>
      </trkpt>
      <trkpt lat="45.08084" lon="5.14775">
        <ele>202.83099365234</ele>
        <time>2009-08-08T15:43:15Z</time>
      </trkpt>
      <trkpt lat="45.08113" lon="5.14697">
        <ele>202.83399963379</ele>
        <time>2009-08-08T15:43:25Z</time>
      </trkpt>
      <trkpt lat="45.08159" lon="5.14565">
        <ele>205.15899658203</ele>
        <time>2009-08-08T15:43:44Z</time>
      </trkpt>
      <trkpt lat="45.08175" lon="5.14504">
        <ele>207.35800170898</ele>
        <time>2009-08-08T15:43:54Z</time>
      </trkpt>
      <trkpt lat="45.08204" lon="5.14409">
        <ele>205.92199707031</ele>
        <time>2009-08-08T15:44:09Z</time>
      </trkpt>
      <trkpt lat="45.08242" lon="5.14296">
        <ele>205.3630065918</ele>
        <time>2009-08-08T15:44:26Z</time>
      </trkpt>
      <trkpt lat="45.0825" lon="5.14274">
        <ele>205.13400268555</ele>
        <time>2009-08-08T15:44:29Z</time>
      </trkpt>
      <trkpt lat="45.08252" lon="5.14266">
        <ele>205.50399780273</ele>
        <time>2009-08-08T15:44:30Z</time>
      </trkpt>
      <trkpt lat="45.08298" lon="5.14106">
        <ele>203.43699645996</ele>
        <time>2009-08-08T15:44:48Z</time>
      </trkpt>
      <trkpt lat="45.08342" lon="5.13956">
        <ele>202.46299743652</ele>
        <time>2009-08-08T15:45:05Z</time>
      </trkpt>
      <trkpt lat="45.08392" lon="5.13843">
        <ele>203.73300170898</ele>
        <time>2009-08-08T15:45:20Z</time>
      </trkpt>
      <trkpt lat="45.08463" lon="5.1375">
        <ele>202.89399719238</ele>
        <time>2009-08-08T15:45:35Z</time>
      </trkpt>
      <trkpt lat="45.08572" lon="5.13608">
        <ele>202.95500183106</ele>
        <time>2009-08-08T15:45:58Z</time>
      </trkpt>
      <trkpt lat="45.08626" lon="5.13499">
        <ele>202.71200561523</ele>
        <time>2009-08-08T15:46:13Z</time>
      </trkpt>
      <trkpt lat="45.0864" lon="5.1347">
        <ele>203.22399902344</ele>
        <time>2009-08-08T15:46:17Z</time>
      </trkpt>
      <trkpt lat="45.08701" lon="5.13322">
        <ele>203.13600158691</ele>
        <time>2009-08-08T15:46:36Z</time>
      </trkpt>
      <trkpt lat="45.08775" lon="5.13153">
        <ele>202.78500366211</ele>
        <time>2009-08-08T15:46:57Z</time>
      </trkpt>
      <trkpt lat="45.08778" lon="5.13146">
        <ele>202.83999633789</ele>
        <time>2009-08-08T15:46:58Z</time>
      </trkpt>
      <trkpt lat="45.08802" lon="5.13037">
        <ele>202.46899414062</ele>
        <time>2009-08-08T15:47:10Z</time>
      </trkpt>
      <trkpt lat="45.08803" lon="5.13027">
        <ele>202.18099975586</ele>
        <time>2009-08-08T15:47:11Z</time>
      </trkpt>
      <trkpt lat="45.08804" lon="5.12936">
        <ele>203.2619934082</ele>
        <time>2009-08-08T15:47:21Z</time>
      </trkpt>
      <trkpt lat="45.0882" lon="5.1284">
        <ele>205.32899475098</ele>
        <time>2009-08-08T15:47:32Z</time>
      </trkpt>
      <trkpt lat="45.08844" lon="5.12739">
        <ele>205.65299987793</ele>
        <time>2009-08-08T15:47:44Z</time>
      </trkpt>
      <trkpt lat="45.08895" lon="5.12581">
        <ele>207.70199584961</ele>
        <time>2009-08-08T15:48:03Z</time>
      </trkpt>
      <trkpt lat="45.08917" lon="5.125">
        <ele>207.64300537109</ele>
        <time>2009-08-08T15:48:12Z</time>
      </trkpt>
      <trkpt lat="45.0892" lon="5.12349">
        <ele>205.12300109863</ele>
        <time>2009-08-08T15:48:27Z</time>
      </trkpt>
      <trkpt lat="45.08912" lon="5.12198">
        <ele>203.70599365234</ele>
        <time>2009-08-08T15:48:40Z</time>
      </trkpt>
      <trkpt lat="45.08902" lon="5.12037">
        <ele>202.88900756836</ele>
        <time>2009-08-08T15:48:54Z</time>
      </trkpt>
      <trkpt lat="45.08892" lon="5.11898">
        <ele>200.92100524902</ele>
        <time>2009-08-08T15:49:06Z</time>
      </trkpt>
      <trkpt lat="45.08884" lon="5.1177">
        <ele>202.13499450684</ele>
        <time>2009-08-08T15:49:17Z</time>
      </trkpt>
      <trkpt lat="45.08874" lon="5.11639">
        <ele>201.39300537109</ele>
        <time>2009-08-08T15:49:29Z</time>
      </trkpt>
      <trkpt lat="45.08866" lon="5.11528">
        <ele>200.26100158691</ele>
        <time>2009-08-08T15:49:39Z</time>
      </trkpt>
      <trkpt lat="45.08844" lon="5.11282">
        <ele>198.25300598144</ele>
        <time>2009-08-08T15:49:59Z</time>
      </trkpt>
      <trkpt lat="45.08812" lon="5.11051">
        <ele>196.71099853516</ele>
        <time>2009-08-08T15:50:18Z</time>
      </trkpt>
      <trkpt lat="45.08788" lon="5.10825">
        <ele>195.77699279785</ele>
        <time>2009-08-08T15:50:36Z</time>
      </trkpt>
      <trkpt lat="45.08769" lon="5.10632">
        <ele>195.88800048828</ele>
        <time>2009-08-08T15:50:52Z</time>
      </trkpt>
      <trkpt lat="45.08704" lon="5.10382">
        <ele>196.63299560547</ele>
        <time>2009-08-08T15:51:14Z</time>
      </trkpt>
      <trkpt lat="45.08642" lon="5.10137">
        <ele>197.04699707031</ele>
        <time>2009-08-08T15:51:36Z</time>
      </trkpt>
      <trkpt lat="45.08589" lon="5.09925">
        <ele>195.65899658203</ele>
        <time>2009-08-08T15:51:53Z</time>
      </trkpt>
      <trkpt lat="45.08519" lon="5.09697">
        <ele>193.55200195312</ele>
        <time>2009-08-08T15:52:12Z</time>
      </trkpt>
      <trkpt lat="45.08469" lon="5.09564">
        <ele>192.4640045166</ele>
        <time>2009-08-08T15:52:23Z</time>
      </trkpt>
      <trkpt lat="45.08469" lon="5.09436">
        <ele>192.72099304199</ele>
        <time>2009-08-08T15:52:33Z</time>
      </trkpt>
      <trkpt lat="45.08485" lon="5.09329">
        <ele>192.90899658203</ele>
        <time>2009-08-08T15:52:42Z</time>
      </trkpt>
      <trkpt lat="45.08543" lon="5.09229">
        <ele>194.02799987793</ele>
        <time>2009-08-08T15:52:54Z</time>
      </trkpt>
      <trkpt lat="45.08561" lon="5.09196">
        <ele>194.57099914551</ele>
        <time>2009-08-08T15:52:58Z</time>
      </trkpt>
      <trkpt lat="45.08609" lon="5.0902">
        <ele>196.21299743652</ele>
        <time>2009-08-08T15:53:17Z</time>
      </trkpt>
      <trkpt lat="45.08681" lon="5.08868">
        <ele>197.40699768066</ele>
        <time>2009-08-08T15:53:36Z</time>
      </trkpt>
      <trkpt lat="45.08729" lon="5.08694">
        <ele>199.64100646973</ele>
        <time>2009-08-08T15:53:55Z</time>
      </trkpt>
      <trkpt lat="45.08746" lon="5.08616">
        <ele>200.6609954834</ele>
        <time>2009-08-08T15:54:04Z</time>
      </trkpt>
      <trkpt lat="45.08752" lon="5.08601">
        <ele>201.86700439453</ele>
        <time>2009-08-08T15:54:06Z</time>
      </trkpt>
      <trkpt lat="45.08756" lon="5.08595">
        <ele>202.01899719238</ele>
        <time>2009-08-08T15:54:07Z</time>
      </trkpt>
      <trkpt lat="45.08755" lon="5.08534">
        <ele>202.74600219727</ele>
        <time>2009-08-08T15:54:14Z</time>
      </trkpt>
      <trkpt lat="45.0877" lon="5.08395">
        <ele>206.89799499512</ele>
        <time>2009-08-08T15:54:30Z</time>
      </trkpt>
      <trkpt lat="45.08783" lon="5.08293">
        <ele>210.23100280762</ele>
        <time>2009-08-08T15:54:42Z</time>
      </trkpt>
      <trkpt lat="45.088" lon="5.08179">
        <ele>214.67799377441</ele>
        <time>2009-08-08T15:54:55Z</time>
      </trkpt>
      <trkpt lat="45.08815" lon="5.08101">
        <ele>217</ele>
        <time>2009-08-08T15:55:04Z</time>
      </trkpt>
      <trkpt lat="45.08833" lon="5.08009">
        <ele>220.14900207519</ele>
        <time>2009-08-08T15:55:15Z</time>
      </trkpt>
      <trkpt lat="45.0885" lon="5.07918">
        <ele>222.17900085449</ele>
        <time>2009-08-08T15:55:27Z</time>
      </trkpt>
      <trkpt lat="45.08867" lon="5.0788">
        <ele>223.71099853516</ele>
        <time>2009-08-08T15:55:33Z</time>
      </trkpt>
      <trkpt lat="45.08897" lon="5.07842">
        <ele>225.35400390625</ele>
        <time>2009-08-08T15:55:41Z</time>
      </trkpt>
      <trkpt lat="45.0895" lon="5.07811">
        <ele>227.25100708008</ele>
        <time>2009-08-08T15:55:53Z</time>
      </trkpt>
      <trkpt lat="45.09" lon="5.07782">
        <ele>228.25</ele>
        <time>2009-08-08T15:56:08Z</time>
      </trkpt>
      <trkpt lat="45.09052" lon="5.07739">
        <ele>229.41499328613</ele>
        <time>2009-08-08T15:56:23Z</time>
      </trkpt>
      <trkpt lat="45.09101" lon="5.07691">
        <ele>228.78500366211</ele>
        <time>2009-08-08T15:56:34Z</time>
      </trkpt>
      <trkpt lat="45.09168" lon="5.07589">
        <ele>226.08299255371</ele>
        <time>2009-08-08T15:56:49Z</time>
      </trkpt>
      <trkpt lat="45.09212" lon="5.07492">
        <ele>224.77400207519</ele>
        <time>2009-08-08T15:57:00Z</time>
      </trkpt>
      <trkpt lat="45.09275" lon="5.07358">
        <ele>224.02400207519</ele>
        <time>2009-08-08T15:57:14Z</time>
      </trkpt>
      <trkpt lat="45.09342" lon="5.0722">
        <ele>222.23199462891</ele>
        <time>2009-08-08T15:57:29Z</time>
      </trkpt>
      <trkpt lat="45.09375" lon="5.07191">
        <ele>222.28300476074</ele>
        <time>2009-08-08T15:57:34Z</time>
      </trkpt>
      <trkpt lat="45.09399" lon="5.07116">
        <ele>220.62100219727</ele>
        <time>2009-08-08T15:57:41Z</time>
      </trkpt>
      <trkpt lat="45.09399" lon="5.07102">
        <ele>220.39700317383</ele>
        <time>2009-08-08T15:57:42Z</time>
      </trkpt>
      <trkpt lat="45.09387" lon="5.06925">
        <ele>217.94299316406</ele>
        <time>2009-08-08T15:57:55Z</time>
      </trkpt>
      <trkpt lat="45.09376" lon="5.06709">
        <ele>216.46099853516</ele>
        <time>2009-08-08T15:58:11Z</time>
      </trkpt>
      <trkpt lat="45.09388" lon="5.06508">
        <ele>213.43899536133</ele>
        <time>2009-08-08T15:58:26Z</time>
      </trkpt>
      <trkpt lat="45.09377" lon="5.06238">
        <ele>211.47599792481</ele>
        <time>2009-08-08T15:58:46Z</time>
      </trkpt>
      <trkpt lat="45.09374" lon="5.06035">
        <ele>209.24499511719</ele>
        <time>2009-08-08T15:59:02Z</time>
      </trkpt>
      <trkpt lat="45.09402" lon="5.05828">
        <ele>209.29899597168</ele>
        <time>2009-08-08T15:59:19Z</time>
      </trkpt>
      <trkpt lat="45.09435" lon="5.0567">
        <ele>210.97500610352</ele>
        <time>2009-08-08T15:59:34Z</time>
      </trkpt>
      <trkpt lat="45.09443" lon="5.05604">
        <ele>211.35699462891</ele>
        <time>2009-08-08T15:59:41Z</time>
      </trkpt>
      <trkpt lat="45.09434" lon="5.05462">
        <ele>210.83299255371</ele>
        <time>2009-08-08T15:59:55Z</time>
      </trkpt>
      <trkpt lat="45.09411" lon="5.05352">
        <ele>209.97099304199</ele>
        <time>2009-08-08T16:00:05Z</time>
      </trkpt>
      <trkpt lat="45.09338" lon="5.05223">
        <ele>209.56500244141</ele>
        <time>2009-08-08T16:00:19Z</time>
      </trkpt>
      <trkpt lat="45.09272" lon="5.05101">
        <ele>209.82699584961</ele>
        <time>2009-08-08T16:00:33Z</time>
      </trkpt>
      <trkpt lat="45.09261" lon="5.05075">
        <ele>208.81599426269</ele>
        <time>2009-08-08T16:00:36Z</time>
      </trkpt>
      <trkpt lat="45.09253" lon="5.05056">
        <ele>208.24699401856</ele>
        <time>2009-08-08T16:00:38Z</time>
      </trkpt>
      <trkpt lat="45.09245" lon="5.05024">
        <ele>207.43200683594</ele>
        <time>2009-08-08T16:00:41Z</time>
      </trkpt>
      <trkpt lat="45.09257" lon="5.0496">
        <ele>205.38499450684</ele>
        <time>2009-08-08T16:00:47Z</time>
      </trkpt>
      <trkpt lat="45.09263" lon="5.04952">
        <ele>204.78799438477</ele>
        <time>2009-08-08T16:00:48Z</time>
      </trkpt>
      <trkpt lat="45.09306" lon="5.04884">
        <ele>204.5950012207</ele>
        <time>2009-08-08T16:00:56Z</time>
      </trkpt>
      <trkpt lat="45.09311" lon="5.04798">
        <ele>203.36599731445</ele>
        <time>2009-08-08T16:01:04Z</time>
      </trkpt>
      <trkpt lat="45.09312" lon="5.04771">
        <ele>203.65800476074</ele>
        <time>2009-08-08T16:01:07Z</time>
      </trkpt>
      <trkpt lat="45.09323" lon="5.04744">
        <ele>203.47900390625</ele>
        <time>2009-08-08T16:01:11Z</time>
      </trkpt>
      <trkpt lat="45.09337" lon="5.04729">
        <ele>204.03199768066</ele>
        <time>2009-08-08T16:01:14Z</time>
      </trkpt>
      <trkpt lat="45.09365" lon="5.04703">
        <ele>204.66299438477</ele>
        <time>2009-08-08T16:01:20Z</time>
      </trkpt>
      <trkpt lat="45.09369" lon="5.04699">
        <ele>204.74699401856</ele>
        <time>2009-08-08T16:01:21Z</time>
      </trkpt>
      <trkpt lat="45.09416" lon="5.04679">
        <ele>205.88999938965</ele>
        <time>2009-08-08T16:01:29Z</time>
      </trkpt>
      <trkpt lat="45.09451" lon="5.04665">
        <ele>206.72399902344</ele>
        <time>2009-08-08T16:01:35Z</time>
      </trkpt>
      <trkpt lat="45.09493" lon="5.04646">
        <ele>207.62600708008</ele>
        <time>2009-08-08T16:01:42Z</time>
      </trkpt>
      <trkpt lat="45.09577" lon="5.04596">
        <ele>209.44700622559</ele>
        <time>2009-08-08T16:01:58Z</time>
      </trkpt>
      <trkpt lat="45.09587" lon="5.04587">
        <ele>209.71800231934</ele>
        <time>2009-08-08T16:02:00Z</time>
      </trkpt>
      <trkpt lat="45.09605" lon="5.04549">
        <ele>209.76699829102</ele>
        <time>2009-08-08T16:02:06Z</time>
      </trkpt>
      <trkpt lat="45.0961" lon="5.04535">
        <ele>210.80999755859</ele>
        <time>2009-08-08T16:02:08Z</time>
      </trkpt>
      <trkpt lat="45.09622" lon="5.04522">
        <ele>211.10299682617</ele>
        <time>2009-08-08T16:02:11Z</time>
      </trkpt>
      <trkpt lat="45.09628" lon="5.04476">
        <ele>212.30599975586</ele>
        <time>2009-08-08T16:02:18Z</time>
      </trkpt>
      <trkpt lat="45.09629" lon="5.04469">
        <ele>212.4049987793</ele>
        <time>2009-08-08T16:02:19Z</time>
      </trkpt>
      <trkpt lat="45.09635" lon="5.0445">
        <ele>212.89399719238</ele>
        <time>2009-08-08T16:02:22Z</time>
      </trkpt>
      <trkpt lat="45.09671" lon="5.0435">
        <ele>214.52299499512</ele>
        <time>2009-08-08T16:02:37Z</time>
      </trkpt>
      <trkpt lat="45.09737" lon="5.04277">
        <ele>213.49899291992</ele>
        <time>2009-08-08T16:02:50Z</time>
      </trkpt>
      <trkpt lat="45.09802" lon="5.04211">
        <ele>212.72700500488</ele>
        <time>2009-08-08T16:03:02Z</time>
      </trkpt>
      <trkpt lat="45.09854" lon="5.04156">
        <ele>211.45399475098</ele>
        <time>2009-08-08T16:03:12Z</time>
      </trkpt>
      <trkpt lat="45.09859" lon="5.0415">
        <ele>211.17100524902</ele>
        <time>2009-08-08T16:03:13Z</time>
      </trkpt>
      <trkpt lat="45.09875" lon="5.04111">
        <ele>211.32299804688</ele>
        <time>2009-08-08T16:03:18Z</time>
      </trkpt>
      <trkpt lat="45.09894" lon="5.04025">
        <ele>211.55599975586</ele>
        <time>2009-08-08T16:03:27Z</time>
      </trkpt>
      <trkpt lat="45.09887" lon="5.03968">
        <ele>211.97200012207</ele>
        <time>2009-08-08T16:03:33Z</time>
      </trkpt>
      <trkpt lat="45.09828" lon="5.03814">
        <ele>211.86599731445</ele>
        <time>2009-08-08T16:03:51Z</time>
      </trkpt>
      <trkpt lat="45.09811" lon="5.0375">
        <ele>212.6190032959</ele>
        <time>2009-08-08T16:03:58Z</time>
      </trkpt>
      <trkpt lat="45.09802" lon="5.03693">
        <ele>213.6309967041</ele>
        <time>2009-08-08T16:04:05Z</time>
      </trkpt>
      <trkpt lat="45.09797" lon="5.0366">
        <ele>214.84199523926</ele>
        <time>2009-08-08T16:04:09Z</time>
      </trkpt>
      <trkpt lat="45.09794" lon="5.03643">
        <ele>214.81700134277</ele>
        <time>2009-08-08T16:04:11Z</time>
      </trkpt>
      <trkpt lat="45.09795" lon="5.03606">
        <ele>215.81199645996</ele>
        <time>2009-08-08T16:04:15Z</time>
      </trkpt>
      <trkpt lat="45.09799" lon="5.03588">
        <ele>214.99800109863</ele>
        <time>2009-08-08T16:04:17Z</time>
      </trkpt>
      <trkpt lat="45.09854" lon="5.03491">
        <ele>214.40100097656</ele>
        <time>2009-08-08T16:04:29Z</time>
      </trkpt>
      <trkpt lat="45.0989" lon="5.03436">
        <ele>214.42599487305</ele>
        <time>2009-08-08T16:04:36Z</time>
      </trkpt>
      <trkpt lat="45.09925" lon="5.0333">
        <ele>216.58700561523</ele>
        <time>2009-08-08T16:04:48Z</time>
      </trkpt>
      <trkpt lat="45.0995" lon="5.03243">
        <ele>218.93699645996</ele>
        <time>2009-08-08T16:05:02Z</time>
      </trkpt>
      <trkpt lat="45.09967" lon="5.03183">
        <ele>220.88600158691</ele>
        <time>2009-08-08T16:05:12Z</time>
      </trkpt>
      <trkpt lat="45.10002" lon="5.03064">
        <ele>222.79600524902</ele>
        <time>2009-08-08T16:05:29Z</time>
      </trkpt>
      <trkpt lat="45.10027" lon="5.02965">
        <ele>226.13000488281</ele>
        <time>2009-08-08T16:05:44Z</time>
      </trkpt>
      <trkpt lat="45.10053" lon="5.02876">
        <ele>230.75199890137</ele>
        <time>2009-08-08T16:05:59Z</time>
      </trkpt>
      <trkpt lat="45.10065" lon="5.02825">
        <ele>233.13000488281</ele>
        <time>2009-08-08T16:06:08Z</time>
      </trkpt>
      <trkpt lat="45.10074" lon="5.02797">
        <ele>234.30000305176</ele>
        <time>2009-08-08T16:06:13Z</time>
      </trkpt>
      <trkpt lat="45.10077" lon="5.02772">
        <ele>235.59899902344</ele>
        <time>2009-08-08T16:06:17Z</time>
      </trkpt>
      <trkpt lat="45.10069" lon="5.02739">
        <ele>236.88999938965</ele>
        <time>2009-08-08T16:06:23Z</time>
      </trkpt>
      <trkpt lat="45.10057" lon="5.02722">
        <ele>237.68299865723</ele>
        <time>2009-08-08T16:06:27Z</time>
      </trkpt>
      <trkpt lat="45.1002" lon="5.02673">
        <ele>241.23199462891</ele>
        <time>2009-08-08T16:06:41Z</time>
      </trkpt>
      <trkpt lat="45.09994" lon="5.02627">
        <ele>243.80799865723</ele>
        <time>2009-08-08T16:06:52Z</time>
      </trkpt>
      <trkpt lat="45.09967" lon="5.02561">
        <ele>247.13800048828</ele>
        <time>2009-08-08T16:07:06Z</time>
      </trkpt>
      <trkpt lat="45.09933" lon="5.02516">
        <ele>249.78399658203</ele>
        <time>2009-08-08T16:07:17Z</time>
      </trkpt>
      <trkpt lat="45.09925" lon="5.02505">
        <ele>250.61799621582</ele>
        <time>2009-08-08T16:07:19Z</time>
      </trkpt>
      <trkpt lat="45.09915" lon="5.02485">
        <ele>252.02699279785</ele>
        <time>2009-08-08T16:07:22Z</time>
      </trkpt>
      <trkpt lat="45.09902" lon="5.02454">
        <ele>253.46600341797</ele>
        <time>2009-08-08T16:07:27Z</time>
      </trkpt>
      <trkpt lat="45.09875" lon="5.02359">
        <ele>255.74200439453</ele>
        <time>2009-08-08T16:07:42Z</time>
      </trkpt>
      <trkpt lat="45.09858" lon="5.02287">
        <ele>253.21899414062</ele>
        <time>2009-08-08T16:07:50Z</time>
      </trkpt>
      <trkpt lat="45.09855" lon="5.02264">
        <ele>252.43200683594</ele>
        <time>2009-08-08T16:07:52Z</time>
      </trkpt>
      <trkpt lat="45.09861" lon="5.02214">
        <ele>249.57800292969</ele>
        <time>2009-08-08T16:07:56Z</time>
      </trkpt>
      <trkpt lat="45.09892" lon="5.02111">
        <ele>245.72799682617</ele>
        <time>2009-08-08T16:08:04Z</time>
      </trkpt>
      <trkpt lat="45.09911" lon="5.02056">
        <ele>243.07600402832</ele>
        <time>2009-08-08T16:08:08Z</time>
      </trkpt>
      <trkpt lat="45.09986" lon="5.01836">
        <ele>237.69500732422</ele>
        <time>2009-08-08T16:08:23Z</time>
      </trkpt>
      <trkpt lat="45.10054" lon="5.0161">
        <ele>234.24099731445</ele>
        <time>2009-08-08T16:08:39Z</time>
      </trkpt>
      <trkpt lat="45.10075" lon="5.01398">
        <ele>236.36199951172</ele>
        <time>2009-08-08T16:08:56Z</time>
      </trkpt>
      <trkpt lat="45.1009" lon="5.0124">
        <ele>235.74499511719</ele>
        <time>2009-08-08T16:09:12Z</time>
      </trkpt>
      <trkpt lat="45.10125" lon="5.01112">
        <ele>235.05700683594</ele>
        <time>2009-08-08T16:09:25Z</time>
      </trkpt>
      <trkpt lat="45.10133" lon="5.01094">
        <ele>234.89100646973</ele>
        <time>2009-08-08T16:09:27Z</time>
      </trkpt>
      <trkpt lat="45.10223" lon="5.00963">
        <ele>232.91000366211</ele>
        <time>2009-08-08T16:09:42Z</time>
      </trkpt>
      <trkpt lat="45.10337" lon="5.00863">
        <ele>231.69000244141</ele>
        <time>2009-08-08T16:09:57Z</time>
      </trkpt>
      <trkpt lat="45.10463" lon="5.00764">
        <ele>230.18299865723</ele>
        <time>2009-08-08T16:10:16Z</time>
      </trkpt>
      <trkpt lat="45.10546" lon="5.00696">
        <ele>231.56799316406</ele>
        <time>2009-08-08T16:10:31Z</time>
      </trkpt>
      <trkpt lat="45.10591" lon="5.00658">
        <ele>234.26499938965</ele>
        <time>2009-08-08T16:10:41Z</time>
      </trkpt>
      <trkpt lat="45.10629" lon="5.00629">
        <ele>236.46299743652</ele>
        <time>2009-08-08T16:10:52Z</time>
      </trkpt>
      <trkpt lat="45.10677" lon="5.00603">
        <ele>238.74200439453</ele>
        <time>2009-08-08T16:11:08Z</time>
      </trkpt>
      <trkpt lat="45.10739" lon="5.00587">
        <ele>242.61399841309</ele>
        <time>2009-08-08T16:11:28Z</time>
      </trkpt>
      <trkpt lat="45.10779" lon="5.00581">
        <ele>245.02299499512</ele>
        <time>2009-08-08T16:11:43Z</time>
      </trkpt>
      <trkpt lat="45.10821" lon="5.00577">
        <ele>247.70599365234</ele>
        <time>2009-08-08T16:11:58Z</time>
      </trkpt>
      <trkpt lat="45.10839" lon="5.00573">
        <ele>249.47399902344</ele>
        <time>2009-08-08T16:12:05Z</time>
      </trkpt>
      <trkpt lat="45.10881" lon="5.00564">
        <ele>251.94799804688</ele>
        <time>2009-08-08T16:12:20Z</time>
      </trkpt>
      <trkpt lat="45.1094" lon="5.00538">
        <ele>253.33999633789</ele>
        <time>2009-08-08T16:12:37Z</time>
      </trkpt>
      <trkpt lat="45.11005" lon="5.00489">
        <ele>250.05900573731</ele>
        <time>2009-08-08T16:12:51Z</time>
      </trkpt>
      <trkpt lat="45.11054" lon="5.00456">
        <ele>247.55000305176</ele>
        <time>2009-08-08T16:12:58Z</time>
      </trkpt>
      <trkpt lat="45.11141" lon="5.00405">
        <ele>243.42300415039</ele>
        <time>2009-08-08T16:13:08Z</time>
      </trkpt>
      <trkpt lat="45.11239" lon="5.00355">
        <ele>238.21000671387</ele>
        <time>2009-08-08T16:13:19Z</time>
      </trkpt>
      <trkpt lat="45.11324" lon="5.00299">
        <ele>235.02000427246</ele>
        <time>2009-08-08T16:13:29Z</time>
      </trkpt>
      <trkpt lat="45.11425" lon="5.00211">
        <ele>234.08500671387</ele>
        <time>2009-08-08T16:13:43Z</time>
      </trkpt>
      <trkpt lat="45.11528" lon="5.00113">
        <ele>233.35200500488</ele>
        <time>2009-08-08T16:14:02Z</time>
      </trkpt>
      <trkpt lat="45.1163" lon="4.99989">
        <ele>231.26699829102</ele>
        <time>2009-08-08T16:14:22Z</time>
      </trkpt>
      <trkpt lat="45.11642" lon="4.99974">
        <ele>230.00100708008</ele>
        <time>2009-08-08T16:14:24Z</time>
      </trkpt>
      <trkpt lat="45.1173" lon="4.99906">
        <ele>224.78799438477</ele>
        <time>2009-08-08T16:14:35Z</time>
      </trkpt>
      <trkpt lat="45.11832" lon="4.99856">
        <ele>217.47099304199</ele>
        <time>2009-08-08T16:14:46Z</time>
      </trkpt>
      <trkpt lat="45.11899" lon="4.99815">
        <ele>213.21200561523</ele>
        <time>2009-08-08T16:14:53Z</time>
      </trkpt>
      <trkpt lat="45.11932" lon="4.9978">
        <ele>211.47700500488</ele>
        <time>2009-08-08T16:14:57Z</time>
      </trkpt>
      <trkpt lat="45.12005" lon="4.99658">
        <ele>210.20399475098</ele>
        <time>2009-08-08T16:15:10Z</time>
      </trkpt>
      <trkpt lat="45.12062" lon="4.99556">
        <ele>210.26899719238</ele>
        <time>2009-08-08T16:15:22Z</time>
      </trkpt>
      <trkpt lat="45.12095" lon="4.99497">
        <ele>210.33099365234</ele>
        <time>2009-08-08T16:15:29Z</time>
      </trkpt>
      <trkpt lat="45.12151" lon="4.99357">
        <ele>208.64500427246</ele>
        <time>2009-08-08T16:15:43Z</time>
      </trkpt>
      <trkpt lat="45.12193" lon="4.99198">
        <ele>209.35400390625</ele>
        <time>2009-08-08T16:15:59Z</time>
      </trkpt>
      <trkpt lat="45.12222" lon="4.99093">
        <ele>210.37199401856</ele>
        <time>2009-08-08T16:16:12Z</time>
      </trkpt>
      <trkpt lat="45.1223" lon="4.99038">
        <ele>212.52099609375</ele>
        <time>2009-08-08T16:16:20Z</time>
      </trkpt>
      <trkpt lat="45.12223" lon="4.99035">
        <ele>212.2619934082</ele>
        <time>2009-08-08T16:16:21Z</time>
      </trkpt>
      <trkpt lat="45.12158" lon="4.98982">
        <ele>207.91000366211</ele>
        <time>2009-08-08T16:16:30Z</time>
      </trkpt>
      <trkpt lat="45.12081" lon="4.98849">
        <ele>205.59100341797</ele>
        <time>2009-08-08T16:16:42Z</time>
      </trkpt>
      <trkpt lat="45.12034" lon="4.98694">
        <ele>204.73100280762</ele>
        <time>2009-08-08T16:16:55Z</time>
      </trkpt>
      <trkpt lat="45.12022" lon="4.98529">
        <ele>204.55700683594</ele>
        <time>2009-08-08T16:17:10Z</time>
      </trkpt>
      <trkpt lat="45.12037" lon="4.98441">
        <ele>204.01100158691</ele>
        <time>2009-08-08T16:17:20Z</time>
      </trkpt>
      <trkpt lat="45.12048" lon="4.98427">
        <ele>204.07400512695</ele>
        <time>2009-08-08T16:17:25Z</time>
      </trkpt>
      <trkpt lat="45.12054" lon="4.98408">
        <ele>204.23100280762</ele>
        <time>2009-08-08T16:17:28Z</time>
      </trkpt>
      <trkpt lat="45.12036" lon="4.98391">
        <ele>204.48399353027</ele>
        <time>2009-08-08T16:17:34Z</time>
      </trkpt>
      <trkpt lat="45.12012" lon="4.98391">
        <ele>203.00199890137</ele>
        <time>2009-08-08T16:17:38Z</time>
      </trkpt>
      <trkpt lat="45.12" lon="4.98386">
        <ele>202.89100646973</ele>
        <time>2009-08-08T16:17:40Z</time>
      </trkpt>
      <trkpt lat="45.1196" lon="4.98413">
        <ele>202.42900085449</ele>
        <time>2009-08-08T16:17:48Z</time>
      </trkpt>
      <trkpt lat="45.11961" lon="4.98421">
        <ele>202.63400268555</ele>
        <time>2009-08-08T16:17:53Z</time>
      </trkpt>
      <trkpt lat="45.11961" lon="4.98422">
        <ele>202.35099792481</ele>
        <time>2009-08-08T16:18:19Z</time>
      </trkpt>
      <trkpt lat="45.11962" lon="4.98422">
        <ele>202.57899475098</ele>
        <time>2009-08-08T16:18:20Z</time>
      </trkpt>
      <trkpt lat="45.11968" lon="4.98431">
        <ele>203.5890045166</ele>
        <time>2009-08-08T16:18:47Z</time>
      </trkpt>
      <trkpt lat="45.11971" lon="4.98434">
        <ele>203.37100219727</ele>
        <time>2009-08-08T16:18:56Z</time>
      </trkpt>
      <trkpt lat="45.11968" lon="4.98418">
        <ele>202.66600036621</ele>
        <time>2009-08-08T16:19:03Z</time>
      </trkpt>
      <trkpt lat="45.1197" lon="4.98406">
        <ele>202.64999389648</ele>
        <time>2009-08-08T16:19:08Z</time>
      </trkpt>
      <trkpt lat="45.11971" lon="4.98403">
        <ele>202.56599426269</ele>
        <time>2009-08-08T16:19:09Z</time>
      </trkpt>
      <trkpt lat="45.12003" lon="4.98393">
        <ele>203.1609954834</ele>
        <time>2009-08-08T16:19:21Z</time>
      </trkpt>
      <trkpt lat="45.12038" lon="4.98425">
        <ele>204.36099243164</ele>
        <time>2009-08-08T16:19:33Z</time>
      </trkpt>
      <trkpt lat="45.12056" lon="4.98409">
        <ele>204.45199584961</ele>
        <time>2009-08-08T16:19:39Z</time>
      </trkpt>
      <trkpt lat="45.12056" lon="4.98396">
        <ele>204.75399780273</ele>
        <time>2009-08-08T16:19:41Z</time>
      </trkpt>
      <trkpt lat="45.12055" lon="4.98382">
        <ele>204.77600097656</ele>
        <time>2009-08-08T16:19:43Z</time>
      </trkpt>
      <trkpt lat="45.12072" lon="4.98263">
        <ele>202.47999572754</ele>
        <time>2009-08-08T16:19:58Z</time>
      </trkpt>
      <trkpt lat="45.12069" lon="4.9813">
        <ele>202.47300720215</ele>
        <time>2009-08-08T16:20:14Z</time>
      </trkpt>
      <trkpt lat="45.1203" lon="4.97967">
        <ele>200.90100097656</ele>
        <time>2009-08-08T16:20:31Z</time>
      </trkpt>
      <trkpt lat="45.11989" lon="4.97762">
        <ele>199.2799987793</ele>
        <time>2009-08-08T16:20:50Z</time>
      </trkpt>
      <trkpt lat="45.11969" lon="4.97651">
        <ele>198.77900695801</ele>
        <time>2009-08-08T16:21:00Z</time>
      </trkpt>
      <trkpt lat="45.11938" lon="4.97474">
        <ele>197.40699768066</ele>
        <time>2009-08-08T16:21:17Z</time>
      </trkpt>
      <trkpt lat="45.11896" lon="4.9723">
        <ele>198.12899780273</ele>
        <time>2009-08-08T16:21:40Z</time>
      </trkpt>
      <trkpt lat="45.11883" lon="4.97152">
        <ele>197.17100524902</ele>
        <time>2009-08-08T16:21:49Z</time>
      </trkpt>
      <trkpt lat="45.11894" lon="4.97092">
        <ele>198.00999450684</ele>
        <time>2009-08-08T16:21:57Z</time>
      </trkpt>
      <trkpt lat="45.11895" lon="4.97049">
        <ele>198.66799926758</ele>
        <time>2009-08-08T16:22:04Z</time>
      </trkpt>
      <trkpt lat="45.1181" lon="4.96944">
        <ele>198.1549987793</ele>
        <time>2009-08-08T16:22:20Z</time>
      </trkpt>
      <trkpt lat="45.11775" lon="4.96888">
        <ele>198.05099487305</ele>
        <time>2009-08-08T16:22:27Z</time>
      </trkpt>
      <trkpt lat="45.11766" lon="4.96832">
        <ele>197.72500610352</ele>
        <time>2009-08-08T16:22:33Z</time>
      </trkpt>
      <trkpt lat="45.11736" lon="4.96811">
        <ele>197.65400695801</ele>
        <time>2009-08-08T16:22:38Z</time>
      </trkpt>
      <trkpt lat="45.11718" lon="4.96794">
        <ele>197.74000549316</ele>
        <time>2009-08-08T16:22:41Z</time>
      </trkpt>
      <trkpt lat="45.11665" lon="4.96704">
        <ele>196.81199645996</ele>
        <time>2009-08-08T16:22:54Z</time>
      </trkpt>
      <trkpt lat="45.11593" lon="4.96521">
        <ele>195.89999389648</ele>
        <time>2009-08-08T16:23:14Z</time>
      </trkpt>
      <trkpt lat="45.11586" lon="4.96506">
        <ele>196.07800292969</ele>
        <time>2009-08-08T16:23:16Z</time>
      </trkpt>
      <trkpt lat="45.11582" lon="4.96468">
        <ele>196.92500305176</ele>
        <time>2009-08-08T16:23:21Z</time>
      </trkpt>
      <trkpt lat="45.11583" lon="4.96452">
        <ele>197.24099731445</ele>
        <time>2009-08-08T16:23:24Z</time>
      </trkpt>
      <trkpt lat="45.11578" lon="4.96442">
        <ele>197.16700744629</ele>
        <time>2009-08-08T16:23:29Z</time>
      </trkpt>
      <trkpt lat="45.11579" lon="4.96444">
        <ele>197.05700683594</ele>
        <time>2009-08-08T16:23:58Z</time>
      </trkpt>
      <trkpt lat="45.11564" lon="4.9644">
        <ele>197.26400756836</ele>
        <time>2009-08-08T16:24:07Z</time>
      </trkpt>
    </trkseg>
  </trk>
</gpx>